<?xml version="1.0" encoding="UTF-8" standalone="no" ?>
<gpx xmlns="http://www.topografix.com/GPX/1/1" xmlns:xsi="http://www.w3.org/2001/XMLSchema-instance" xsi:schemaLocation="http://www.topografix.com/GPX/1/1 http://www.topografix.com/GPX/1/1/gpx.xsd" version="1.1" creator="VisuGPX - https://www.visugpx.com">
  <metadata>
    <name>Rando-du-Beaujolais-91-1100</name>
    <desc><![CDATA[Rando du Beaujolais - Grand parcours - 91 km - D+ 1100 m]]></desc>
  </metadata>
  <trk>
    <name><![CDATA[Rando-du-Beaujolais-91-1100-02-10]]></name>
    <trkseg>
      <trkpt lat="45.99065" lon="4.70932">
        <ele>189</ele>
        <time>2022-09-15T18:28:22Z</time>
      </trkpt>
      <trkpt lat="45.9909" lon="4.71147">
        <ele>190</ele>
        <time>2022-09-15T18:28:49Z</time>
      </trkpt>
      <trkpt lat="45.99134" lon="4.71468">
        <ele>191</ele>
        <time>2022-09-15T18:29:29Z</time>
      </trkpt>
      <trkpt lat="45.99138" lon="4.7149">
        <ele>192</ele>
        <time>2022-09-15T18:29:32Z</time>
      </trkpt>
      <trkpt lat="45.99143" lon="4.71499">
        <ele>192</ele>
        <time>2022-09-15T18:29:34Z</time>
      </trkpt>
      <trkpt lat="45.99152" lon="4.71508">
        <ele>192</ele>
        <time>2022-09-15T18:29:36Z</time>
      </trkpt>
      <trkpt lat="45.99568" lon="4.715">
        <ele>197</ele>
        <time>2022-09-15T18:30:50Z</time>
      </trkpt>
      <trkpt lat="45.99579" lon="4.71507">
        <ele>196</ele>
        <time>2022-09-15T18:30:52Z</time>
      </trkpt>
      <trkpt lat="45.99586" lon="4.71516">
        <ele>197</ele>
        <time>2022-09-15T18:30:53Z</time>
      </trkpt>
      <trkpt lat="45.99588" lon="4.71524">
        <ele>197</ele>
        <time>2022-09-15T18:30:54Z</time>
      </trkpt>
      <trkpt lat="45.99593" lon="4.71531">
        <ele>197</ele>
        <time>2022-09-15T18:30:56Z</time>
      </trkpt>
      <trkpt lat="45.99601" lon="4.71533">
        <ele>197</ele>
        <time>2022-09-15T18:30:57Z</time>
      </trkpt>
      <trkpt lat="45.99609" lon="4.71527">
        <ele>197</ele>
        <time>2022-09-15T18:30:59Z</time>
      </trkpt>
      <trkpt lat="45.99612" lon="4.71515">
        <ele>197</ele>
        <time>2022-09-15T18:31:00Z</time>
      </trkpt>
      <trkpt lat="45.99611" lon="4.71506">
        <ele>197</ele>
        <time>2022-09-15T18:31:01Z</time>
      </trkpt>
      <trkpt lat="45.99607" lon="4.71498">
        <ele>196</ele>
        <time>2022-09-15T18:31:03Z</time>
      </trkpt>
      <trkpt lat="45.99608" lon="4.71483">
        <ele>196</ele>
        <time>2022-09-15T18:31:05Z</time>
      </trkpt>
      <trkpt lat="45.99611" lon="4.71465">
        <ele>197</ele>
        <time>2022-09-15T18:31:07Z</time>
      </trkpt>
      <trkpt lat="45.99752" lon="4.71198">
        <ele>198</ele>
        <time>2022-09-15T18:31:48Z</time>
      </trkpt>
      <trkpt lat="45.99792" lon="4.71119">
        <ele>198</ele>
        <time>2022-09-15T18:32:00Z</time>
      </trkpt>
      <trkpt lat="45.99877" lon="4.70644">
        <ele>200</ele>
        <time>2022-09-15T18:33:01Z</time>
      </trkpt>
      <trkpt lat="46.00043" lon="4.70606">
        <ele>198</ele>
        <time>2022-09-15T18:33:31Z</time>
      </trkpt>
      <trkpt lat="46.00074" lon="4.70596">
        <ele>198</ele>
        <time>2022-09-15T18:33:37Z</time>
      </trkpt>
      <trkpt lat="46.00082" lon="4.70591">
        <ele>198</ele>
        <time>2022-09-15T18:33:38Z</time>
      </trkpt>
      <trkpt lat="46.00114" lon="4.70574">
        <ele>198</ele>
        <time>2022-09-15T18:33:44Z</time>
      </trkpt>
      <trkpt lat="46.00128" lon="4.70563">
        <ele>198</ele>
        <time>2022-09-15T18:33:47Z</time>
      </trkpt>
      <trkpt lat="46.00134" lon="4.70553">
        <ele>198</ele>
        <time>2022-09-15T18:33:49Z</time>
      </trkpt>
      <trkpt lat="46.00141" lon="4.70558">
        <ele>198</ele>
        <time>2022-09-15T18:33:50Z</time>
      </trkpt>
      <trkpt lat="46.00151" lon="4.70559">
        <ele>198</ele>
        <time>2022-09-15T18:33:52Z</time>
      </trkpt>
      <trkpt lat="46.0016" lon="4.7055">
        <ele>198</ele>
        <time>2022-09-15T18:33:54Z</time>
      </trkpt>
      <trkpt lat="46.00163" lon="4.70542">
        <ele>198</ele>
        <time>2022-09-15T18:33:55Z</time>
      </trkpt>
      <trkpt lat="46.00164" lon="4.70534">
        <ele>198</ele>
        <time>2022-09-15T18:33:56Z</time>
      </trkpt>
      <trkpt lat="46.00216" lon="4.70529">
        <ele>198</ele>
        <time>2022-09-15T18:34:05Z</time>
      </trkpt>
      <trkpt lat="46.00259" lon="4.70517">
        <ele>198</ele>
        <time>2022-09-15T18:34:13Z</time>
      </trkpt>
      <trkpt lat="46.00318" lon="4.7051">
        <ele>198</ele>
        <time>2022-09-15T18:34:23Z</time>
      </trkpt>
      <trkpt lat="46.00377" lon="4.70494">
        <ele>199</ele>
        <time>2022-09-15T18:34:34Z</time>
      </trkpt>
      <trkpt lat="46.00439" lon="4.70495">
        <ele>201</ele>
        <time>2022-09-15T18:34:45Z</time>
      </trkpt>
      <trkpt lat="46.00457" lon="4.70504">
        <ele>202</ele>
        <time>2022-09-15T18:34:49Z</time>
      </trkpt>
      <trkpt lat="46.00469" lon="4.70515">
        <ele>202</ele>
        <time>2022-09-15T18:34:51Z</time>
      </trkpt>
      <trkpt lat="46.00467" lon="4.70524">
        <ele>201</ele>
        <time>2022-09-15T18:34:52Z</time>
      </trkpt>
      <trkpt lat="46.00468" lon="4.70535">
        <ele>201</ele>
        <time>2022-09-15T18:34:54Z</time>
      </trkpt>
      <trkpt lat="46.00472" lon="4.70543">
        <ele>201</ele>
        <time>2022-09-15T18:34:55Z</time>
      </trkpt>
      <trkpt lat="46.00479" lon="4.70549">
        <ele>201</ele>
        <time>2022-09-15T18:34:56Z</time>
      </trkpt>
      <trkpt lat="46.00487" lon="4.70548">
        <ele>201</ele>
        <time>2022-09-15T18:34:58Z</time>
      </trkpt>
      <trkpt lat="46.00494" lon="4.70542">
        <ele>202</ele>
        <time>2022-09-15T18:34:59Z</time>
      </trkpt>
      <trkpt lat="46.00498" lon="4.70531">
        <ele>202</ele>
        <time>2022-09-15T18:35:01Z</time>
      </trkpt>
      <trkpt lat="46.00498" lon="4.70518">
        <ele>203</ele>
        <time>2022-09-15T18:35:02Z</time>
      </trkpt>
      <trkpt lat="46.00512" lon="4.70511">
        <ele>204</ele>
        <time>2022-09-15T18:35:05Z</time>
      </trkpt>
      <trkpt lat="46.0057" lon="4.7051">
        <ele>206</ele>
        <time>2022-09-15T18:35:15Z</time>
      </trkpt>
      <trkpt lat="46.00633" lon="4.70498">
        <ele>210</ele>
        <time>2022-09-15T18:35:27Z</time>
      </trkpt>
      <trkpt lat="46.00684" lon="4.70497">
        <ele>211</ele>
        <time>2022-09-15T18:35:36Z</time>
      </trkpt>
      <trkpt lat="46.00722" lon="4.70499">
        <ele>209</ele>
        <time>2022-09-15T18:35:42Z</time>
      </trkpt>
      <trkpt lat="46.00748" lon="4.70506">
        <ele>208</ele>
        <time>2022-09-15T18:35:47Z</time>
      </trkpt>
      <trkpt lat="46.01151" lon="4.70688">
        <ele>194</ele>
        <time>2022-09-15T18:37:02Z</time>
      </trkpt>
      <trkpt lat="46.01227" lon="4.70724">
        <ele>193</ele>
        <time>2022-09-15T18:37:17Z</time>
      </trkpt>
      <trkpt lat="46.01281" lon="4.70736">
        <ele>192</ele>
        <time>2022-09-15T18:37:26Z</time>
      </trkpt>
      <trkpt lat="46.01347" lon="4.70745">
        <ele>189</ele>
        <time>2022-09-15T18:37:38Z</time>
      </trkpt>
      <trkpt lat="46.01411" lon="4.70741">
        <ele>189</ele>
        <time>2022-09-15T18:37:49Z</time>
      </trkpt>
      <trkpt lat="46.01857" lon="4.70691">
        <ele>186</ele>
        <time>2022-09-15T18:39:09Z</time>
      </trkpt>
      <trkpt lat="46.01912" lon="4.70694">
        <ele>184</ele>
        <time>2022-09-15T18:39:19Z</time>
      </trkpt>
      <trkpt lat="46.01924" lon="4.70679">
        <ele>183</ele>
        <time>2022-09-15T18:39:22Z</time>
      </trkpt>
      <trkpt lat="46.02153" lon="4.70723">
        <ele>179</ele>
        <time>2022-09-15T18:40:03Z</time>
      </trkpt>
      <trkpt lat="46.02156" lon="4.70738">
        <ele>179</ele>
        <time>2022-09-15T18:40:05Z</time>
      </trkpt>
      <trkpt lat="46.02181" lon="4.70742">
        <ele>179</ele>
        <time>2022-09-15T18:40:09Z</time>
      </trkpt>
      <trkpt lat="46.0239" lon="4.70782">
        <ele>185</ele>
        <time>2022-09-15T18:40:47Z</time>
      </trkpt>
      <trkpt lat="46.02405" lon="4.7078">
        <ele>186</ele>
        <time>2022-09-15T18:40:49Z</time>
      </trkpt>
      <trkpt lat="46.02419" lon="4.70774">
        <ele>188</ele>
        <time>2022-09-15T18:40:52Z</time>
      </trkpt>
      <trkpt lat="46.02422" lon="4.70779">
        <ele>188</ele>
        <time>2022-09-15T18:40:53Z</time>
      </trkpt>
      <trkpt lat="46.0243" lon="4.7078">
        <ele>188</ele>
        <time>2022-09-15T18:40:54Z</time>
      </trkpt>
      <trkpt lat="46.02432" lon="4.70778">
        <ele>188</ele>
        <time>2022-09-15T18:40:55Z</time>
      </trkpt>
      <trkpt lat="46.02435" lon="4.70771">
        <ele>189</ele>
        <time>2022-09-15T18:40:56Z</time>
      </trkpt>
      <trkpt lat="46.02432" lon="4.70762">
        <ele>189</ele>
        <time>2022-09-15T18:40:57Z</time>
      </trkpt>
      <trkpt lat="46.02446" lon="4.70737">
        <ele>190</ele>
        <time>2022-09-15T18:41:01Z</time>
      </trkpt>
      <trkpt lat="46.02454" lon="4.7071">
        <ele>190</ele>
        <time>2022-09-15T18:41:05Z</time>
      </trkpt>
      <trkpt lat="46.02476" lon="4.70616">
        <ele>188</ele>
        <time>2022-09-15T18:41:17Z</time>
      </trkpt>
      <trkpt lat="46.02569" lon="4.70642">
        <ele>190</ele>
        <time>2022-09-15T18:41:34Z</time>
      </trkpt>
      <trkpt lat="46.0263" lon="4.70656">
        <ele>190</ele>
        <time>2022-09-15T18:41:45Z</time>
      </trkpt>
      <trkpt lat="46.0279" lon="4.70672">
        <ele>189</ele>
        <time>2022-09-15T18:42:13Z</time>
      </trkpt>
      <trkpt lat="46.02857" lon="4.70661">
        <ele>190</ele>
        <time>2022-09-15T18:42:25Z</time>
      </trkpt>
      <trkpt lat="46.02903" lon="4.70662">
        <ele>191</ele>
        <time>2022-09-15T18:42:33Z</time>
      </trkpt>
      <trkpt lat="46.02915" lon="4.70659">
        <ele>191</ele>
        <time>2022-09-15T18:42:36Z</time>
      </trkpt>
      <trkpt lat="46.02927" lon="4.70649">
        <ele>191</ele>
        <time>2022-09-15T18:42:38Z</time>
      </trkpt>
      <trkpt lat="46.02929" lon="4.70632">
        <ele>191</ele>
        <time>2022-09-15T18:42:40Z</time>
      </trkpt>
      <trkpt lat="46.0294" lon="4.70588">
        <ele>192</ele>
        <time>2022-09-15T18:42:46Z</time>
      </trkpt>
      <trkpt lat="46.02952" lon="4.70562">
        <ele>191</ele>
        <time>2022-09-15T18:42:50Z</time>
      </trkpt>
      <trkpt lat="46.03061" lon="4.70455">
        <ele>191</ele>
        <time>2022-09-15T18:43:13Z</time>
      </trkpt>
      <trkpt lat="46.03264" lon="4.70359">
        <ele>191</ele>
        <time>2022-09-15T18:43:51Z</time>
      </trkpt>
      <trkpt lat="46.03414" lon="4.70298">
        <ele>189</ele>
        <time>2022-09-15T18:44:19Z</time>
      </trkpt>
      <trkpt lat="46.03913" lon="4.70122">
        <ele>195</ele>
        <time>2022-09-15T18:45:50Z</time>
      </trkpt>
      <trkpt lat="46.03947" lon="4.70108">
        <ele>196</ele>
        <time>2022-09-15T18:45:57Z</time>
      </trkpt>
      <trkpt lat="46.04022" lon="4.70095">
        <ele>195</ele>
        <time>2022-09-15T18:46:10Z</time>
      </trkpt>
      <trkpt lat="46.04078" lon="4.7008">
        <ele>194</ele>
        <time>2022-09-15T18:46:20Z</time>
      </trkpt>
      <trkpt lat="46.04135" lon="4.70055">
        <ele>191</ele>
        <time>2022-09-15T18:46:31Z</time>
      </trkpt>
      <trkpt lat="46.04196" lon="4.7001">
        <ele>188</ele>
        <time>2022-09-15T18:46:43Z</time>
      </trkpt>
      <trkpt lat="46.04288" lon="4.69922">
        <ele>189</ele>
        <time>2022-09-15T18:47:03Z</time>
      </trkpt>
      <trkpt lat="46.04306" lon="4.69901">
        <ele>190</ele>
        <time>2022-09-15T18:47:07Z</time>
      </trkpt>
      <trkpt lat="46.04321" lon="4.69873">
        <ele>191</ele>
        <time>2022-09-15T18:47:11Z</time>
      </trkpt>
      <trkpt lat="46.04339" lon="4.69847">
        <ele>192</ele>
        <time>2022-09-15T18:47:16Z</time>
      </trkpt>
      <trkpt lat="46.04356" lon="4.69835">
        <ele>193</ele>
        <time>2022-09-15T18:47:19Z</time>
      </trkpt>
      <trkpt lat="46.0439" lon="4.69819">
        <ele>194</ele>
        <time>2022-09-15T18:47:25Z</time>
      </trkpt>
      <trkpt lat="46.04504" lon="4.69789">
        <ele>198</ele>
        <time>2022-09-15T18:47:46Z</time>
      </trkpt>
      <trkpt lat="46.04554" lon="4.69794">
        <ele>200</ele>
        <time>2022-09-15T18:47:55Z</time>
      </trkpt>
      <trkpt lat="46.04651" lon="4.69829">
        <ele>202</ele>
        <time>2022-09-15T18:48:13Z</time>
      </trkpt>
      <trkpt lat="46.04681" lon="4.69838">
        <ele>203</ele>
        <time>2022-09-15T18:48:18Z</time>
      </trkpt>
      <trkpt lat="46.04708" lon="4.69842">
        <ele>204</ele>
        <time>2022-09-15T18:48:23Z</time>
      </trkpt>
      <trkpt lat="46.04791" lon="4.69838">
        <ele>206</ele>
        <time>2022-09-15T18:48:38Z</time>
      </trkpt>
      <trkpt lat="46.04793" lon="4.69805">
        <ele>206</ele>
        <time>2022-09-15T18:48:42Z</time>
      </trkpt>
      <trkpt lat="46.04786" lon="4.69781">
        <ele>206</ele>
        <time>2022-09-15T18:48:45Z</time>
      </trkpt>
      <trkpt lat="46.04722" lon="4.69707">
        <ele>205</ele>
        <time>2022-09-15T18:49:00Z</time>
      </trkpt>
      <trkpt lat="46.04703" lon="4.69633">
        <ele>206</ele>
        <time>2022-09-15T18:49:09Z</time>
      </trkpt>
      <trkpt lat="46.04693" lon="4.69535">
        <ele>208</ele>
        <time>2022-09-15T18:49:22Z</time>
      </trkpt>
      <trkpt lat="46.04697" lon="4.69434">
        <ele>210</ele>
        <time>2022-09-15T18:49:34Z</time>
      </trkpt>
      <trkpt lat="46.04695" lon="4.69415">
        <ele>210</ele>
        <time>2022-09-15T18:49:37Z</time>
      </trkpt>
      <trkpt lat="46.04686" lon="4.69375">
        <ele>211</ele>
        <time>2022-09-15T18:49:42Z</time>
      </trkpt>
      <trkpt lat="46.0467" lon="4.69321">
        <ele>211</ele>
        <time>2022-09-15T18:49:49Z</time>
      </trkpt>
      <trkpt lat="46.04663" lon="4.69283">
        <ele>211</ele>
        <time>2022-09-15T18:49:54Z</time>
      </trkpt>
      <trkpt lat="46.04671" lon="4.69123">
        <ele>211</ele>
        <time>2022-09-15T18:50:14Z</time>
      </trkpt>
      <trkpt lat="46.04671" lon="4.69097">
        <ele>211</ele>
        <time>2022-09-15T18:50:17Z</time>
      </trkpt>
      <trkpt lat="46.04669" lon="4.69076">
        <ele>211</ele>
        <time>2022-09-15T18:50:20Z</time>
      </trkpt>
      <trkpt lat="46.04663" lon="4.69055">
        <ele>211</ele>
        <time>2022-09-15T18:50:22Z</time>
      </trkpt>
      <trkpt lat="46.04643" lon="4.6901">
        <ele>210</ele>
        <time>2022-09-15T18:50:29Z</time>
      </trkpt>
      <trkpt lat="46.04584" lon="4.68862">
        <ele>212</ele>
        <time>2022-09-15T18:50:50Z</time>
      </trkpt>
      <trkpt lat="46.04562" lon="4.68796">
        <ele>211</ele>
        <time>2022-09-15T18:50:59Z</time>
      </trkpt>
      <trkpt lat="46.04619" lon="4.68658">
        <ele>213</ele>
        <time>2022-09-15T18:51:19Z</time>
      </trkpt>
      <trkpt lat="46.04665" lon="4.68579">
        <ele>212</ele>
        <time>2022-09-15T18:51:32Z</time>
      </trkpt>
      <trkpt lat="46.04753" lon="4.68439">
        <ele>211</ele>
        <time>2022-09-15T18:51:55Z</time>
      </trkpt>
      <trkpt lat="46.04777" lon="4.68405">
        <ele>211</ele>
        <time>2022-09-15T18:52:01Z</time>
      </trkpt>
      <trkpt lat="46.048" lon="4.68389">
        <ele>212</ele>
        <time>2022-09-15T18:52:05Z</time>
      </trkpt>
      <trkpt lat="46.04904" lon="4.68308">
        <ele>212</ele>
        <time>2022-09-15T18:52:26Z</time>
      </trkpt>
      <trkpt lat="46.04959" lon="4.68262">
        <ele>212</ele>
        <time>2022-09-15T18:52:38Z</time>
      </trkpt>
      <trkpt lat="46.05004" lon="4.6824">
        <ele>213</ele>
        <time>2022-09-15T18:52:46Z</time>
      </trkpt>
      <trkpt lat="46.05016" lon="4.68233">
        <ele>213</ele>
        <time>2022-09-15T18:52:49Z</time>
      </trkpt>
      <trkpt lat="46.05043" lon="4.68209">
        <ele>213</ele>
        <time>2022-09-15T18:52:54Z</time>
      </trkpt>
      <trkpt lat="46.05103" lon="4.68177">
        <ele>213</ele>
        <time>2022-09-15T18:53:06Z</time>
      </trkpt>
      <trkpt lat="46.05099" lon="4.68165">
        <ele>213</ele>
        <time>2022-09-15T18:53:07Z</time>
      </trkpt>
      <trkpt lat="46.05105" lon="4.6816">
        <ele>213</ele>
        <time>2022-09-15T18:53:08Z</time>
      </trkpt>
      <trkpt lat="46.05134" lon="4.68042">
        <ele>213</ele>
        <time>2022-09-15T18:53:24Z</time>
      </trkpt>
      <trkpt lat="46.05219" lon="4.67715">
        <ele>213</ele>
        <time>2022-09-15T18:54:07Z</time>
      </trkpt>
      <trkpt lat="46.05239" lon="4.67662">
        <ele>213</ele>
        <time>2022-09-15T18:54:15Z</time>
      </trkpt>
      <trkpt lat="46.05312" lon="4.67496">
        <ele>214</ele>
        <time>2022-09-15T18:54:39Z</time>
      </trkpt>
      <trkpt lat="46.05315" lon="4.67485">
        <ele>214</ele>
        <time>2022-09-15T18:54:40Z</time>
      </trkpt>
      <trkpt lat="46.05326" lon="4.67497">
        <ele>214</ele>
        <time>2022-09-15T18:54:43Z</time>
      </trkpt>
      <trkpt lat="46.05342" lon="4.6751">
        <ele>214</ele>
        <time>2022-09-15T18:54:46Z</time>
      </trkpt>
      <trkpt lat="46.05424" lon="4.67545">
        <ele>213</ele>
        <time>2022-09-15T18:55:01Z</time>
      </trkpt>
      <trkpt lat="46.0544" lon="4.67546">
        <ele>213</ele>
        <time>2022-09-15T18:55:04Z</time>
      </trkpt>
      <trkpt lat="46.05486" lon="4.67536">
        <ele>213</ele>
        <time>2022-09-15T18:55:12Z</time>
      </trkpt>
      <trkpt lat="46.05503" lon="4.67527">
        <ele>213</ele>
        <time>2022-09-15T18:55:16Z</time>
      </trkpt>
      <trkpt lat="46.0556" lon="4.6749">
        <ele>214</ele>
        <time>2022-09-15T18:55:27Z</time>
      </trkpt>
      <trkpt lat="46.05625" lon="4.67478">
        <ele>214</ele>
        <time>2022-09-15T18:55:38Z</time>
      </trkpt>
      <trkpt lat="46.05673" lon="4.67472">
        <ele>214</ele>
        <time>2022-09-15T18:55:47Z</time>
      </trkpt>
      <trkpt lat="46.05719" lon="4.67481">
        <ele>213</ele>
        <time>2022-09-15T18:55:55Z</time>
      </trkpt>
      <trkpt lat="46.05736" lon="4.67482">
        <ele>212</ele>
        <time>2022-09-15T18:55:58Z</time>
      </trkpt>
      <trkpt lat="46.05759" lon="4.67477">
        <ele>212</ele>
        <time>2022-09-15T18:56:02Z</time>
      </trkpt>
      <trkpt lat="46.0581" lon="4.67475">
        <ele>213</ele>
        <time>2022-09-15T18:56:11Z</time>
      </trkpt>
      <trkpt lat="46.05832" lon="4.67468">
        <ele>213</ele>
        <time>2022-09-15T18:56:15Z</time>
      </trkpt>
      <trkpt lat="46.05879" lon="4.67414">
        <ele>213</ele>
        <time>2022-09-15T18:56:26Z</time>
      </trkpt>
      <trkpt lat="46.05929" lon="4.67362">
        <ele>214</ele>
        <time>2022-09-15T18:56:37Z</time>
      </trkpt>
      <trkpt lat="46.05942" lon="4.67347">
        <ele>215</ele>
        <time>2022-09-15T18:56:40Z</time>
      </trkpt>
      <trkpt lat="46.05948" lon="4.67339">
        <ele>215</ele>
        <time>2022-09-15T18:56:41Z</time>
      </trkpt>
      <trkpt lat="46.0599" lon="4.67311">
        <ele>215</ele>
        <time>2022-09-15T18:56:50Z</time>
      </trkpt>
      <trkpt lat="46.06024" lon="4.67298">
        <ele>217</ele>
        <time>2022-09-15T18:56:56Z</time>
      </trkpt>
      <trkpt lat="46.0605" lon="4.67295">
        <ele>217</ele>
        <time>2022-09-15T18:57:01Z</time>
      </trkpt>
      <trkpt lat="46.06095" lon="4.67271">
        <ele>219</ele>
        <time>2022-09-15T18:57:09Z</time>
      </trkpt>
      <trkpt lat="46.0614" lon="4.67238">
        <ele>221</ele>
        <time>2022-09-15T18:57:18Z</time>
      </trkpt>
      <trkpt lat="46.06172" lon="4.67223">
        <ele>221</ele>
        <time>2022-09-15T18:57:24Z</time>
      </trkpt>
      <trkpt lat="46.06221" lon="4.67222">
        <ele>222</ele>
        <time>2022-09-15T18:57:33Z</time>
      </trkpt>
      <trkpt lat="46.06283" lon="4.67215">
        <ele>222</ele>
        <time>2022-09-15T18:57:44Z</time>
      </trkpt>
      <trkpt lat="46.06307" lon="4.67198">
        <ele>222</ele>
        <time>2022-09-15T18:57:49Z</time>
      </trkpt>
      <trkpt lat="46.06375" lon="4.67112">
        <ele>225</ele>
        <time>2022-09-15T18:58:05Z</time>
      </trkpt>
      <trkpt lat="46.06481" lon="4.6697">
        <ele>230</ele>
        <time>2022-09-15T18:58:31Z</time>
      </trkpt>
      <trkpt lat="46.0653" lon="4.66923">
        <ele>228</ele>
        <time>2022-09-15T18:58:41Z</time>
      </trkpt>
      <trkpt lat="46.06605" lon="4.66878">
        <ele>225</ele>
        <time>2022-09-15T18:58:55Z</time>
      </trkpt>
      <trkpt lat="46.06623" lon="4.66872">
        <ele>225</ele>
        <time>2022-09-15T18:58:59Z</time>
      </trkpt>
      <trkpt lat="46.06628" lon="4.66906">
        <ele>225</ele>
        <time>2022-09-15T18:59:03Z</time>
      </trkpt>
      <trkpt lat="46.06643" lon="4.66966">
        <ele>224</ele>
        <time>2022-09-15T18:59:11Z</time>
      </trkpt>
      <trkpt lat="46.0673" lon="4.6721">
        <ele>227</ele>
        <time>2022-09-15T18:59:45Z</time>
      </trkpt>
      <trkpt lat="46.06753" lon="4.67282">
        <ele>225</ele>
        <time>2022-09-15T18:59:55Z</time>
      </trkpt>
      <trkpt lat="46.06799" lon="4.67472">
        <ele>220</ele>
        <time>2022-09-15T19:00:19Z</time>
      </trkpt>
      <trkpt lat="46.0683" lon="4.67642">
        <ele>220</ele>
        <time>2022-09-15T19:00:41Z</time>
      </trkpt>
      <trkpt lat="46.06852" lon="4.67756">
        <ele>218</ele>
        <time>2022-09-15T19:00:56Z</time>
      </trkpt>
      <trkpt lat="46.06958" lon="4.68041">
        <ele>212</ele>
        <time>2022-09-15T19:01:36Z</time>
      </trkpt>
      <trkpt lat="46.06977" lon="4.68077">
        <ele>211</ele>
        <time>2022-09-15T19:01:41Z</time>
      </trkpt>
      <trkpt lat="46.07139" lon="4.68295">
        <ele>209</ele>
        <time>2022-09-15T19:02:21Z</time>
      </trkpt>
      <trkpt lat="46.07184" lon="4.6834">
        <ele>208</ele>
        <time>2022-09-15T19:02:30Z</time>
      </trkpt>
      <trkpt lat="46.07208" lon="4.68357">
        <ele>208</ele>
        <time>2022-09-15T19:02:35Z</time>
      </trkpt>
      <trkpt lat="46.07238" lon="4.68373">
        <ele>208</ele>
        <time>2022-09-15T19:02:41Z</time>
      </trkpt>
      <trkpt lat="46.07261" lon="4.68394">
        <ele>208</ele>
        <time>2022-09-15T19:02:46Z</time>
      </trkpt>
      <trkpt lat="46.07268" lon="4.68408">
        <ele>208</ele>
        <time>2022-09-15T19:02:48Z</time>
      </trkpt>
      <trkpt lat="46.07271" lon="4.68417">
        <ele>208</ele>
        <time>2022-09-15T19:02:49Z</time>
      </trkpt>
      <trkpt lat="46.07289" lon="4.68404">
        <ele>207</ele>
        <time>2022-09-15T19:02:53Z</time>
      </trkpt>
      <trkpt lat="46.07293" lon="4.68394">
        <ele>207</ele>
        <time>2022-09-15T19:02:54Z</time>
      </trkpt>
      <trkpt lat="46.07306" lon="4.68365">
        <ele>206</ele>
        <time>2022-09-15T19:02:58Z</time>
      </trkpt>
      <trkpt lat="46.07317" lon="4.6835">
        <ele>206</ele>
        <time>2022-09-15T19:03:01Z</time>
      </trkpt>
      <trkpt lat="46.07335" lon="4.68341">
        <ele>206</ele>
        <time>2022-09-15T19:03:04Z</time>
      </trkpt>
      <trkpt lat="46.07354" lon="4.6834">
        <ele>208</ele>
        <time>2022-09-15T19:03:08Z</time>
      </trkpt>
      <trkpt lat="46.07366" lon="4.68348">
        <ele>209</ele>
        <time>2022-09-15T19:03:10Z</time>
      </trkpt>
      <trkpt lat="46.07418" lon="4.6841">
        <ele>209</ele>
        <time>2022-09-15T19:03:22Z</time>
      </trkpt>
      <trkpt lat="46.07441" lon="4.68432">
        <ele>208</ele>
        <time>2022-09-15T19:03:27Z</time>
      </trkpt>
      <trkpt lat="46.07467" lon="4.68446">
        <ele>209</ele>
        <time>2022-09-15T19:03:32Z</time>
      </trkpt>
      <trkpt lat="46.07486" lon="4.68447">
        <ele>210</ele>
        <time>2022-09-15T19:03:35Z</time>
      </trkpt>
      <trkpt lat="46.07548" lon="4.68409">
        <ele>211</ele>
        <time>2022-09-15T19:03:47Z</time>
      </trkpt>
      <trkpt lat="46.07557" lon="4.68407">
        <ele>211</ele>
        <time>2022-09-15T19:03:49Z</time>
      </trkpt>
      <trkpt lat="46.07645" lon="4.68406">
        <ele>210</ele>
        <time>2022-09-15T19:04:05Z</time>
      </trkpt>
      <trkpt lat="46.07703" lon="4.68414">
        <ele>211</ele>
        <time>2022-09-15T19:04:15Z</time>
      </trkpt>
      <trkpt lat="46.07815" lon="4.68383">
        <ele>212</ele>
        <time>2022-09-15T19:04:35Z</time>
      </trkpt>
      <trkpt lat="46.07844" lon="4.68388">
        <ele>212</ele>
        <time>2022-09-15T19:04:40Z</time>
      </trkpt>
      <trkpt lat="46.08027" lon="4.68379">
        <ele>208</ele>
        <time>2022-09-15T19:05:13Z</time>
      </trkpt>
      <trkpt lat="46.08088" lon="4.68363">
        <ele>206</ele>
        <time>2022-09-15T19:05:24Z</time>
      </trkpt>
      <trkpt lat="46.08144" lon="4.68368">
        <ele>203</ele>
        <time>2022-09-15T19:05:34Z</time>
      </trkpt>
      <trkpt lat="46.08167" lon="4.68367">
        <ele>203</ele>
        <time>2022-09-15T19:05:38Z</time>
      </trkpt>
      <trkpt lat="46.08187" lon="4.68359">
        <ele>203</ele>
        <time>2022-09-15T19:05:42Z</time>
      </trkpt>
      <trkpt lat="46.08244" lon="4.6832">
        <ele>202</ele>
        <time>2022-09-15T19:05:53Z</time>
      </trkpt>
      <trkpt lat="46.08272" lon="4.68298">
        <ele>202</ele>
        <time>2022-09-15T19:05:59Z</time>
      </trkpt>
      <trkpt lat="46.08274" lon="4.68292">
        <ele>202</ele>
        <time>2022-09-15T19:06:00Z</time>
      </trkpt>
      <trkpt lat="46.08285" lon="4.68231">
        <ele>204</ele>
        <time>2022-09-15T19:06:07Z</time>
      </trkpt>
      <trkpt lat="46.08292" lon="4.68212">
        <ele>204</ele>
        <time>2022-09-15T19:06:10Z</time>
      </trkpt>
      <trkpt lat="46.08304" lon="4.68195">
        <ele>204</ele>
        <time>2022-09-15T19:06:13Z</time>
      </trkpt>
      <trkpt lat="46.08313" lon="4.68188">
        <ele>204</ele>
        <time>2022-09-15T19:06:15Z</time>
      </trkpt>
      <trkpt lat="46.08384" lon="4.6815">
        <ele>202</ele>
        <time>2022-09-15T19:06:28Z</time>
      </trkpt>
      <trkpt lat="46.08452" lon="4.68095">
        <ele>204</ele>
        <time>2022-09-15T19:06:42Z</time>
      </trkpt>
      <trkpt lat="46.0848" lon="4.68058">
        <ele>206</ele>
        <time>2022-09-15T19:06:49Z</time>
      </trkpt>
      <trkpt lat="46.08529" lon="4.68027">
        <ele>205</ele>
        <time>2022-09-15T19:06:58Z</time>
      </trkpt>
      <trkpt lat="46.08666" lon="4.68009">
        <ele>204</ele>
        <time>2022-09-15T19:07:23Z</time>
      </trkpt>
      <trkpt lat="46.08698" lon="4.67998">
        <ele>204</ele>
        <time>2022-09-15T19:07:29Z</time>
      </trkpt>
      <trkpt lat="46.08743" lon="4.67974">
        <ele>204</ele>
        <time>2022-09-15T19:07:37Z</time>
      </trkpt>
      <trkpt lat="46.08763" lon="4.67974">
        <ele>204</ele>
        <time>2022-09-15T19:07:41Z</time>
      </trkpt>
      <trkpt lat="46.08816" lon="4.67986">
        <ele>205</ele>
        <time>2022-09-15T19:07:50Z</time>
      </trkpt>
      <trkpt lat="46.08825" lon="4.67967">
        <ele>205</ele>
        <time>2022-09-15T19:07:53Z</time>
      </trkpt>
      <trkpt lat="46.08861" lon="4.67921">
        <ele>206</ele>
        <time>2022-09-15T19:08:02Z</time>
      </trkpt>
      <trkpt lat="46.08865" lon="4.67909">
        <ele>207</ele>
        <time>2022-09-15T19:08:03Z</time>
      </trkpt>
      <trkpt lat="46.08865" lon="4.67896">
        <ele>208</ele>
        <time>2022-09-15T19:08:05Z</time>
      </trkpt>
      <trkpt lat="46.08862" lon="4.67882">
        <ele>209</ele>
        <time>2022-09-15T19:08:07Z</time>
      </trkpt>
      <trkpt lat="46.08846" lon="4.67859">
        <ele>210</ele>
        <time>2022-09-15T19:08:11Z</time>
      </trkpt>
      <trkpt lat="46.08838" lon="4.67833">
        <ele>211</ele>
        <time>2022-09-15T19:08:14Z</time>
      </trkpt>
      <trkpt lat="46.08877" lon="4.67827">
        <ele>212</ele>
        <time>2022-09-15T19:08:21Z</time>
      </trkpt>
      <trkpt lat="46.08914" lon="4.67842">
        <ele>212</ele>
        <time>2022-09-15T19:08:28Z</time>
      </trkpt>
      <trkpt lat="46.08923" lon="4.67841">
        <ele>212</ele>
        <time>2022-09-15T19:08:30Z</time>
      </trkpt>
      <trkpt lat="46.08966" lon="4.67823">
        <ele>211</ele>
        <time>2022-09-15T19:08:38Z</time>
      </trkpt>
      <trkpt lat="46.09025" lon="4.67842">
        <ele>209</ele>
        <time>2022-09-15T19:08:49Z</time>
      </trkpt>
      <trkpt lat="46.09064" lon="4.67867">
        <ele>209</ele>
        <time>2022-09-15T19:08:56Z</time>
      </trkpt>
      <trkpt lat="46.0908" lon="4.67874">
        <ele>209</ele>
        <time>2022-09-15T19:08:59Z</time>
      </trkpt>
      <trkpt lat="46.09112" lon="4.67878">
        <ele>208</ele>
        <time>2022-09-15T19:09:05Z</time>
      </trkpt>
      <trkpt lat="46.09123" lon="4.6788">
        <ele>208</ele>
        <time>2022-09-15T19:09:07Z</time>
      </trkpt>
      <trkpt lat="46.09173" lon="4.67904">
        <ele>208</ele>
        <time>2022-09-15T19:09:16Z</time>
      </trkpt>
      <trkpt lat="46.0921" lon="4.67924">
        <ele>209</ele>
        <time>2022-09-15T19:09:23Z</time>
      </trkpt>
      <trkpt lat="46.09245" lon="4.67937">
        <ele>210</ele>
        <time>2022-09-15T19:09:30Z</time>
      </trkpt>
      <trkpt lat="46.09325" lon="4.6795">
        <ele>210</ele>
        <time>2022-09-15T19:09:44Z</time>
      </trkpt>
      <trkpt lat="46.09516" lon="4.6796">
        <ele>213</ele>
        <time>2022-09-15T19:10:18Z</time>
      </trkpt>
      <trkpt lat="46.09567" lon="4.67952">
        <ele>213</ele>
        <time>2022-09-15T19:10:27Z</time>
      </trkpt>
      <trkpt lat="46.09597" lon="4.67956">
        <ele>213</ele>
        <time>2022-09-15T19:10:32Z</time>
      </trkpt>
      <trkpt lat="46.09671" lon="4.67973">
        <ele>213</ele>
        <time>2022-09-15T19:10:46Z</time>
      </trkpt>
      <trkpt lat="46.09712" lon="4.67987">
        <ele>213</ele>
        <time>2022-09-15T19:10:53Z</time>
      </trkpt>
      <trkpt lat="46.09753" lon="4.68008">
        <ele>213</ele>
        <time>2022-09-15T19:11:01Z</time>
      </trkpt>
      <trkpt lat="46.09945" lon="4.68062">
        <ele>215</ele>
        <time>2022-09-15T19:11:36Z</time>
      </trkpt>
      <trkpt lat="46.09987" lon="4.6807">
        <ele>216</ele>
        <time>2022-09-15T19:11:43Z</time>
      </trkpt>
      <trkpt lat="46.10089" lon="4.6811">
        <ele>217</ele>
        <time>2022-09-15T19:12:02Z</time>
      </trkpt>
      <trkpt lat="46.10107" lon="4.68121">
        <ele>216</ele>
        <time>2022-09-15T19:12:06Z</time>
      </trkpt>
      <trkpt lat="46.10128" lon="4.6814">
        <ele>216</ele>
        <time>2022-09-15T19:12:10Z</time>
      </trkpt>
      <trkpt lat="46.10158" lon="4.68173">
        <ele>215</ele>
        <time>2022-09-15T19:12:17Z</time>
      </trkpt>
      <trkpt lat="46.10188" lon="4.68219">
        <ele>213</ele>
        <time>2022-09-15T19:12:25Z</time>
      </trkpt>
      <trkpt lat="46.10214" lon="4.68245">
        <ele>212</ele>
        <time>2022-09-15T19:12:30Z</time>
      </trkpt>
      <trkpt lat="46.10234" lon="4.6826">
        <ele>211</ele>
        <time>2022-09-15T19:12:34Z</time>
      </trkpt>
      <trkpt lat="46.10256" lon="4.6827">
        <ele>211</ele>
        <time>2022-09-15T19:12:38Z</time>
      </trkpt>
      <trkpt lat="46.10351" lon="4.68296">
        <ele>211</ele>
        <time>2022-09-15T19:12:56Z</time>
      </trkpt>
      <trkpt lat="46.104" lon="4.68318">
        <ele>212</ele>
        <time>2022-09-15T19:13:05Z</time>
      </trkpt>
      <trkpt lat="46.10484" lon="4.68339">
        <ele>213</ele>
        <time>2022-09-15T19:13:20Z</time>
      </trkpt>
      <trkpt lat="46.10516" lon="4.68356">
        <ele>212</ele>
        <time>2022-09-15T19:13:26Z</time>
      </trkpt>
      <trkpt lat="46.1053" lon="4.68349">
        <ele>213</ele>
        <time>2022-09-15T19:13:29Z</time>
      </trkpt>
      <trkpt lat="46.10561" lon="4.683">
        <ele>214</ele>
        <time>2022-09-15T19:13:37Z</time>
      </trkpt>
      <trkpt lat="46.1062" lon="4.68223">
        <ele>215</ele>
        <time>2022-09-15T19:13:51Z</time>
      </trkpt>
      <trkpt lat="46.1063" lon="4.68213">
        <ele>215</ele>
        <time>2022-09-15T19:13:53Z</time>
      </trkpt>
      <trkpt lat="46.10639" lon="4.68197">
        <ele>215</ele>
        <time>2022-09-15T19:13:56Z</time>
      </trkpt>
      <trkpt lat="46.10681" lon="4.68026">
        <ele>221</ele>
        <time>2022-09-15T19:14:18Z</time>
      </trkpt>
      <trkpt lat="46.10689" lon="4.68005">
        <ele>221</ele>
        <time>2022-09-15T19:14:21Z</time>
      </trkpt>
      <trkpt lat="46.10699" lon="4.67991">
        <ele>221</ele>
        <time>2022-09-15T19:14:23Z</time>
      </trkpt>
      <trkpt lat="46.10715" lon="4.67984">
        <ele>221</ele>
        <time>2022-09-15T19:14:26Z</time>
      </trkpt>
      <trkpt lat="46.1074" lon="4.67977">
        <ele>220</ele>
        <time>2022-09-15T19:14:31Z</time>
      </trkpt>
      <trkpt lat="46.10753" lon="4.67966">
        <ele>220</ele>
        <time>2022-09-15T19:14:34Z</time>
      </trkpt>
      <trkpt lat="46.10769" lon="4.67935">
        <ele>219</ele>
        <time>2022-09-15T19:14:38Z</time>
      </trkpt>
      <trkpt lat="46.10807" lon="4.67871">
        <ele>220</ele>
        <time>2022-09-15T19:14:49Z</time>
      </trkpt>
      <trkpt lat="46.10878" lon="4.67741">
        <ele>220</ele>
        <time>2022-09-15T19:15:09Z</time>
      </trkpt>
      <trkpt lat="46.11003" lon="4.67466">
        <ele>228</ele>
        <time>2022-09-15T19:15:50Z</time>
      </trkpt>
      <trkpt lat="46.11043" lon="4.67368">
        <ele>231</ele>
        <time>2022-09-15T19:16:04Z</time>
      </trkpt>
      <trkpt lat="46.11063" lon="4.67324">
        <ele>233</ele>
        <time>2022-09-15T19:16:10Z</time>
      </trkpt>
      <trkpt lat="46.1108" lon="4.67299">
        <ele>234</ele>
        <time>2022-09-15T19:16:15Z</time>
      </trkpt>
      <trkpt lat="46.11098" lon="4.67243">
        <ele>237</ele>
        <time>2022-09-15T19:16:22Z</time>
      </trkpt>
      <trkpt lat="46.11118" lon="4.67252">
        <ele>237</ele>
        <time>2022-09-15T19:16:26Z</time>
      </trkpt>
      <trkpt lat="46.11151" lon="4.67256">
        <ele>238</ele>
        <time>2022-09-15T19:16:32Z</time>
      </trkpt>
      <trkpt lat="46.11197" lon="4.67254">
        <ele>240</ele>
        <time>2022-09-15T19:16:40Z</time>
      </trkpt>
      <trkpt lat="46.11224" lon="4.67263">
        <ele>241</ele>
        <time>2022-09-15T19:16:45Z</time>
      </trkpt>
      <trkpt lat="46.11245" lon="4.67275">
        <ele>241</ele>
        <time>2022-09-15T19:16:49Z</time>
      </trkpt>
      <trkpt lat="46.11262" lon="4.67274">
        <ele>242</ele>
        <time>2022-09-15T19:16:52Z</time>
      </trkpt>
      <trkpt lat="46.11275" lon="4.67269">
        <ele>242</ele>
        <time>2022-09-15T19:16:54Z</time>
      </trkpt>
      <trkpt lat="46.11291" lon="4.6727">
        <ele>242</ele>
        <time>2022-09-15T19:16:57Z</time>
      </trkpt>
      <trkpt lat="46.11301" lon="4.6728">
        <ele>242</ele>
        <time>2022-09-15T19:16:59Z</time>
      </trkpt>
      <trkpt lat="46.11313" lon="4.67312">
        <ele>242</ele>
        <time>2022-09-15T19:17:04Z</time>
      </trkpt>
      <trkpt lat="46.11353" lon="4.67364">
        <ele>242</ele>
        <time>2022-09-15T19:17:13Z</time>
      </trkpt>
      <trkpt lat="46.11359" lon="4.67376">
        <ele>242</ele>
        <time>2022-09-15T19:17:15Z</time>
      </trkpt>
      <trkpt lat="46.11383" lon="4.67388">
        <ele>242</ele>
        <time>2022-09-15T19:17:20Z</time>
      </trkpt>
      <trkpt lat="46.11427" lon="4.67399">
        <ele>244</ele>
        <time>2022-09-15T19:17:28Z</time>
      </trkpt>
      <trkpt lat="46.11497" lon="4.67406">
        <ele>250</ele>
        <time>2022-09-15T19:17:40Z</time>
      </trkpt>
      <trkpt lat="46.11541" lon="4.67405">
        <ele>251</ele>
        <time>2022-09-15T19:17:48Z</time>
      </trkpt>
      <trkpt lat="46.11586" lon="4.67401">
        <ele>252</ele>
        <time>2022-09-15T19:17:56Z</time>
      </trkpt>
      <trkpt lat="46.11647" lon="4.67381">
        <ele>251</ele>
        <time>2022-09-15T19:18:07Z</time>
      </trkpt>
      <trkpt lat="46.1168" lon="4.67383">
        <ele>249</ele>
        <time>2022-09-15T19:18:13Z</time>
      </trkpt>
      <trkpt lat="46.11701" lon="4.67373">
        <ele>247</ele>
        <time>2022-09-15T19:18:17Z</time>
      </trkpt>
      <trkpt lat="46.11736" lon="4.67362">
        <ele>244</ele>
        <time>2022-09-15T19:18:23Z</time>
      </trkpt>
      <trkpt lat="46.11771" lon="4.6734">
        <ele>241</ele>
        <time>2022-09-15T19:18:30Z</time>
      </trkpt>
      <trkpt lat="46.11811" lon="4.67293">
        <ele>237</ele>
        <time>2022-09-15T19:18:39Z</time>
      </trkpt>
      <trkpt lat="46.11826" lon="4.67266">
        <ele>236</ele>
        <time>2022-09-15T19:18:44Z</time>
      </trkpt>
      <trkpt lat="46.11848" lon="4.67221">
        <ele>235</ele>
        <time>2022-09-15T19:18:50Z</time>
      </trkpt>
      <trkpt lat="46.11872" lon="4.67188">
        <ele>235</ele>
        <time>2022-09-15T19:18:56Z</time>
      </trkpt>
      <trkpt lat="46.11905" lon="4.67161">
        <ele>233</ele>
        <time>2022-09-15T19:19:03Z</time>
      </trkpt>
      <trkpt lat="46.11952" lon="4.67146">
        <ele>230</ele>
        <time>2022-09-15T19:19:12Z</time>
      </trkpt>
      <trkpt lat="46.11959" lon="4.67145">
        <ele>230</ele>
        <time>2022-09-15T19:19:13Z</time>
      </trkpt>
      <trkpt lat="46.11968" lon="4.67141">
        <ele>230</ele>
        <time>2022-09-15T19:19:15Z</time>
      </trkpt>
      <trkpt lat="46.11978" lon="4.67125">
        <ele>229</ele>
        <time>2022-09-15T19:19:17Z</time>
      </trkpt>
      <trkpt lat="46.11985" lon="4.67049">
        <ele>228</ele>
        <time>2022-09-15T19:19:27Z</time>
      </trkpt>
      <trkpt lat="46.11995" lon="4.67014">
        <ele>227</ele>
        <time>2022-09-15T19:19:31Z</time>
      </trkpt>
      <trkpt lat="46.1201" lon="4.66979">
        <ele>226</ele>
        <time>2022-09-15T19:19:36Z</time>
      </trkpt>
      <trkpt lat="46.12021" lon="4.66958">
        <ele>225</ele>
        <time>2022-09-15T19:19:40Z</time>
      </trkpt>
      <trkpt lat="46.12041" lon="4.66931">
        <ele>224</ele>
        <time>2022-09-15T19:19:45Z</time>
      </trkpt>
      <trkpt lat="46.12083" lon="4.66894">
        <ele>221</ele>
        <time>2022-09-15T19:19:53Z</time>
      </trkpt>
      <trkpt lat="46.12092" lon="4.66886">
        <ele>221</ele>
        <time>2022-09-15T19:19:55Z</time>
      </trkpt>
      <trkpt lat="46.12107" lon="4.66881">
        <ele>220</ele>
        <time>2022-09-15T19:19:58Z</time>
      </trkpt>
      <trkpt lat="46.12404" lon="4.66793">
        <ele>218</ele>
        <time>2022-09-15T19:20:52Z</time>
      </trkpt>
      <trkpt lat="46.12419" lon="4.66787">
        <ele>218</ele>
        <time>2022-09-15T19:20:55Z</time>
      </trkpt>
      <trkpt lat="46.12438" lon="4.6678">
        <ele>218</ele>
        <time>2022-09-15T19:20:58Z</time>
      </trkpt>
      <trkpt lat="46.12553" lon="4.66751">
        <ele>220</ele>
        <time>2022-09-15T19:21:19Z</time>
      </trkpt>
      <trkpt lat="46.1257" lon="4.66674">
        <ele>221</ele>
        <time>2022-09-15T19:21:29Z</time>
      </trkpt>
      <trkpt lat="46.12581" lon="4.66639">
        <ele>221</ele>
        <time>2022-09-15T19:21:34Z</time>
      </trkpt>
      <trkpt lat="46.1261" lon="4.66599">
        <ele>222</ele>
        <time>2022-09-15T19:21:41Z</time>
      </trkpt>
      <trkpt lat="46.12631" lon="4.66563">
        <ele>223</ele>
        <time>2022-09-15T19:21:47Z</time>
      </trkpt>
      <trkpt lat="46.12665" lon="4.6647">
        <ele>222</ele>
        <time>2022-09-15T19:21:59Z</time>
      </trkpt>
      <trkpt lat="46.12671" lon="4.66438">
        <ele>223</ele>
        <time>2022-09-15T19:22:04Z</time>
      </trkpt>
      <trkpt lat="46.12667" lon="4.66399">
        <ele>224</ele>
        <time>2022-09-15T19:22:08Z</time>
      </trkpt>
      <trkpt lat="46.12656" lon="4.66369">
        <ele>224</ele>
        <time>2022-09-15T19:22:13Z</time>
      </trkpt>
      <trkpt lat="46.12626" lon="4.66259">
        <ele>227</ele>
        <time>2022-09-15T19:22:27Z</time>
      </trkpt>
      <trkpt lat="46.1259" lon="4.6613">
        <ele>229</ele>
        <time>2022-09-15T19:22:44Z</time>
      </trkpt>
      <trkpt lat="46.12575" lon="4.66095">
        <ele>231</ele>
        <time>2022-09-15T19:22:49Z</time>
      </trkpt>
      <trkpt lat="46.12564" lon="4.66078">
        <ele>231</ele>
        <time>2022-09-15T19:22:52Z</time>
      </trkpt>
      <trkpt lat="46.12484" lon="4.65918">
        <ele>228</ele>
        <time>2022-09-15T19:23:17Z</time>
      </trkpt>
      <trkpt lat="46.12342" lon="4.65628">
        <ele>226</ele>
        <time>2022-09-15T19:24:00Z</time>
      </trkpt>
      <trkpt lat="46.12324" lon="4.65613">
        <ele>225</ele>
        <time>2022-09-15T19:24:04Z</time>
      </trkpt>
      <trkpt lat="46.12307" lon="4.65591">
        <ele>225</ele>
        <time>2022-09-15T19:24:08Z</time>
      </trkpt>
      <trkpt lat="46.12244" lon="4.65419">
        <ele>226</ele>
        <time>2022-09-15T19:24:32Z</time>
      </trkpt>
      <trkpt lat="46.12238" lon="4.65382">
        <ele>228</ele>
        <time>2022-09-15T19:24:37Z</time>
      </trkpt>
      <trkpt lat="46.12237" lon="4.65329">
        <ele>230</ele>
        <time>2022-09-15T19:24:43Z</time>
      </trkpt>
      <trkpt lat="46.12229" lon="4.65269">
        <ele>232</ele>
        <time>2022-09-15T19:24:51Z</time>
      </trkpt>
      <trkpt lat="46.12221" lon="4.65258">
        <ele>232</ele>
        <time>2022-09-15T19:24:53Z</time>
      </trkpt>
      <trkpt lat="46.12206" lon="4.65259">
        <ele>232</ele>
        <time>2022-09-15T19:24:56Z</time>
      </trkpt>
      <trkpt lat="46.12192" lon="4.65257">
        <ele>231</ele>
        <time>2022-09-15T19:24:58Z</time>
      </trkpt>
      <trkpt lat="46.12179" lon="4.65241">
        <ele>231</ele>
        <time>2022-09-15T19:25:01Z</time>
      </trkpt>
      <trkpt lat="46.12168" lon="4.65217">
        <ele>231</ele>
        <time>2022-09-15T19:25:05Z</time>
      </trkpt>
      <trkpt lat="46.12181" lon="4.65196">
        <ele>231</ele>
        <time>2022-09-15T19:25:08Z</time>
      </trkpt>
      <trkpt lat="46.12222" lon="4.65144">
        <ele>231</ele>
        <time>2022-09-15T19:25:18Z</time>
      </trkpt>
      <trkpt lat="46.12268" lon="4.65112">
        <ele>231</ele>
        <time>2022-09-15T19:25:27Z</time>
      </trkpt>
      <trkpt lat="46.12363" lon="4.65101">
        <ele>234</ele>
        <time>2022-09-15T19:25:44Z</time>
      </trkpt>
      <trkpt lat="46.12412" lon="4.65029">
        <ele>234</ele>
        <time>2022-09-15T19:25:56Z</time>
      </trkpt>
      <trkpt lat="46.12523" lon="4.64833">
        <ele>240</ele>
        <time>2022-09-15T19:26:28Z</time>
      </trkpt>
      <trkpt lat="46.12553" lon="4.64746">
        <ele>243</ele>
        <time>2022-09-15T19:26:40Z</time>
      </trkpt>
      <trkpt lat="46.12601" lon="4.64652">
        <ele>249</ele>
        <time>2022-09-15T19:26:54Z</time>
      </trkpt>
      <trkpt lat="46.12615" lon="4.64598">
        <ele>252</ele>
        <time>2022-09-15T19:27:01Z</time>
      </trkpt>
      <trkpt lat="46.12622" lon="4.64576">
        <ele>253</ele>
        <time>2022-09-15T19:27:04Z</time>
      </trkpt>
      <trkpt lat="46.12641" lon="4.64533">
        <ele>255</ele>
        <time>2022-09-15T19:27:10Z</time>
      </trkpt>
      <trkpt lat="46.12643" lon="4.64519">
        <ele>255</ele>
        <time>2022-09-15T19:27:12Z</time>
      </trkpt>
      <trkpt lat="46.12642" lon="4.64444">
        <ele>254</ele>
        <time>2022-09-15T19:27:21Z</time>
      </trkpt>
      <trkpt lat="46.12637" lon="4.64411">
        <ele>253</ele>
        <time>2022-09-15T19:27:25Z</time>
      </trkpt>
      <trkpt lat="46.12634" lon="4.64305">
        <ele>250</ele>
        <time>2022-09-15T19:27:39Z</time>
      </trkpt>
      <trkpt lat="46.12647" lon="4.64197">
        <ele>247</ele>
        <time>2022-09-15T19:27:52Z</time>
      </trkpt>
      <trkpt lat="46.12646" lon="4.64176">
        <ele>246</ele>
        <time>2022-09-15T19:27:55Z</time>
      </trkpt>
      <trkpt lat="46.12636" lon="4.64128">
        <ele>244</ele>
        <time>2022-09-15T19:28:01Z</time>
      </trkpt>
      <trkpt lat="46.12636" lon="4.6411">
        <ele>244</ele>
        <time>2022-09-15T19:28:03Z</time>
      </trkpt>
      <trkpt lat="46.1267" lon="4.63998">
        <ele>245</ele>
        <time>2022-09-15T19:28:18Z</time>
      </trkpt>
      <trkpt lat="46.12674" lon="4.63988">
        <ele>245</ele>
        <time>2022-09-15T19:28:20Z</time>
      </trkpt>
      <trkpt lat="46.12691" lon="4.63975">
        <ele>246</ele>
        <time>2022-09-15T19:28:23Z</time>
      </trkpt>
      <trkpt lat="46.12711" lon="4.63949">
        <ele>247</ele>
        <time>2022-09-15T19:28:28Z</time>
      </trkpt>
      <trkpt lat="46.12732" lon="4.63846">
        <ele>246</ele>
        <time>2022-09-15T19:28:41Z</time>
      </trkpt>
      <trkpt lat="46.1276" lon="4.63751">
        <ele>246</ele>
        <time>2022-09-15T19:28:54Z</time>
      </trkpt>
      <trkpt lat="46.12787" lon="4.63755">
        <ele>249</ele>
        <time>2022-09-15T19:28:59Z</time>
      </trkpt>
      <trkpt lat="46.128" lon="4.63754">
        <ele>250</ele>
        <time>2022-09-15T19:29:01Z</time>
      </trkpt>
      <trkpt lat="46.12815" lon="4.63745">
        <ele>251</ele>
        <time>2022-09-15T19:29:04Z</time>
      </trkpt>
      <trkpt lat="46.12832" lon="4.63731">
        <ele>252</ele>
        <time>2022-09-15T19:29:07Z</time>
      </trkpt>
      <trkpt lat="46.12869" lon="4.63691">
        <ele>254</ele>
        <time>2022-09-15T19:29:16Z</time>
      </trkpt>
      <trkpt lat="46.12869" lon="4.63675">
        <ele>253</ele>
        <time>2022-09-15T19:29:17Z</time>
      </trkpt>
      <trkpt lat="46.12893" lon="4.6362">
        <ele>252</ele>
        <time>2022-09-15T19:29:26Z</time>
      </trkpt>
      <trkpt lat="46.12906" lon="4.63602">
        <ele>252</ele>
        <time>2022-09-15T19:29:29Z</time>
      </trkpt>
      <trkpt lat="46.12961" lon="4.63548">
        <ele>253</ele>
        <time>2022-09-15T19:29:41Z</time>
      </trkpt>
      <trkpt lat="46.12986" lon="4.63517">
        <ele>253</ele>
        <time>2022-09-15T19:29:46Z</time>
      </trkpt>
      <trkpt lat="46.13205" lon="4.62967">
        <ele>258</ele>
        <time>2022-09-15T19:31:05Z</time>
      </trkpt>
      <trkpt lat="46.1335" lon="4.6261">
        <ele>259</ele>
        <time>2022-09-15T19:31:56Z</time>
      </trkpt>
      <trkpt lat="46.13453" lon="4.62384">
        <ele>265</ele>
        <time>2022-09-15T19:32:29Z</time>
      </trkpt>
      <trkpt lat="46.13482" lon="4.62295">
        <ele>266</ele>
        <time>2022-09-15T19:32:41Z</time>
      </trkpt>
      <trkpt lat="46.1353" lon="4.6219">
        <ele>264</ele>
        <time>2022-09-15T19:32:57Z</time>
      </trkpt>
      <trkpt lat="46.1359" lon="4.62102">
        <ele>265</ele>
        <time>2022-09-15T19:33:12Z</time>
      </trkpt>
      <trkpt lat="46.13607" lon="4.62071">
        <ele>266</ele>
        <time>2022-09-15T19:33:17Z</time>
      </trkpt>
      <trkpt lat="46.13633" lon="4.62011">
        <ele>265</ele>
        <time>2022-09-15T19:33:25Z</time>
      </trkpt>
      <trkpt lat="46.13653" lon="4.61933">
        <ele>264</ele>
        <time>2022-09-15T19:33:36Z</time>
      </trkpt>
      <trkpt lat="46.13663" lon="4.61913">
        <ele>264</ele>
        <time>2022-09-15T19:33:39Z</time>
      </trkpt>
      <trkpt lat="46.13739" lon="4.61791">
        <ele>265</ele>
        <time>2022-09-15T19:33:59Z</time>
      </trkpt>
      <trkpt lat="46.13777" lon="4.61747">
        <ele>268</ele>
        <time>2022-09-15T19:34:08Z</time>
      </trkpt>
      <trkpt lat="46.1386" lon="4.61593">
        <ele>270</ele>
        <time>2022-09-15T19:34:32Z</time>
      </trkpt>
      <trkpt lat="46.13893" lon="4.61544">
        <ele>272</ele>
        <time>2022-09-15T19:34:40Z</time>
      </trkpt>
      <trkpt lat="46.13903" lon="4.61521">
        <ele>272</ele>
        <time>2022-09-15T19:34:43Z</time>
      </trkpt>
      <trkpt lat="46.13931" lon="4.61433">
        <ele>271</ele>
        <time>2022-09-15T19:34:55Z</time>
      </trkpt>
      <trkpt lat="46.13922" lon="4.61431">
        <ele>271</ele>
        <time>2022-09-15T19:34:57Z</time>
      </trkpt>
      <trkpt lat="46.1388" lon="4.61398">
        <ele>268</ele>
        <time>2022-09-15T19:35:06Z</time>
      </trkpt>
      <trkpt lat="46.13902" lon="4.61355">
        <ele>268</ele>
        <time>2022-09-15T19:35:12Z</time>
      </trkpt>
      <trkpt lat="46.13964" lon="4.61217">
        <ele>270</ele>
        <time>2022-09-15T19:35:32Z</time>
      </trkpt>
      <trkpt lat="46.14017" lon="4.61088">
        <ele>272</ele>
        <time>2022-09-15T19:35:51Z</time>
      </trkpt>
      <trkpt lat="46.14053" lon="4.61001">
        <ele>274</ele>
        <time>2022-09-15T19:36:03Z</time>
      </trkpt>
      <trkpt lat="46.14059" lon="4.60983">
        <ele>274</ele>
        <time>2022-09-15T19:36:06Z</time>
      </trkpt>
      <trkpt lat="46.14063" lon="4.60951">
        <ele>273</ele>
        <time>2022-09-15T19:36:10Z</time>
      </trkpt>
      <trkpt lat="46.14074" lon="4.60941">
        <ele>273</ele>
        <time>2022-09-15T19:36:12Z</time>
      </trkpt>
      <trkpt lat="46.14079" lon="4.60931">
        <ele>273</ele>
        <time>2022-09-15T19:36:14Z</time>
      </trkpt>
      <trkpt lat="46.14286" lon="4.60417">
        <ele>283</ele>
        <time>2022-09-15T19:37:27Z</time>
      </trkpt>
      <trkpt lat="46.14317" lon="4.60361">
        <ele>283</ele>
        <time>2022-09-15T19:37:36Z</time>
      </trkpt>
      <trkpt lat="46.14369" lon="4.60284">
        <ele>285</ele>
        <time>2022-09-15T19:37:49Z</time>
      </trkpt>
      <trkpt lat="46.14397" lon="4.60245">
        <ele>284</ele>
        <time>2022-09-15T19:37:56Z</time>
      </trkpt>
      <trkpt lat="46.14466" lon="4.60177">
        <ele>284</ele>
        <time>2022-09-15T19:38:11Z</time>
      </trkpt>
      <trkpt lat="46.14519" lon="4.6013">
        <ele>285</ele>
        <time>2022-09-15T19:38:22Z</time>
      </trkpt>
      <trkpt lat="46.14557" lon="4.60107">
        <ele>287</ele>
        <time>2022-09-15T19:38:29Z</time>
      </trkpt>
      <trkpt lat="46.14698" lon="4.60031">
        <ele>288</ele>
        <time>2022-09-15T19:38:56Z</time>
      </trkpt>
      <trkpt lat="46.14726" lon="4.60011">
        <ele>289</ele>
        <time>2022-09-15T19:39:02Z</time>
      </trkpt>
      <trkpt lat="46.14771" lon="4.5997">
        <ele>292</ele>
        <time>2022-09-15T19:39:11Z</time>
      </trkpt>
      <trkpt lat="46.14781" lon="4.59957">
        <ele>293</ele>
        <time>2022-09-15T19:39:13Z</time>
      </trkpt>
      <trkpt lat="46.1481" lon="4.59911">
        <ele>294</ele>
        <time>2022-09-15T19:39:21Z</time>
      </trkpt>
      <trkpt lat="46.14823" lon="4.59886">
        <ele>294</ele>
        <time>2022-09-15T19:39:25Z</time>
      </trkpt>
      <trkpt lat="46.14839" lon="4.59846">
        <ele>294</ele>
        <time>2022-09-15T19:39:31Z</time>
      </trkpt>
      <trkpt lat="46.1486" lon="4.5977">
        <ele>293</ele>
        <time>2022-09-15T19:39:41Z</time>
      </trkpt>
      <trkpt lat="46.14874" lon="4.5973">
        <ele>293</ele>
        <time>2022-09-15T19:39:46Z</time>
      </trkpt>
      <trkpt lat="46.14889" lon="4.59697">
        <ele>293</ele>
        <time>2022-09-15T19:39:51Z</time>
      </trkpt>
      <trkpt lat="46.14896" lon="4.59677">
        <ele>293</ele>
        <time>2022-09-15T19:39:54Z</time>
      </trkpt>
      <trkpt lat="46.14907" lon="4.59649">
        <ele>292</ele>
        <time>2022-09-15T19:39:58Z</time>
      </trkpt>
      <trkpt lat="46.14915" lon="4.59654">
        <ele>292</ele>
        <time>2022-09-15T19:39:59Z</time>
      </trkpt>
      <trkpt lat="46.1492" lon="4.59631">
        <ele>292</ele>
        <time>2022-09-15T19:40:02Z</time>
      </trkpt>
      <trkpt lat="46.14964" lon="4.59534">
        <ele>292</ele>
        <time>2022-09-15T19:40:17Z</time>
      </trkpt>
      <trkpt lat="46.15008" lon="4.59405">
        <ele>292</ele>
        <time>2022-09-15T19:40:34Z</time>
      </trkpt>
      <trkpt lat="46.15018" lon="4.59416">
        <ele>292</ele>
        <time>2022-09-15T19:40:37Z</time>
      </trkpt>
      <trkpt lat="46.15008" lon="4.59405">
        <ele>292</ele>
        <time>2022-09-15T19:40:39Z</time>
      </trkpt>
      <trkpt lat="46.14964" lon="4.59534">
        <ele>292</ele>
        <time>2022-09-15T19:40:57Z</time>
      </trkpt>
      <trkpt lat="46.14986" lon="4.59538">
        <ele>293</ele>
        <time>2022-09-15T19:41:01Z</time>
      </trkpt>
      <trkpt lat="46.15005" lon="4.59531">
        <ele>293</ele>
        <time>2022-09-15T19:41:04Z</time>
      </trkpt>
      <trkpt lat="46.15038" lon="4.59575">
        <ele>296</ele>
        <time>2022-09-15T19:41:12Z</time>
      </trkpt>
      <trkpt lat="46.15061" lon="4.59537">
        <ele>296</ele>
        <time>2022-09-15T19:41:18Z</time>
      </trkpt>
      <trkpt lat="46.15066" lon="4.59545">
        <ele>296</ele>
        <time>2022-09-15T19:41:20Z</time>
      </trkpt>
      <trkpt lat="46.15068" lon="4.59556">
        <ele>297</ele>
        <time>2022-09-15T19:41:21Z</time>
      </trkpt>
      <trkpt lat="46.15064" lon="4.59604">
        <ele>299</ele>
        <time>2022-09-15T19:41:27Z</time>
      </trkpt>
      <trkpt lat="46.1506" lon="4.59622">
        <ele>300</ele>
        <time>2022-09-15T19:41:29Z</time>
      </trkpt>
      <trkpt lat="46.15054" lon="4.59635">
        <ele>300</ele>
        <time>2022-09-15T19:41:31Z</time>
      </trkpt>
      <trkpt lat="46.15045" lon="4.59648">
        <ele>301</ele>
        <time>2022-09-15T19:41:33Z</time>
      </trkpt>
      <trkpt lat="46.15023" lon="4.59664">
        <ele>301</ele>
        <time>2022-09-15T19:41:38Z</time>
      </trkpt>
      <trkpt lat="46.14948" lon="4.59709">
        <ele>300</ele>
        <time>2022-09-15T19:41:52Z</time>
      </trkpt>
      <trkpt lat="46.14924" lon="4.59745">
        <ele>300</ele>
        <time>2022-09-15T19:41:58Z</time>
      </trkpt>
      <trkpt lat="46.14913" lon="4.59773">
        <ele>301</ele>
        <time>2022-09-15T19:42:02Z</time>
      </trkpt>
      <trkpt lat="46.14891" lon="4.59846">
        <ele>305</ele>
        <time>2022-09-15T19:42:12Z</time>
      </trkpt>
      <trkpt lat="46.14886" lon="4.59883">
        <ele>307</ele>
        <time>2022-09-15T19:42:17Z</time>
      </trkpt>
      <trkpt lat="46.14877" lon="4.59964">
        <ele>313</ele>
        <time>2022-09-15T19:42:27Z</time>
      </trkpt>
      <trkpt lat="46.14865" lon="4.60007">
        <ele>313</ele>
        <time>2022-09-15T19:42:33Z</time>
      </trkpt>
      <trkpt lat="46.14841" lon="4.60082">
        <ele>315</ele>
        <time>2022-09-15T19:42:43Z</time>
      </trkpt>
      <trkpt lat="46.14844" lon="4.60109">
        <ele>317</ele>
        <time>2022-09-15T19:42:46Z</time>
      </trkpt>
      <trkpt lat="46.14878" lon="4.60212">
        <ele>330</ele>
        <time>2022-09-15T19:43:00Z</time>
      </trkpt>
      <trkpt lat="46.1488" lon="4.60231">
        <ele>332</ele>
        <time>2022-09-15T19:43:03Z</time>
      </trkpt>
      <trkpt lat="46.14878" lon="4.60246">
        <ele>332</ele>
        <time>2022-09-15T19:43:05Z</time>
      </trkpt>
      <trkpt lat="46.14871" lon="4.60262">
        <ele>333</ele>
        <time>2022-09-15T19:43:07Z</time>
      </trkpt>
      <trkpt lat="46.14863" lon="4.60267">
        <ele>333</ele>
        <time>2022-09-15T19:43:08Z</time>
      </trkpt>
      <trkpt lat="46.14806" lon="4.60274">
        <ele>332</ele>
        <time>2022-09-15T19:43:19Z</time>
      </trkpt>
      <trkpt lat="46.14662" lon="4.60333">
        <ele>336</ele>
        <time>2022-09-15T19:43:45Z</time>
      </trkpt>
      <trkpt lat="46.14652" lon="4.60346">
        <ele>338</ele>
        <time>2022-09-15T19:43:48Z</time>
      </trkpt>
      <trkpt lat="46.14646" lon="4.60367">
        <ele>341</ele>
        <time>2022-09-15T19:43:50Z</time>
      </trkpt>
      <trkpt lat="46.14656" lon="4.60381">
        <ele>344</ele>
        <time>2022-09-15T19:43:53Z</time>
      </trkpt>
      <trkpt lat="46.14669" lon="4.60387">
        <ele>347</ele>
        <time>2022-09-15T19:43:55Z</time>
      </trkpt>
      <trkpt lat="46.14734" lon="4.60374">
        <ele>347</ele>
        <time>2022-09-15T19:44:07Z</time>
      </trkpt>
      <trkpt lat="46.14763" lon="4.60373">
        <ele>347</ele>
        <time>2022-09-15T19:44:12Z</time>
      </trkpt>
      <trkpt lat="46.14787" lon="4.60381">
        <ele>348</ele>
        <time>2022-09-15T19:44:17Z</time>
      </trkpt>
      <trkpt lat="46.14858" lon="4.60414">
        <ele>352</ele>
        <time>2022-09-15T19:44:30Z</time>
      </trkpt>
      <trkpt lat="46.14885" lon="4.60432">
        <ele>354</ele>
        <time>2022-09-15T19:44:35Z</time>
      </trkpt>
      <trkpt lat="46.1497" lon="4.60513">
        <ele>363</ele>
        <time>2022-09-15T19:44:53Z</time>
      </trkpt>
      <trkpt lat="46.14988" lon="4.60526">
        <ele>364</ele>
        <time>2022-09-15T19:44:57Z</time>
      </trkpt>
      <trkpt lat="46.15003" lon="4.60532">
        <ele>365</ele>
        <time>2022-09-15T19:45:00Z</time>
      </trkpt>
      <trkpt lat="46.15037" lon="4.60529">
        <ele>366</ele>
        <time>2022-09-15T19:45:06Z</time>
      </trkpt>
      <trkpt lat="46.151" lon="4.60513">
        <ele>369</ele>
        <time>2022-09-15T19:45:17Z</time>
      </trkpt>
      <trkpt lat="46.15113" lon="4.60502">
        <ele>370</ele>
        <time>2022-09-15T19:45:20Z</time>
      </trkpt>
      <trkpt lat="46.15151" lon="4.60435">
        <ele>372</ele>
        <time>2022-09-15T19:45:30Z</time>
      </trkpt>
      <trkpt lat="46.15157" lon="4.60427">
        <ele>372</ele>
        <time>2022-09-15T19:45:32Z</time>
      </trkpt>
      <trkpt lat="46.15174" lon="4.60416">
        <ele>374</ele>
        <time>2022-09-15T19:45:35Z</time>
      </trkpt>
      <trkpt lat="46.15214" lon="4.60407">
        <ele>377</ele>
        <time>2022-09-15T19:45:42Z</time>
      </trkpt>
      <trkpt lat="46.1528" lon="4.60398">
        <ele>380</ele>
        <time>2022-09-15T19:45:54Z</time>
      </trkpt>
      <trkpt lat="46.15294" lon="4.60401">
        <ele>381</ele>
        <time>2022-09-15T19:45:57Z</time>
      </trkpt>
      <trkpt lat="46.15305" lon="4.60408">
        <ele>382</ele>
        <time>2022-09-15T19:45:59Z</time>
      </trkpt>
      <trkpt lat="46.15363" lon="4.60483">
        <ele>386</ele>
        <time>2022-09-15T19:46:13Z</time>
      </trkpt>
      <trkpt lat="46.15496" lon="4.60641">
        <ele>395</ele>
        <time>2022-09-15T19:46:43Z</time>
      </trkpt>
      <trkpt lat="46.15524" lon="4.60682">
        <ele>396</ele>
        <time>2022-09-15T19:46:50Z</time>
      </trkpt>
      <trkpt lat="46.15596" lon="4.60816">
        <ele>401</ele>
        <time>2022-09-15T19:47:11Z</time>
      </trkpt>
      <trkpt lat="46.1563" lon="4.60902">
        <ele>400</ele>
        <time>2022-09-15T19:47:24Z</time>
      </trkpt>
      <trkpt lat="46.15644" lon="4.60925">
        <ele>400</ele>
        <time>2022-09-15T19:47:27Z</time>
      </trkpt>
      <trkpt lat="46.15671" lon="4.60956">
        <ele>402</ele>
        <time>2022-09-15T19:47:33Z</time>
      </trkpt>
      <trkpt lat="46.15676" lon="4.60969">
        <ele>401</ele>
        <time>2022-09-15T19:47:35Z</time>
      </trkpt>
      <trkpt lat="46.15678" lon="4.60984">
        <ele>401</ele>
        <time>2022-09-15T19:47:37Z</time>
      </trkpt>
      <trkpt lat="46.15676" lon="4.60996">
        <ele>400</ele>
        <time>2022-09-15T19:47:39Z</time>
      </trkpt>
      <trkpt lat="46.15671" lon="4.6101">
        <ele>400</ele>
        <time>2022-09-15T19:47:41Z</time>
      </trkpt>
      <trkpt lat="46.15641" lon="4.61061">
        <ele>401</ele>
        <time>2022-09-15T19:47:49Z</time>
      </trkpt>
      <trkpt lat="46.15612" lon="4.61117">
        <ele>401</ele>
        <time>2022-09-15T19:47:58Z</time>
      </trkpt>
      <trkpt lat="46.15603" lon="4.61155">
        <ele>403</ele>
        <time>2022-09-15T19:48:02Z</time>
      </trkpt>
      <trkpt lat="46.156" lon="4.61175">
        <ele>404</ele>
        <time>2022-09-15T19:48:05Z</time>
      </trkpt>
      <trkpt lat="46.156" lon="4.61187">
        <ele>404</ele>
        <time>2022-09-15T19:48:06Z</time>
      </trkpt>
      <trkpt lat="46.15617" lon="4.61333">
        <ele>405</ele>
        <time>2022-09-15T19:48:25Z</time>
      </trkpt>
      <trkpt lat="46.15617" lon="4.61367">
        <ele>406</ele>
        <time>2022-09-15T19:48:29Z</time>
      </trkpt>
      <trkpt lat="46.15615" lon="4.61396">
        <ele>406</ele>
        <time>2022-09-15T19:48:33Z</time>
      </trkpt>
      <trkpt lat="46.15603" lon="4.61502">
        <ele>409</ele>
        <time>2022-09-15T19:48:46Z</time>
      </trkpt>
      <trkpt lat="46.15603" lon="4.61553">
        <ele>408</ele>
        <time>2022-09-15T19:48:52Z</time>
      </trkpt>
      <trkpt lat="46.15608" lon="4.61597">
        <ele>408</ele>
        <time>2022-09-15T19:48:58Z</time>
      </trkpt>
      <trkpt lat="46.1562" lon="4.61634">
        <ele>407</ele>
        <time>2022-09-15T19:49:03Z</time>
      </trkpt>
      <trkpt lat="46.15639" lon="4.61664">
        <ele>407</ele>
        <time>2022-09-15T19:49:08Z</time>
      </trkpt>
      <trkpt lat="46.15678" lon="4.61701">
        <ele>408</ele>
        <time>2022-09-15T19:49:16Z</time>
      </trkpt>
      <trkpt lat="46.15688" lon="4.61716">
        <ele>409</ele>
        <time>2022-09-15T19:49:18Z</time>
      </trkpt>
      <trkpt lat="46.15693" lon="4.6173">
        <ele>408</ele>
        <time>2022-09-15T19:49:20Z</time>
      </trkpt>
      <trkpt lat="46.15695" lon="4.61752">
        <ele>407</ele>
        <time>2022-09-15T19:49:23Z</time>
      </trkpt>
      <trkpt lat="46.15694" lon="4.61855">
        <ele>406</ele>
        <time>2022-09-15T19:49:36Z</time>
      </trkpt>
      <trkpt lat="46.15702" lon="4.61884">
        <ele>406</ele>
        <time>2022-09-15T19:49:40Z</time>
      </trkpt>
      <trkpt lat="46.15747" lon="4.62023">
        <ele>408</ele>
        <time>2022-09-15T19:49:59Z</time>
      </trkpt>
      <trkpt lat="46.15767" lon="4.62063">
        <ele>409</ele>
        <time>2022-09-15T19:50:05Z</time>
      </trkpt>
      <trkpt lat="46.15786" lon="4.62083">
        <ele>412</ele>
        <time>2022-09-15T19:50:09Z</time>
      </trkpt>
      <trkpt lat="46.15796" lon="4.62101">
        <ele>415</ele>
        <time>2022-09-15T19:50:12Z</time>
      </trkpt>
      <trkpt lat="46.15802" lon="4.62119">
        <ele>415</ele>
        <time>2022-09-15T19:50:14Z</time>
      </trkpt>
      <trkpt lat="46.15804" lon="4.62146">
        <ele>414</ele>
        <time>2022-09-15T19:50:17Z</time>
      </trkpt>
      <trkpt lat="46.15813" lon="4.62177">
        <ele>414</ele>
        <time>2022-09-15T19:50:22Z</time>
      </trkpt>
      <trkpt lat="46.1582" lon="4.6219">
        <ele>415</ele>
        <time>2022-09-15T19:50:24Z</time>
      </trkpt>
      <trkpt lat="46.15909" lon="4.62288">
        <ele>423</ele>
        <time>2022-09-15T19:50:44Z</time>
      </trkpt>
      <trkpt lat="46.15928" lon="4.62314">
        <ele>424</ele>
        <time>2022-09-15T19:50:48Z</time>
      </trkpt>
      <trkpt lat="46.1594" lon="4.62342">
        <ele>425</ele>
        <time>2022-09-15T19:50:52Z</time>
      </trkpt>
      <trkpt lat="46.15949" lon="4.62397">
        <ele>426</ele>
        <time>2022-09-15T19:50:59Z</time>
      </trkpt>
      <trkpt lat="46.15951" lon="4.62484">
        <ele>428</ele>
        <time>2022-09-15T19:51:10Z</time>
      </trkpt>
      <trkpt lat="46.15965" lon="4.62568">
        <ele>429</ele>
        <time>2022-09-15T19:51:21Z</time>
      </trkpt>
      <trkpt lat="46.15981" lon="4.62595">
        <ele>430</ele>
        <time>2022-09-15T19:51:25Z</time>
      </trkpt>
      <trkpt lat="46.16002" lon="4.62614">
        <ele>431</ele>
        <time>2022-09-15T19:51:29Z</time>
      </trkpt>
      <trkpt lat="46.16133" lon="4.62659">
        <ele>434</ele>
        <time>2022-09-15T19:51:53Z</time>
      </trkpt>
      <trkpt lat="46.16158" lon="4.6267">
        <ele>434</ele>
        <time>2022-09-15T19:51:58Z</time>
      </trkpt>
      <trkpt lat="46.16291" lon="4.62793">
        <ele>444</ele>
        <time>2022-09-15T19:52:26Z</time>
      </trkpt>
      <trkpt lat="46.1631" lon="4.62815">
        <ele>445</ele>
        <time>2022-09-15T19:52:30Z</time>
      </trkpt>
      <trkpt lat="46.16385" lon="4.62939">
        <ele>449</ele>
        <time>2022-09-15T19:52:51Z</time>
      </trkpt>
      <trkpt lat="46.16456" lon="4.6304">
        <ele>453</ele>
        <time>2022-09-15T19:53:08Z</time>
      </trkpt>
      <trkpt lat="46.16489" lon="4.6307">
        <ele>456</ele>
        <time>2022-09-15T19:53:15Z</time>
      </trkpt>
      <trkpt lat="46.16581" lon="4.63178">
        <ele>460</ele>
        <time>2022-09-15T19:53:37Z</time>
      </trkpt>
      <trkpt lat="46.1659" lon="4.63197">
        <ele>461</ele>
        <time>2022-09-15T19:53:39Z</time>
      </trkpt>
      <trkpt lat="46.16593" lon="4.6321">
        <ele>461</ele>
        <time>2022-09-15T19:53:41Z</time>
      </trkpt>
      <trkpt lat="46.16594" lon="4.6323">
        <ele>459</ele>
        <time>2022-09-15T19:53:44Z</time>
      </trkpt>
      <trkpt lat="46.16586" lon="4.63283">
        <ele>455</ele>
        <time>2022-09-15T19:53:50Z</time>
      </trkpt>
      <trkpt lat="46.16587" lon="4.63296">
        <ele>455</ele>
        <time>2022-09-15T19:53:52Z</time>
      </trkpt>
      <trkpt lat="46.16591" lon="4.63317">
        <ele>456</ele>
        <time>2022-09-15T19:53:55Z</time>
      </trkpt>
      <trkpt lat="46.16616" lon="4.63368">
        <ele>458</ele>
        <time>2022-09-15T19:54:02Z</time>
      </trkpt>
      <trkpt lat="46.16624" lon="4.63381">
        <ele>459</ele>
        <time>2022-09-15T19:54:04Z</time>
      </trkpt>
      <trkpt lat="46.16638" lon="4.63396">
        <ele>459</ele>
        <time>2022-09-15T19:54:07Z</time>
      </trkpt>
      <trkpt lat="46.16665" lon="4.63414">
        <ele>461</ele>
        <time>2022-09-15T19:54:13Z</time>
      </trkpt>
      <trkpt lat="46.16681" lon="4.63428">
        <ele>461</ele>
        <time>2022-09-15T19:54:16Z</time>
      </trkpt>
      <trkpt lat="46.16697" lon="4.63446">
        <ele>461</ele>
        <time>2022-09-15T19:54:20Z</time>
      </trkpt>
      <trkpt lat="46.16725" lon="4.63488">
        <ele>462</ele>
        <time>2022-09-15T19:54:27Z</time>
      </trkpt>
      <trkpt lat="46.16738" lon="4.63499">
        <ele>463</ele>
        <time>2022-09-15T19:54:30Z</time>
      </trkpt>
      <trkpt lat="46.16744" lon="4.63499">
        <ele>464</ele>
        <time>2022-09-15T19:54:31Z</time>
      </trkpt>
      <trkpt lat="46.16754" lon="4.63496">
        <ele>465</ele>
        <time>2022-09-15T19:54:32Z</time>
      </trkpt>
      <trkpt lat="46.16763" lon="4.63488">
        <ele>464</ele>
        <time>2022-09-15T19:54:34Z</time>
      </trkpt>
      <trkpt lat="46.16826" lon="4.63404">
        <ele>460</ele>
        <time>2022-09-15T19:54:50Z</time>
      </trkpt>
      <trkpt lat="46.16834" lon="4.6339">
        <ele>460</ele>
        <time>2022-09-15T19:54:52Z</time>
      </trkpt>
      <trkpt lat="46.16847" lon="4.63358">
        <ele>460</ele>
        <time>2022-09-15T19:54:56Z</time>
      </trkpt>
      <trkpt lat="46.16862" lon="4.63332">
        <ele>460</ele>
        <time>2022-09-15T19:55:01Z</time>
      </trkpt>
      <trkpt lat="46.16913" lon="4.63286">
        <ele>457</ele>
        <time>2022-09-15T19:55:11Z</time>
      </trkpt>
      <trkpt lat="46.16925" lon="4.6327">
        <ele>458</ele>
        <time>2022-09-15T19:55:14Z</time>
      </trkpt>
      <trkpt lat="46.16943" lon="4.6323">
        <ele>461</ele>
        <time>2022-09-15T19:55:20Z</time>
      </trkpt>
      <trkpt lat="46.16981" lon="4.63186">
        <ele>461</ele>
        <time>2022-09-15T19:55:29Z</time>
      </trkpt>
      <trkpt lat="46.17019" lon="4.6315">
        <ele>462</ele>
        <time>2022-09-15T19:55:37Z</time>
      </trkpt>
      <trkpt lat="46.17028" lon="4.63144">
        <ele>463</ele>
        <time>2022-09-15T19:55:39Z</time>
      </trkpt>
      <trkpt lat="46.17035" lon="4.63145">
        <ele>463</ele>
        <time>2022-09-15T19:55:40Z</time>
      </trkpt>
      <trkpt lat="46.17045" lon="4.63153">
        <ele>463</ele>
        <time>2022-09-15T19:55:42Z</time>
      </trkpt>
      <trkpt lat="46.17079" lon="4.63197">
        <ele>462</ele>
        <time>2022-09-15T19:55:50Z</time>
      </trkpt>
      <trkpt lat="46.17093" lon="4.63224">
        <ele>464</ele>
        <time>2022-09-15T19:55:54Z</time>
      </trkpt>
      <trkpt lat="46.17101" lon="4.63265">
        <ele>464</ele>
        <time>2022-09-15T19:55:59Z</time>
      </trkpt>
      <trkpt lat="46.17133" lon="4.63339">
        <ele>466</ele>
        <time>2022-09-15T19:56:10Z</time>
      </trkpt>
      <trkpt lat="46.17145" lon="4.63355">
        <ele>466</ele>
        <time>2022-09-15T19:56:13Z</time>
      </trkpt>
      <trkpt lat="46.17164" lon="4.63371">
        <ele>467</ele>
        <time>2022-09-15T19:56:17Z</time>
      </trkpt>
      <trkpt lat="46.17259" lon="4.6342">
        <ele>469</ele>
        <time>2022-09-15T19:56:35Z</time>
      </trkpt>
      <trkpt lat="46.17329" lon="4.63472">
        <ele>466</ele>
        <time>2022-09-15T19:56:49Z</time>
      </trkpt>
      <trkpt lat="46.17346" lon="4.63478">
        <ele>466</ele>
        <time>2022-09-15T19:56:52Z</time>
      </trkpt>
      <trkpt lat="46.17365" lon="4.63472">
        <ele>467</ele>
        <time>2022-09-15T19:56:55Z</time>
      </trkpt>
      <trkpt lat="46.1738" lon="4.63461">
        <ele>469</ele>
        <time>2022-09-15T19:56:58Z</time>
      </trkpt>
      <trkpt lat="46.17451" lon="4.63391">
        <ele>474</ele>
        <time>2022-09-15T19:57:14Z</time>
      </trkpt>
      <trkpt lat="46.17463" lon="4.63386">
        <ele>474</ele>
        <time>2022-09-15T19:57:16Z</time>
      </trkpt>
      <trkpt lat="46.17473" lon="4.63389">
        <ele>474</ele>
        <time>2022-09-15T19:57:18Z</time>
      </trkpt>
      <trkpt lat="46.1748" lon="4.63397">
        <ele>475</ele>
        <time>2022-09-15T19:57:19Z</time>
      </trkpt>
      <trkpt lat="46.17484" lon="4.63417">
        <ele>475</ele>
        <time>2022-09-15T19:57:22Z</time>
      </trkpt>
      <trkpt lat="46.17482" lon="4.6343">
        <ele>475</ele>
        <time>2022-09-15T19:57:24Z</time>
      </trkpt>
      <trkpt lat="46.17441" lon="4.63545">
        <ele>474</ele>
        <time>2022-09-15T19:57:40Z</time>
      </trkpt>
      <trkpt lat="46.17438" lon="4.63561">
        <ele>474</ele>
        <time>2022-09-15T19:57:42Z</time>
      </trkpt>
      <trkpt lat="46.17442" lon="4.6359">
        <ele>475</ele>
        <time>2022-09-15T19:57:45Z</time>
      </trkpt>
      <trkpt lat="46.17452" lon="4.63604">
        <ele>475</ele>
        <time>2022-09-15T19:57:48Z</time>
      </trkpt>
      <trkpt lat="46.17464" lon="4.63614">
        <ele>476</ele>
        <time>2022-09-15T19:57:50Z</time>
      </trkpt>
      <trkpt lat="46.17538" lon="4.63657">
        <ele>474</ele>
        <time>2022-09-15T19:58:04Z</time>
      </trkpt>
      <trkpt lat="46.17553" lon="4.63663">
        <ele>473</ele>
        <time>2022-09-15T19:58:07Z</time>
      </trkpt>
      <trkpt lat="46.17666" lon="4.63671">
        <ele>467</ele>
        <time>2022-09-15T19:58:27Z</time>
      </trkpt>
      <trkpt lat="46.17683" lon="4.63671">
        <ele>468</ele>
        <time>2022-09-15T19:58:30Z</time>
      </trkpt>
      <trkpt lat="46.17701" lon="4.63661">
        <ele>469</ele>
        <time>2022-09-15T19:58:34Z</time>
      </trkpt>
      <trkpt lat="46.17708" lon="4.63654">
        <ele>469</ele>
        <time>2022-09-15T19:58:35Z</time>
      </trkpt>
      <trkpt lat="46.17736" lon="4.63613">
        <ele>471</ele>
        <time>2022-09-15T19:58:42Z</time>
      </trkpt>
      <trkpt lat="46.17745" lon="4.63609">
        <ele>471</ele>
        <time>2022-09-15T19:58:44Z</time>
      </trkpt>
      <trkpt lat="46.17752" lon="4.63611">
        <ele>471</ele>
        <time>2022-09-15T19:58:45Z</time>
      </trkpt>
      <trkpt lat="46.17758" lon="4.63617">
        <ele>471</ele>
        <time>2022-09-15T19:58:47Z</time>
      </trkpt>
      <trkpt lat="46.17762" lon="4.63628">
        <ele>472</ele>
        <time>2022-09-15T19:58:48Z</time>
      </trkpt>
      <trkpt lat="46.17762" lon="4.63645">
        <ele>472</ele>
        <time>2022-09-15T19:58:50Z</time>
      </trkpt>
      <trkpt lat="46.1775" lon="4.63732">
        <ele>469</ele>
        <time>2022-09-15T19:59:01Z</time>
      </trkpt>
      <trkpt lat="46.17748" lon="4.63772">
        <ele>469</ele>
        <time>2022-09-15T19:59:06Z</time>
      </trkpt>
      <trkpt lat="46.17748" lon="4.63786">
        <ele>469</ele>
        <time>2022-09-15T19:59:08Z</time>
      </trkpt>
      <trkpt lat="46.17755" lon="4.63831">
        <ele>470</ele>
        <time>2022-09-15T19:59:13Z</time>
      </trkpt>
      <trkpt lat="46.17762" lon="4.63858">
        <ele>470</ele>
        <time>2022-09-15T19:59:17Z</time>
      </trkpt>
      <trkpt lat="46.17771" lon="4.63876">
        <ele>470</ele>
        <time>2022-09-15T19:59:20Z</time>
      </trkpt>
      <trkpt lat="46.17788" lon="4.63891">
        <ele>471</ele>
        <time>2022-09-15T19:59:23Z</time>
      </trkpt>
      <trkpt lat="46.17804" lon="4.63898">
        <ele>471</ele>
        <time>2022-09-15T19:59:26Z</time>
      </trkpt>
      <trkpt lat="46.17819" lon="4.63901">
        <ele>472</ele>
        <time>2022-09-15T19:59:29Z</time>
      </trkpt>
      <trkpt lat="46.17855" lon="4.639">
        <ele>475</ele>
        <time>2022-09-15T19:59:35Z</time>
      </trkpt>
      <trkpt lat="46.17874" lon="4.63902">
        <ele>476</ele>
        <time>2022-09-15T19:59:39Z</time>
      </trkpt>
      <trkpt lat="46.17905" lon="4.63912">
        <ele>478</ele>
        <time>2022-09-15T19:59:44Z</time>
      </trkpt>
      <trkpt lat="46.17916" lon="4.63921">
        <ele>478</ele>
        <time>2022-09-15T19:59:47Z</time>
      </trkpt>
      <trkpt lat="46.17928" lon="4.63941">
        <ele>478</ele>
        <time>2022-09-15T19:59:50Z</time>
      </trkpt>
      <trkpt lat="46.17931" lon="4.63951">
        <ele>478</ele>
        <time>2022-09-15T19:59:51Z</time>
      </trkpt>
      <trkpt lat="46.17933" lon="4.63966">
        <ele>477</ele>
        <time>2022-09-15T19:59:53Z</time>
      </trkpt>
      <trkpt lat="46.17934" lon="4.64018">
        <ele>476</ele>
        <time>2022-09-15T20:00:00Z</time>
      </trkpt>
      <trkpt lat="46.17951" lon="4.64162">
        <ele>479</ele>
        <time>2022-09-15T20:00:18Z</time>
      </trkpt>
      <trkpt lat="46.17957" lon="4.64178">
        <ele>478</ele>
        <time>2022-09-15T20:00:20Z</time>
      </trkpt>
      <trkpt lat="46.18009" lon="4.64177">
        <ele>480</ele>
        <time>2022-09-15T20:00:29Z</time>
      </trkpt>
      <trkpt lat="46.18047" lon="4.64171">
        <ele>482</ele>
        <time>2022-09-15T20:00:36Z</time>
      </trkpt>
      <trkpt lat="46.18089" lon="4.6416">
        <ele>484</ele>
        <time>2022-09-15T20:00:43Z</time>
      </trkpt>
      <trkpt lat="46.18128" lon="4.64155">
        <ele>487</ele>
        <time>2022-09-15T20:00:50Z</time>
      </trkpt>
      <trkpt lat="46.18146" lon="4.64156">
        <ele>488</ele>
        <time>2022-09-15T20:00:54Z</time>
      </trkpt>
      <trkpt lat="46.18219" lon="4.64179">
        <ele>486</ele>
        <time>2022-09-15T20:01:07Z</time>
      </trkpt>
      <trkpt lat="46.18237" lon="4.64179">
        <ele>487</ele>
        <time>2022-09-15T20:01:10Z</time>
      </trkpt>
      <trkpt lat="46.18251" lon="4.64171">
        <ele>489</ele>
        <time>2022-09-15T20:01:13Z</time>
      </trkpt>
      <trkpt lat="46.1826" lon="4.6416">
        <ele>489</ele>
        <time>2022-09-15T20:01:15Z</time>
      </trkpt>
      <trkpt lat="46.1827" lon="4.64145">
        <ele>489</ele>
        <time>2022-09-15T20:01:17Z</time>
      </trkpt>
      <trkpt lat="46.18318" lon="4.6404">
        <ele>502</ele>
        <time>2022-09-15T20:01:33Z</time>
      </trkpt>
      <trkpt lat="46.1833" lon="4.64026">
        <ele>504</ele>
        <time>2022-09-15T20:01:36Z</time>
      </trkpt>
      <trkpt lat="46.18343" lon="4.64019">
        <ele>505</ele>
        <time>2022-09-15T20:01:38Z</time>
      </trkpt>
      <trkpt lat="46.18423" lon="4.64012">
        <ele>500</ele>
        <time>2022-09-15T20:01:52Z</time>
      </trkpt>
      <trkpt lat="46.1844" lon="4.64005">
        <ele>499</ele>
        <time>2022-09-15T20:01:56Z</time>
      </trkpt>
      <trkpt lat="46.18453" lon="4.63992">
        <ele>499</ele>
        <time>2022-09-15T20:01:58Z</time>
      </trkpt>
      <trkpt lat="46.1851" lon="4.63922">
        <ele>506</ele>
        <time>2022-09-15T20:02:12Z</time>
      </trkpt>
      <trkpt lat="46.18517" lon="4.63905">
        <ele>508</ele>
        <time>2022-09-15T20:02:14Z</time>
      </trkpt>
      <trkpt lat="46.18521" lon="4.63891">
        <ele>511</ele>
        <time>2022-09-15T20:02:16Z</time>
      </trkpt>
      <trkpt lat="46.18523" lon="4.63854">
        <ele>519</ele>
        <time>2022-09-15T20:02:21Z</time>
      </trkpt>
      <trkpt lat="46.18529" lon="4.63833">
        <ele>524</ele>
        <time>2022-09-15T20:02:23Z</time>
      </trkpt>
      <trkpt lat="46.18538" lon="4.63821">
        <ele>525</ele>
        <time>2022-09-15T20:02:26Z</time>
      </trkpt>
      <trkpt lat="46.18548" lon="4.63818">
        <ele>524</ele>
        <time>2022-09-15T20:02:27Z</time>
      </trkpt>
      <trkpt lat="46.18567" lon="4.63824">
        <ele>520</ele>
        <time>2022-09-15T20:02:31Z</time>
      </trkpt>
      <trkpt lat="46.1858" lon="4.6384">
        <ele>514</ele>
        <time>2022-09-15T20:02:34Z</time>
      </trkpt>
      <trkpt lat="46.18598" lon="4.63856">
        <ele>511</ele>
        <time>2022-09-15T20:02:38Z</time>
      </trkpt>
      <trkpt lat="46.18612" lon="4.63858">
        <ele>512</ele>
        <time>2022-09-15T20:02:40Z</time>
      </trkpt>
      <trkpt lat="46.18641" lon="4.63841">
        <ele>520</ele>
        <time>2022-09-15T20:02:46Z</time>
      </trkpt>
      <trkpt lat="46.1865" lon="4.63844">
        <ele>520</ele>
        <time>2022-09-15T20:02:47Z</time>
      </trkpt>
      <trkpt lat="46.18658" lon="4.63855">
        <ele>519</ele>
        <time>2022-09-15T20:02:49Z</time>
      </trkpt>
      <trkpt lat="46.18689" lon="4.63945">
        <ele>512</ele>
        <time>2022-09-15T20:03:02Z</time>
      </trkpt>
      <trkpt lat="46.18695" lon="4.63965">
        <ele>511</ele>
        <time>2022-09-15T20:03:04Z</time>
      </trkpt>
      <trkpt lat="46.18697" lon="4.64">
        <ele>508</ele>
        <time>2022-09-15T20:03:09Z</time>
      </trkpt>
      <trkpt lat="46.18699" lon="4.64066">
        <ele>506</ele>
        <time>2022-09-15T20:03:17Z</time>
      </trkpt>
      <trkpt lat="46.18703" lon="4.6409">
        <ele>506</ele>
        <time>2022-09-15T20:03:20Z</time>
      </trkpt>
      <trkpt lat="46.1871" lon="4.64103">
        <ele>507</ele>
        <time>2022-09-15T20:03:22Z</time>
      </trkpt>
      <trkpt lat="46.1872" lon="4.64111">
        <ele>509</ele>
        <time>2022-09-15T20:03:24Z</time>
      </trkpt>
      <trkpt lat="46.18745" lon="4.64122">
        <ele>514</ele>
        <time>2022-09-15T20:03:29Z</time>
      </trkpt>
      <trkpt lat="46.18752" lon="4.64128">
        <ele>515</ele>
        <time>2022-09-15T20:03:30Z</time>
      </trkpt>
      <trkpt lat="46.18756" lon="4.64142">
        <ele>515</ele>
        <time>2022-09-15T20:03:32Z</time>
      </trkpt>
      <trkpt lat="46.18756" lon="4.64164">
        <ele>513</ele>
        <time>2022-09-15T20:03:35Z</time>
      </trkpt>
      <trkpt lat="46.18743" lon="4.64245">
        <ele>511</ele>
        <time>2022-09-15T20:03:45Z</time>
      </trkpt>
      <trkpt lat="46.18747" lon="4.64267">
        <ele>511</ele>
        <time>2022-09-15T20:03:48Z</time>
      </trkpt>
      <trkpt lat="46.18756" lon="4.64279">
        <ele>511</ele>
        <time>2022-09-15T20:03:50Z</time>
      </trkpt>
      <trkpt lat="46.18782" lon="4.64301">
        <ele>511</ele>
        <time>2022-09-15T20:03:55Z</time>
      </trkpt>
      <trkpt lat="46.18801" lon="4.64309">
        <ele>511</ele>
        <time>2022-09-15T20:03:59Z</time>
      </trkpt>
      <trkpt lat="46.18819" lon="4.64305">
        <ele>512</ele>
        <time>2022-09-15T20:04:02Z</time>
      </trkpt>
      <trkpt lat="46.18843" lon="4.64295">
        <ele>515</ele>
        <time>2022-09-15T20:04:06Z</time>
      </trkpt>
      <trkpt lat="46.189" lon="4.64263">
        <ele>524</ele>
        <time>2022-09-15T20:04:17Z</time>
      </trkpt>
      <trkpt lat="46.18916" lon="4.64259">
        <ele>525</ele>
        <time>2022-09-15T20:04:20Z</time>
      </trkpt>
      <trkpt lat="46.18929" lon="4.64263">
        <ele>527</ele>
        <time>2022-09-15T20:04:23Z</time>
      </trkpt>
      <trkpt lat="46.18943" lon="4.64272">
        <ele>529</ele>
        <time>2022-09-15T20:04:25Z</time>
      </trkpt>
      <trkpt lat="46.18954" lon="4.64287">
        <ele>531</ele>
        <time>2022-09-15T20:04:28Z</time>
      </trkpt>
      <trkpt lat="46.18957" lon="4.64301">
        <ele>531</ele>
        <time>2022-09-15T20:04:30Z</time>
      </trkpt>
      <trkpt lat="46.18954" lon="4.64332">
        <ele>528</ele>
        <time>2022-09-15T20:04:34Z</time>
      </trkpt>
      <trkpt lat="46.18942" lon="4.644">
        <ele>524</ele>
        <time>2022-09-15T20:04:42Z</time>
      </trkpt>
      <trkpt lat="46.18944" lon="4.64451">
        <ele>522</ele>
        <time>2022-09-15T20:04:49Z</time>
      </trkpt>
      <trkpt lat="46.18952" lon="4.6448">
        <ele>522</ele>
        <time>2022-09-15T20:04:52Z</time>
      </trkpt>
      <trkpt lat="46.18964" lon="4.64508">
        <ele>523</ele>
        <time>2022-09-15T20:04:56Z</time>
      </trkpt>
      <trkpt lat="46.18983" lon="4.64533">
        <ele>524</ele>
        <time>2022-09-15T20:05:01Z</time>
      </trkpt>
      <trkpt lat="46.19004" lon="4.64547">
        <ele>526</ele>
        <time>2022-09-15T20:05:05Z</time>
      </trkpt>
      <trkpt lat="46.19025" lon="4.64554">
        <ele>527</ele>
        <time>2022-09-15T20:05:09Z</time>
      </trkpt>
      <trkpt lat="46.19044" lon="4.64553">
        <ele>529</ele>
        <time>2022-09-15T20:05:12Z</time>
      </trkpt>
      <trkpt lat="46.191" lon="4.64534">
        <ele>541</ele>
        <time>2022-09-15T20:05:23Z</time>
      </trkpt>
      <trkpt lat="46.19116" lon="4.64535">
        <ele>544</ele>
        <time>2022-09-15T20:05:25Z</time>
      </trkpt>
      <trkpt lat="46.19132" lon="4.64543">
        <ele>546</ele>
        <time>2022-09-15T20:05:28Z</time>
      </trkpt>
      <trkpt lat="46.19162" lon="4.64576">
        <ele>545</ele>
        <time>2022-09-15T20:05:35Z</time>
      </trkpt>
      <trkpt lat="46.19169" lon="4.64594">
        <ele>544</ele>
        <time>2022-09-15T20:05:38Z</time>
      </trkpt>
      <trkpt lat="46.19172" lon="4.64648">
        <ele>537</ele>
        <time>2022-09-15T20:05:44Z</time>
      </trkpt>
      <trkpt lat="46.19176" lon="4.6468">
        <ele>534</ele>
        <time>2022-09-15T20:05:48Z</time>
      </trkpt>
      <trkpt lat="46.19225" lon="4.64763">
        <ele>537</ele>
        <time>2022-09-15T20:06:02Z</time>
      </trkpt>
      <trkpt lat="46.19253" lon="4.64836">
        <ele>537</ele>
        <time>2022-09-15T20:06:12Z</time>
      </trkpt>
      <trkpt lat="46.19272" lon="4.64815">
        <ele>537</ele>
        <time>2022-09-15T20:06:16Z</time>
      </trkpt>
      <trkpt lat="46.19291" lon="4.64791">
        <ele>538</ele>
        <time>2022-09-15T20:06:21Z</time>
      </trkpt>
      <trkpt lat="46.19313" lon="4.6477">
        <ele>539</ele>
        <time>2022-09-15T20:06:26Z</time>
      </trkpt>
      <trkpt lat="46.19338" lon="4.64741">
        <ele>541</ele>
        <time>2022-09-15T20:06:31Z</time>
      </trkpt>
      <trkpt lat="46.19362" lon="4.64719">
        <ele>542</ele>
        <time>2022-09-15T20:06:36Z</time>
      </trkpt>
      <trkpt lat="46.19379" lon="4.64711">
        <ele>540</ele>
        <time>2022-09-15T20:06:39Z</time>
      </trkpt>
      <trkpt lat="46.19402" lon="4.64702">
        <ele>538</ele>
        <time>2022-09-15T20:06:44Z</time>
      </trkpt>
      <trkpt lat="46.19419" lon="4.64704">
        <ele>535</ele>
        <time>2022-09-15T20:06:47Z</time>
      </trkpt>
      <trkpt lat="46.19451" lon="4.64717">
        <ele>528</ele>
        <time>2022-09-15T20:06:53Z</time>
      </trkpt>
      <trkpt lat="46.19512" lon="4.64708">
        <ele>522</ele>
        <time>2022-09-15T20:07:04Z</time>
      </trkpt>
      <trkpt lat="46.19533" lon="4.64697">
        <ele>522</ele>
        <time>2022-09-15T20:07:08Z</time>
      </trkpt>
      <trkpt lat="46.19539" lon="4.64691">
        <ele>522</ele>
        <time>2022-09-15T20:07:09Z</time>
      </trkpt>
      <trkpt lat="46.19545" lon="4.64675">
        <ele>523</ele>
        <time>2022-09-15T20:07:11Z</time>
      </trkpt>
      <trkpt lat="46.19551" lon="4.64651">
        <ele>524</ele>
        <time>2022-09-15T20:07:14Z</time>
      </trkpt>
      <trkpt lat="46.19559" lon="4.64578">
        <ele>525</ele>
        <time>2022-09-15T20:07:23Z</time>
      </trkpt>
      <trkpt lat="46.19559" lon="4.64543">
        <ele>524</ele>
        <time>2022-09-15T20:07:28Z</time>
      </trkpt>
      <trkpt lat="46.19551" lon="4.64491">
        <ele>525</ele>
        <time>2022-09-15T20:07:34Z</time>
      </trkpt>
      <trkpt lat="46.19548" lon="4.64431">
        <ele>523</ele>
        <time>2022-09-15T20:07:42Z</time>
      </trkpt>
      <trkpt lat="46.1954" lon="4.64367">
        <ele>529</ele>
        <time>2022-09-15T20:07:50Z</time>
      </trkpt>
      <trkpt lat="46.19543" lon="4.6435">
        <ele>530</ele>
        <time>2022-09-15T20:07:52Z</time>
      </trkpt>
      <trkpt lat="46.19563" lon="4.64327">
        <ele>525</ele>
        <time>2022-09-15T20:07:56Z</time>
      </trkpt>
      <trkpt lat="46.19632" lon="4.6422">
        <ele>523</ele>
        <time>2022-09-15T20:08:14Z</time>
      </trkpt>
      <trkpt lat="46.19699" lon="4.64112">
        <ele>521</ele>
        <time>2022-09-15T20:08:32Z</time>
      </trkpt>
      <trkpt lat="46.19711" lon="4.64101">
        <ele>521</ele>
        <time>2022-09-15T20:08:35Z</time>
      </trkpt>
      <trkpt lat="46.19719" lon="4.641">
        <ele>521</ele>
        <time>2022-09-15T20:08:36Z</time>
      </trkpt>
      <trkpt lat="46.19726" lon="4.64101">
        <ele>520</ele>
        <time>2022-09-15T20:08:37Z</time>
      </trkpt>
      <trkpt lat="46.19736" lon="4.64109">
        <ele>520</ele>
        <time>2022-09-15T20:08:39Z</time>
      </trkpt>
      <trkpt lat="46.19748" lon="4.64127">
        <ele>520</ele>
        <time>2022-09-15T20:08:43Z</time>
      </trkpt>
      <trkpt lat="46.19777" lon="4.64221">
        <ele>522</ele>
        <time>2022-09-15T20:08:55Z</time>
      </trkpt>
      <trkpt lat="46.19803" lon="4.6434">
        <ele>523</ele>
        <time>2022-09-15T20:09:11Z</time>
      </trkpt>
      <trkpt lat="46.19815" lon="4.64373">
        <ele>522</ele>
        <time>2022-09-15T20:09:15Z</time>
      </trkpt>
      <trkpt lat="46.19824" lon="4.64385">
        <ele>522</ele>
        <time>2022-09-15T20:09:17Z</time>
      </trkpt>
      <trkpt lat="46.1984" lon="4.64395">
        <ele>523</ele>
        <time>2022-09-15T20:09:20Z</time>
      </trkpt>
      <trkpt lat="46.1992" lon="4.64419">
        <ele>527</ele>
        <time>2022-09-15T20:09:35Z</time>
      </trkpt>
      <trkpt lat="46.19942" lon="4.64431">
        <ele>528</ele>
        <time>2022-09-15T20:09:39Z</time>
      </trkpt>
      <trkpt lat="46.19962" lon="4.64453">
        <ele>528</ele>
        <time>2022-09-15T20:09:44Z</time>
      </trkpt>
      <trkpt lat="46.19981" lon="4.64465">
        <ele>529</ele>
        <time>2022-09-15T20:09:47Z</time>
      </trkpt>
      <trkpt lat="46.2" lon="4.64461">
        <ele>531</ele>
        <time>2022-09-15T20:09:51Z</time>
      </trkpt>
      <trkpt lat="46.20014" lon="4.6445">
        <ele>529</ele>
        <time>2022-09-15T20:09:54Z</time>
      </trkpt>
      <trkpt lat="46.20048" lon="4.6441">
        <ele>528</ele>
        <time>2022-09-15T20:10:01Z</time>
      </trkpt>
      <trkpt lat="46.20077" lon="4.64364">
        <ele>531</ele>
        <time>2022-09-15T20:10:09Z</time>
      </trkpt>
      <trkpt lat="46.20093" lon="4.64333">
        <ele>533</ele>
        <time>2022-09-15T20:10:14Z</time>
      </trkpt>
      <trkpt lat="46.20109" lon="4.64297">
        <ele>533</ele>
        <time>2022-09-15T20:10:19Z</time>
      </trkpt>
      <trkpt lat="46.20129" lon="4.64208">
        <ele>537</ele>
        <time>2022-09-15T20:10:31Z</time>
      </trkpt>
      <trkpt lat="46.20137" lon="4.64192">
        <ele>537</ele>
        <time>2022-09-15T20:10:33Z</time>
      </trkpt>
      <trkpt lat="46.2015" lon="4.64189">
        <ele>535</ele>
        <time>2022-09-15T20:10:35Z</time>
      </trkpt>
      <trkpt lat="46.20157" lon="4.64193">
        <ele>533</ele>
        <time>2022-09-15T20:10:37Z</time>
      </trkpt>
      <trkpt lat="46.20169" lon="4.64204">
        <ele>530</ele>
        <time>2022-09-15T20:10:39Z</time>
      </trkpt>
      <trkpt lat="46.20191" lon="4.64279">
        <ele>525</ele>
        <time>2022-09-15T20:10:49Z</time>
      </trkpt>
      <trkpt lat="46.20235" lon="4.64345">
        <ele>523</ele>
        <time>2022-09-15T20:11:01Z</time>
      </trkpt>
      <trkpt lat="46.20262" lon="4.64376">
        <ele>520</ele>
        <time>2022-09-15T20:11:07Z</time>
      </trkpt>
      <trkpt lat="46.20285" lon="4.64393">
        <ele>517</ele>
        <time>2022-09-15T20:11:11Z</time>
      </trkpt>
      <trkpt lat="46.20313" lon="4.64395">
        <ele>518</ele>
        <time>2022-09-15T20:11:16Z</time>
      </trkpt>
      <trkpt lat="46.20334" lon="4.64392">
        <ele>519</ele>
        <time>2022-09-15T20:11:20Z</time>
      </trkpt>
      <trkpt lat="46.20351" lon="4.64389">
        <ele>519</ele>
        <time>2022-09-15T20:11:23Z</time>
      </trkpt>
      <trkpt lat="46.20368" lon="4.64381">
        <ele>521</ele>
        <time>2022-09-15T20:11:26Z</time>
      </trkpt>
      <trkpt lat="46.20388" lon="4.64377">
        <ele>522</ele>
        <time>2022-09-15T20:11:30Z</time>
      </trkpt>
      <trkpt lat="46.20405" lon="4.6438">
        <ele>521</ele>
        <time>2022-09-15T20:11:33Z</time>
      </trkpt>
      <trkpt lat="46.20422" lon="4.64391">
        <ele>518</ele>
        <time>2022-09-15T20:11:36Z</time>
      </trkpt>
      <trkpt lat="46.20442" lon="4.64394">
        <ele>519</ele>
        <time>2022-09-15T20:11:40Z</time>
      </trkpt>
      <trkpt lat="46.20464" lon="4.64395">
        <ele>520</ele>
        <time>2022-09-15T20:11:44Z</time>
      </trkpt>
      <trkpt lat="46.20482" lon="4.64399">
        <ele>520</ele>
        <time>2022-09-15T20:11:47Z</time>
      </trkpt>
      <trkpt lat="46.20498" lon="4.64412">
        <ele>517</ele>
        <time>2022-09-15T20:11:50Z</time>
      </trkpt>
      <trkpt lat="46.2051" lon="4.6443">
        <ele>513</ele>
        <time>2022-09-15T20:11:53Z</time>
      </trkpt>
      <trkpt lat="46.20519" lon="4.64448">
        <ele>510</ele>
        <time>2022-09-15T20:11:56Z</time>
      </trkpt>
      <trkpt lat="46.20527" lon="4.6446">
        <ele>508</ele>
        <time>2022-09-15T20:11:58Z</time>
      </trkpt>
      <trkpt lat="46.20579" lon="4.64499">
        <ele>505</ele>
        <time>2022-09-15T20:12:09Z</time>
      </trkpt>
      <trkpt lat="46.20596" lon="4.64508">
        <ele>502</ele>
        <time>2022-09-15T20:12:12Z</time>
      </trkpt>
      <trkpt lat="46.20613" lon="4.64509">
        <ele>501</ele>
        <time>2022-09-15T20:12:15Z</time>
      </trkpt>
      <trkpt lat="46.20634" lon="4.64508">
        <ele>499</ele>
        <time>2022-09-15T20:12:18Z</time>
      </trkpt>
      <trkpt lat="46.20646" lon="4.64502">
        <ele>498</ele>
        <time>2022-09-15T20:12:21Z</time>
      </trkpt>
      <trkpt lat="46.20658" lon="4.64493">
        <ele>498</ele>
        <time>2022-09-15T20:12:23Z</time>
      </trkpt>
      <trkpt lat="46.20703" lon="4.64445">
        <ele>496</ele>
        <time>2022-09-15T20:12:33Z</time>
      </trkpt>
      <trkpt lat="46.20725" lon="4.64417">
        <ele>495</ele>
        <time>2022-09-15T20:12:38Z</time>
      </trkpt>
      <trkpt lat="46.20744" lon="4.6438">
        <ele>494</ele>
        <time>2022-09-15T20:12:44Z</time>
      </trkpt>
      <trkpt lat="46.20753" lon="4.64368">
        <ele>494</ele>
        <time>2022-09-15T20:12:46Z</time>
      </trkpt>
      <trkpt lat="46.20761" lon="4.64362">
        <ele>494</ele>
        <time>2022-09-15T20:12:48Z</time>
      </trkpt>
      <trkpt lat="46.2075" lon="4.6441">
        <ele>491</ele>
        <time>2022-09-15T20:12:54Z</time>
      </trkpt>
      <trkpt lat="46.20737" lon="4.64489">
        <ele>486</ele>
        <time>2022-09-15T20:13:04Z</time>
      </trkpt>
      <trkpt lat="46.20705" lon="4.64662">
        <ele>476</ele>
        <time>2022-09-15T20:13:26Z</time>
      </trkpt>
      <trkpt lat="46.20698" lon="4.64683">
        <ele>475</ele>
        <time>2022-09-15T20:13:29Z</time>
      </trkpt>
      <trkpt lat="46.20691" lon="4.64695">
        <ele>475</ele>
        <time>2022-09-15T20:13:31Z</time>
      </trkpt>
      <trkpt lat="46.20675" lon="4.64712">
        <ele>476</ele>
        <time>2022-09-15T20:13:34Z</time>
      </trkpt>
      <trkpt lat="46.20667" lon="4.64718">
        <ele>476</ele>
        <time>2022-09-15T20:13:36Z</time>
      </trkpt>
      <trkpt lat="46.20649" lon="4.64723">
        <ele>475</ele>
        <time>2022-09-15T20:13:39Z</time>
      </trkpt>
      <trkpt lat="46.20636" lon="4.6472">
        <ele>475</ele>
        <time>2022-09-15T20:13:42Z</time>
      </trkpt>
      <trkpt lat="46.20587" lon="4.647">
        <ele>476</ele>
        <time>2022-09-15T20:13:51Z</time>
      </trkpt>
      <trkpt lat="46.20521" lon="4.647">
        <ele>469</ele>
        <time>2022-09-15T20:14:02Z</time>
      </trkpt>
      <trkpt lat="46.20457" lon="4.64698">
        <ele>464</ele>
        <time>2022-09-15T20:14:14Z</time>
      </trkpt>
      <trkpt lat="46.20392" lon="4.6469">
        <ele>463</ele>
        <time>2022-09-15T20:14:25Z</time>
      </trkpt>
      <trkpt lat="46.20371" lon="4.64697">
        <ele>463</ele>
        <time>2022-09-15T20:14:29Z</time>
      </trkpt>
      <trkpt lat="46.20355" lon="4.6471">
        <ele>462</ele>
        <time>2022-09-15T20:14:33Z</time>
      </trkpt>
      <trkpt lat="46.20344" lon="4.64727">
        <ele>461</ele>
        <time>2022-09-15T20:14:35Z</time>
      </trkpt>
      <trkpt lat="46.20334" lon="4.64763">
        <ele>459</ele>
        <time>2022-09-15T20:14:40Z</time>
      </trkpt>
      <trkpt lat="46.20329" lon="4.64793">
        <ele>459</ele>
        <time>2022-09-15T20:14:44Z</time>
      </trkpt>
      <trkpt lat="46.20329" lon="4.64818">
        <ele>457</ele>
        <time>2022-09-15T20:14:47Z</time>
      </trkpt>
      <trkpt lat="46.20332" lon="4.64846">
        <ele>456</ele>
        <time>2022-09-15T20:14:51Z</time>
      </trkpt>
      <trkpt lat="46.20348" lon="4.64895">
        <ele>451</ele>
        <time>2022-09-15T20:14:57Z</time>
      </trkpt>
      <trkpt lat="46.20349" lon="4.64906">
        <ele>451</ele>
        <time>2022-09-15T20:14:59Z</time>
      </trkpt>
      <trkpt lat="46.20347" lon="4.64925">
        <ele>450</ele>
        <time>2022-09-15T20:15:01Z</time>
      </trkpt>
      <trkpt lat="46.20342" lon="4.6495">
        <ele>448</ele>
        <time>2022-09-15T20:15:04Z</time>
      </trkpt>
      <trkpt lat="46.20336" lon="4.64963">
        <ele>447</ele>
        <time>2022-09-15T20:15:06Z</time>
      </trkpt>
      <trkpt lat="46.20326" lon="4.64977">
        <ele>448</ele>
        <time>2022-09-15T20:15:09Z</time>
      </trkpt>
      <trkpt lat="46.20318" lon="4.64991">
        <ele>448</ele>
        <time>2022-09-15T20:15:11Z</time>
      </trkpt>
      <trkpt lat="46.20314" lon="4.65005">
        <ele>447</ele>
        <time>2022-09-15T20:15:13Z</time>
      </trkpt>
      <trkpt lat="46.20315" lon="4.65041">
        <ele>446</ele>
        <time>2022-09-15T20:15:17Z</time>
      </trkpt>
      <trkpt lat="46.20323" lon="4.65095">
        <ele>443</ele>
        <time>2022-09-15T20:15:24Z</time>
      </trkpt>
      <trkpt lat="46.20361" lon="4.65191">
        <ele>437</ele>
        <time>2022-09-15T20:15:37Z</time>
      </trkpt>
      <trkpt lat="46.20381" lon="4.65297">
        <ele>432</ele>
        <time>2022-09-15T20:15:51Z</time>
      </trkpt>
      <trkpt lat="46.20388" lon="4.65328">
        <ele>430</ele>
        <time>2022-09-15T20:15:55Z</time>
      </trkpt>
      <trkpt lat="46.20433" lon="4.65433">
        <ele>421</ele>
        <time>2022-09-15T20:16:10Z</time>
      </trkpt>
      <trkpt lat="46.20434" lon="4.65457">
        <ele>419</ele>
        <time>2022-09-15T20:16:13Z</time>
      </trkpt>
      <trkpt lat="46.20432" lon="4.65475">
        <ele>418</ele>
        <time>2022-09-15T20:16:15Z</time>
      </trkpt>
      <trkpt lat="46.20427" lon="4.65504">
        <ele>416</ele>
        <time>2022-09-15T20:16:19Z</time>
      </trkpt>
      <trkpt lat="46.20417" lon="4.65532">
        <ele>413</ele>
        <time>2022-09-15T20:16:23Z</time>
      </trkpt>
      <trkpt lat="46.20408" lon="4.6554">
        <ele>412</ele>
        <time>2022-09-15T20:16:25Z</time>
      </trkpt>
      <trkpt lat="46.20381" lon="4.65552">
        <ele>411</ele>
        <time>2022-09-15T20:16:30Z</time>
      </trkpt>
      <trkpt lat="46.20368" lon="4.65555">
        <ele>410</ele>
        <time>2022-09-15T20:16:32Z</time>
      </trkpt>
      <trkpt lat="46.20352" lon="4.65556">
        <ele>411</ele>
        <time>2022-09-15T20:16:35Z</time>
      </trkpt>
      <trkpt lat="46.20338" lon="4.65553">
        <ele>411</ele>
        <time>2022-09-15T20:16:38Z</time>
      </trkpt>
      <trkpt lat="46.20282" lon="4.65523">
        <ele>415</ele>
        <time>2022-09-15T20:16:48Z</time>
      </trkpt>
      <trkpt lat="46.20216" lon="4.65504">
        <ele>414</ele>
        <time>2022-09-15T20:17:00Z</time>
      </trkpt>
      <trkpt lat="46.20169" lon="4.65492">
        <ele>415</ele>
        <time>2022-09-15T20:17:09Z</time>
      </trkpt>
      <trkpt lat="46.2015" lon="4.6549">
        <ele>415</ele>
        <time>2022-09-15T20:17:12Z</time>
      </trkpt>
      <trkpt lat="46.20129" lon="4.65493">
        <ele>415</ele>
        <time>2022-09-15T20:17:16Z</time>
      </trkpt>
      <trkpt lat="46.20119" lon="4.655">
        <ele>415</ele>
        <time>2022-09-15T20:17:18Z</time>
      </trkpt>
      <trkpt lat="46.20112" lon="4.65511">
        <ele>416</ele>
        <time>2022-09-15T20:17:20Z</time>
      </trkpt>
      <trkpt lat="46.20108" lon="4.65521">
        <ele>417</ele>
        <time>2022-09-15T20:17:21Z</time>
      </trkpt>
      <trkpt lat="46.20107" lon="4.65536">
        <ele>419</ele>
        <time>2022-09-15T20:17:23Z</time>
      </trkpt>
      <trkpt lat="46.20114" lon="4.65561">
        <ele>421</ele>
        <time>2022-09-15T20:17:26Z</time>
      </trkpt>
      <trkpt lat="46.20225" lon="4.6566">
        <ele>416</ele>
        <time>2022-09-15T20:17:49Z</time>
      </trkpt>
      <trkpt lat="46.20248" lon="4.65677">
        <ele>413</ele>
        <time>2022-09-15T20:17:54Z</time>
      </trkpt>
      <trkpt lat="46.20265" lon="4.65694">
        <ele>413</ele>
        <time>2022-09-15T20:17:58Z</time>
      </trkpt>
      <trkpt lat="46.20283" lon="4.65719">
        <ele>414</ele>
        <time>2022-09-15T20:18:02Z</time>
      </trkpt>
      <trkpt lat="46.20299" lon="4.65738">
        <ele>414</ele>
        <time>2022-09-15T20:18:06Z</time>
      </trkpt>
      <trkpt lat="46.20335" lon="4.65774">
        <ele>414</ele>
        <time>2022-09-15T20:18:14Z</time>
      </trkpt>
      <trkpt lat="46.20357" lon="4.65802">
        <ele>415</ele>
        <time>2022-09-15T20:18:19Z</time>
      </trkpt>
      <trkpt lat="46.20451" lon="4.65948">
        <ele>416</ele>
        <time>2022-09-15T20:18:43Z</time>
      </trkpt>
      <trkpt lat="46.20457" lon="4.65967">
        <ele>415</ele>
        <time>2022-09-15T20:18:46Z</time>
      </trkpt>
      <trkpt lat="46.20458" lon="4.65984">
        <ele>416</ele>
        <time>2022-09-15T20:18:48Z</time>
      </trkpt>
      <trkpt lat="46.20456" lon="4.65996">
        <ele>417</ele>
        <time>2022-09-15T20:18:50Z</time>
      </trkpt>
      <trkpt lat="46.20451" lon="4.66007">
        <ele>420</ele>
        <time>2022-09-15T20:18:51Z</time>
      </trkpt>
      <trkpt lat="46.20411" lon="4.66043">
        <ele>430</ele>
        <time>2022-09-15T20:19:00Z</time>
      </trkpt>
      <trkpt lat="46.20396" lon="4.66064">
        <ele>432</ele>
        <time>2022-09-15T20:19:03Z</time>
      </trkpt>
      <trkpt lat="46.2039" lon="4.661">
        <ele>434</ele>
        <time>2022-09-15T20:19:08Z</time>
      </trkpt>
      <trkpt lat="46.20404" lon="4.66116">
        <ele>433</ele>
        <time>2022-09-15T20:19:11Z</time>
      </trkpt>
      <trkpt lat="46.20479" lon="4.66151">
        <ele>428</ele>
        <time>2022-09-15T20:19:25Z</time>
      </trkpt>
      <trkpt lat="46.2051" lon="4.66195">
        <ele>428</ele>
        <time>2022-09-15T20:19:33Z</time>
      </trkpt>
      <trkpt lat="46.20541" lon="4.66283">
        <ele>427</ele>
        <time>2022-09-15T20:19:45Z</time>
      </trkpt>
      <trkpt lat="46.20539" lon="4.66296">
        <ele>427</ele>
        <time>2022-09-15T20:19:47Z</time>
      </trkpt>
      <trkpt lat="46.20542" lon="4.6631">
        <ele>426</ele>
        <time>2022-09-15T20:19:48Z</time>
      </trkpt>
      <trkpt lat="46.20546" lon="4.66337">
        <ele>425</ele>
        <time>2022-09-15T20:19:52Z</time>
      </trkpt>
      <trkpt lat="46.20545" lon="4.66385">
        <ele>421</ele>
        <time>2022-09-15T20:19:58Z</time>
      </trkpt>
      <trkpt lat="46.2054" lon="4.66414">
        <ele>419</ele>
        <time>2022-09-15T20:20:01Z</time>
      </trkpt>
      <trkpt lat="46.20534" lon="4.66429">
        <ele>418</ele>
        <time>2022-09-15T20:20:04Z</time>
      </trkpt>
      <trkpt lat="46.20527" lon="4.66438">
        <ele>417</ele>
        <time>2022-09-15T20:20:05Z</time>
      </trkpt>
      <trkpt lat="46.20518" lon="4.66448">
        <ele>417</ele>
        <time>2022-09-15T20:20:07Z</time>
      </trkpt>
      <trkpt lat="46.20506" lon="4.66454">
        <ele>418</ele>
        <time>2022-09-15T20:20:10Z</time>
      </trkpt>
      <trkpt lat="46.20495" lon="4.66457">
        <ele>419</ele>
        <time>2022-09-15T20:20:12Z</time>
      </trkpt>
      <trkpt lat="46.20468" lon="4.66459">
        <ele>419</ele>
        <time>2022-09-15T20:20:16Z</time>
      </trkpt>
      <trkpt lat="46.20423" lon="4.66455">
        <ele>422</ele>
        <time>2022-09-15T20:20:24Z</time>
      </trkpt>
      <trkpt lat="46.20415" lon="4.6646">
        <ele>422</ele>
        <time>2022-09-15T20:20:26Z</time>
      </trkpt>
      <trkpt lat="46.20409" lon="4.66467">
        <ele>422</ele>
        <time>2022-09-15T20:20:27Z</time>
      </trkpt>
      <trkpt lat="46.20386" lon="4.66522">
        <ele>416</ele>
        <time>2022-09-15T20:20:35Z</time>
      </trkpt>
      <trkpt lat="46.20376" lon="4.66531">
        <ele>416</ele>
        <time>2022-09-15T20:20:37Z</time>
      </trkpt>
      <trkpt lat="46.20363" lon="4.66537">
        <ele>416</ele>
        <time>2022-09-15T20:20:40Z</time>
      </trkpt>
      <trkpt lat="46.20337" lon="4.66543">
        <ele>418</ele>
        <time>2022-09-15T20:20:44Z</time>
      </trkpt>
      <trkpt lat="46.2032" lon="4.6655">
        <ele>418</ele>
        <time>2022-09-15T20:20:48Z</time>
      </trkpt>
      <trkpt lat="46.20306" lon="4.66567">
        <ele>415</ele>
        <time>2022-09-15T20:20:51Z</time>
      </trkpt>
      <trkpt lat="46.20275" lon="4.66619">
        <ele>412</ele>
        <time>2022-09-15T20:20:59Z</time>
      </trkpt>
      <trkpt lat="46.20266" lon="4.66641">
        <ele>412</ele>
        <time>2022-09-15T20:21:02Z</time>
      </trkpt>
      <trkpt lat="46.20265" lon="4.66657">
        <ele>412</ele>
        <time>2022-09-15T20:21:04Z</time>
      </trkpt>
      <trkpt lat="46.20267" lon="4.66669">
        <ele>412</ele>
        <time>2022-09-15T20:21:06Z</time>
      </trkpt>
      <trkpt lat="46.20274" lon="4.66682">
        <ele>413</ele>
        <time>2022-09-15T20:21:08Z</time>
      </trkpt>
      <trkpt lat="46.20289" lon="4.66691">
        <ele>412</ele>
        <time>2022-09-15T20:21:11Z</time>
      </trkpt>
      <trkpt lat="46.20362" lon="4.66691">
        <ele>405</ele>
        <time>2022-09-15T20:21:24Z</time>
      </trkpt>
      <trkpt lat="46.20488" lon="4.66715">
        <ele>397</ele>
        <time>2022-09-15T20:21:46Z</time>
      </trkpt>
      <trkpt lat="46.20497" lon="4.6672">
        <ele>396</ele>
        <time>2022-09-15T20:21:48Z</time>
      </trkpt>
      <trkpt lat="46.20506" lon="4.66727">
        <ele>396</ele>
        <time>2022-09-15T20:21:50Z</time>
      </trkpt>
      <trkpt lat="46.20512" lon="4.66734">
        <ele>396</ele>
        <time>2022-09-15T20:21:51Z</time>
      </trkpt>
      <trkpt lat="46.20517" lon="4.66745">
        <ele>396</ele>
        <time>2022-09-15T20:21:53Z</time>
      </trkpt>
      <trkpt lat="46.20521" lon="4.66767">
        <ele>395</ele>
        <time>2022-09-15T20:21:56Z</time>
      </trkpt>
      <trkpt lat="46.20521" lon="4.66783">
        <ele>394</ele>
        <time>2022-09-15T20:21:58Z</time>
      </trkpt>
      <trkpt lat="46.20518" lon="4.668">
        <ele>393</ele>
        <time>2022-09-15T20:22:00Z</time>
      </trkpt>
      <trkpt lat="46.20492" lon="4.66897">
        <ele>391</ele>
        <time>2022-09-15T20:22:13Z</time>
      </trkpt>
      <trkpt lat="46.2049" lon="4.66912">
        <ele>391</ele>
        <time>2022-09-15T20:22:15Z</time>
      </trkpt>
      <trkpt lat="46.20491" lon="4.66926">
        <ele>391</ele>
        <time>2022-09-15T20:22:16Z</time>
      </trkpt>
      <trkpt lat="46.20496" lon="4.66944">
        <ele>390</ele>
        <time>2022-09-15T20:22:19Z</time>
      </trkpt>
      <trkpt lat="46.20494" lon="4.66956">
        <ele>391</ele>
        <time>2022-09-15T20:22:20Z</time>
      </trkpt>
      <trkpt lat="46.20496" lon="4.67004">
        <ele>391</ele>
        <time>2022-09-15T20:22:26Z</time>
      </trkpt>
      <trkpt lat="46.20496" lon="4.67026">
        <ele>391</ele>
        <time>2022-09-15T20:22:29Z</time>
      </trkpt>
      <trkpt lat="46.20493" lon="4.67045">
        <ele>392</ele>
        <time>2022-09-15T20:22:31Z</time>
      </trkpt>
      <trkpt lat="46.2049" lon="4.67063">
        <ele>393</ele>
        <time>2022-09-15T20:22:34Z</time>
      </trkpt>
      <trkpt lat="46.20482" lon="4.67087">
        <ele>395</ele>
        <time>2022-09-15T20:22:37Z</time>
      </trkpt>
      <trkpt lat="46.2045" lon="4.67165">
        <ele>400</ele>
        <time>2022-09-15T20:22:48Z</time>
      </trkpt>
      <trkpt lat="46.20446" lon="4.67186">
        <ele>401</ele>
        <time>2022-09-15T20:22:51Z</time>
      </trkpt>
      <trkpt lat="46.20449" lon="4.67205">
        <ele>402</ele>
        <time>2022-09-15T20:22:53Z</time>
      </trkpt>
      <trkpt lat="46.20455" lon="4.67215">
        <ele>403</ele>
        <time>2022-09-15T20:22:55Z</time>
      </trkpt>
      <trkpt lat="46.20463" lon="4.67222">
        <ele>403</ele>
        <time>2022-09-15T20:22:56Z</time>
      </trkpt>
      <trkpt lat="46.20473" lon="4.67226">
        <ele>403</ele>
        <time>2022-09-15T20:22:58Z</time>
      </trkpt>
      <trkpt lat="46.20529" lon="4.67232">
        <ele>403</ele>
        <time>2022-09-15T20:23:08Z</time>
      </trkpt>
      <trkpt lat="46.20548" lon="4.67237">
        <ele>404</ele>
        <time>2022-09-15T20:23:12Z</time>
      </trkpt>
      <trkpt lat="46.20565" lon="4.67244">
        <ele>405</ele>
        <time>2022-09-15T20:23:15Z</time>
      </trkpt>
      <trkpt lat="46.20635" lon="4.67315">
        <ele>409</ele>
        <time>2022-09-15T20:23:30Z</time>
      </trkpt>
      <trkpt lat="46.20646" lon="4.67332">
        <ele>409</ele>
        <time>2022-09-15T20:23:33Z</time>
      </trkpt>
      <trkpt lat="46.20654" lon="4.6735">
        <ele>409</ele>
        <time>2022-09-15T20:23:35Z</time>
      </trkpt>
      <trkpt lat="46.20662" lon="4.67376">
        <ele>409</ele>
        <time>2022-09-15T20:23:39Z</time>
      </trkpt>
      <trkpt lat="46.20677" lon="4.67437">
        <ele>409</ele>
        <time>2022-09-15T20:23:47Z</time>
      </trkpt>
      <trkpt lat="46.20694" lon="4.67481">
        <ele>410</ele>
        <time>2022-09-15T20:23:53Z</time>
      </trkpt>
      <trkpt lat="46.20715" lon="4.67522">
        <ele>411</ele>
        <time>2022-09-15T20:23:59Z</time>
      </trkpt>
      <trkpt lat="46.20741" lon="4.6757">
        <ele>414</ele>
        <time>2022-09-15T20:24:07Z</time>
      </trkpt>
      <trkpt lat="46.20764" lon="4.67605">
        <ele>417</ele>
        <time>2022-09-15T20:24:13Z</time>
      </trkpt>
      <trkpt lat="46.20792" lon="4.67636">
        <ele>417</ele>
        <time>2022-09-15T20:24:19Z</time>
      </trkpt>
      <trkpt lat="46.20802" lon="4.67649">
        <ele>416</ele>
        <time>2022-09-15T20:24:22Z</time>
      </trkpt>
      <trkpt lat="46.20807" lon="4.6766">
        <ele>416</ele>
        <time>2022-09-15T20:24:23Z</time>
      </trkpt>
      <trkpt lat="46.20812" lon="4.67679">
        <ele>416</ele>
        <time>2022-09-15T20:24:26Z</time>
      </trkpt>
      <trkpt lat="46.20817" lon="4.67728">
        <ele>417</ele>
        <time>2022-09-15T20:24:32Z</time>
      </trkpt>
      <trkpt lat="46.20816" lon="4.67751">
        <ele>418</ele>
        <time>2022-09-15T20:24:35Z</time>
      </trkpt>
      <trkpt lat="46.2081" lon="4.67774">
        <ele>419</ele>
        <time>2022-09-15T20:24:38Z</time>
      </trkpt>
      <trkpt lat="46.20799" lon="4.67803">
        <ele>421</ele>
        <time>2022-09-15T20:24:42Z</time>
      </trkpt>
      <trkpt lat="46.20755" lon="4.67879">
        <ele>430</ele>
        <time>2022-09-15T20:24:54Z</time>
      </trkpt>
      <trkpt lat="46.20726" lon="4.67933">
        <ele>434</ele>
        <time>2022-09-15T20:25:02Z</time>
      </trkpt>
      <trkpt lat="46.20725" lon="4.67942">
        <ele>435</ele>
        <time>2022-09-15T20:25:03Z</time>
      </trkpt>
      <trkpt lat="46.20727" lon="4.67955">
        <ele>434</ele>
        <time>2022-09-15T20:25:05Z</time>
      </trkpt>
      <trkpt lat="46.20744" lon="4.68015">
        <ele>430</ele>
        <time>2022-09-15T20:25:13Z</time>
      </trkpt>
      <trkpt lat="46.20746" lon="4.68028">
        <ele>429</ele>
        <time>2022-09-15T20:25:15Z</time>
      </trkpt>
      <trkpt lat="46.20746" lon="4.6805">
        <ele>429</ele>
        <time>2022-09-15T20:25:17Z</time>
      </trkpt>
      <trkpt lat="46.20741" lon="4.68109">
        <ele>431</ele>
        <time>2022-09-15T20:25:25Z</time>
      </trkpt>
      <trkpt lat="46.20742" lon="4.68124">
        <ele>431</ele>
        <time>2022-09-15T20:25:27Z</time>
      </trkpt>
      <trkpt lat="46.20751" lon="4.68157">
        <ele>430</ele>
        <time>2022-09-15T20:25:31Z</time>
      </trkpt>
      <trkpt lat="46.20753" lon="4.68178">
        <ele>429</ele>
        <time>2022-09-15T20:25:34Z</time>
      </trkpt>
      <trkpt lat="46.20747" lon="4.682">
        <ele>430</ele>
        <time>2022-09-15T20:25:36Z</time>
      </trkpt>
      <trkpt lat="46.20725" lon="4.68244">
        <ele>431</ele>
        <time>2022-09-15T20:25:43Z</time>
      </trkpt>
      <trkpt lat="46.20709" lon="4.6827">
        <ele>433</ele>
        <time>2022-09-15T20:25:47Z</time>
      </trkpt>
      <trkpt lat="46.20693" lon="4.68283">
        <ele>434</ele>
        <time>2022-09-15T20:25:51Z</time>
      </trkpt>
      <trkpt lat="46.20679" lon="4.68288">
        <ele>435</ele>
        <time>2022-09-15T20:25:53Z</time>
      </trkpt>
      <trkpt lat="46.20666" lon="4.68288">
        <ele>436</ele>
        <time>2022-09-15T20:25:56Z</time>
      </trkpt>
      <trkpt lat="46.20639" lon="4.68281">
        <ele>433</ele>
        <time>2022-09-15T20:26:00Z</time>
      </trkpt>
      <trkpt lat="46.20618" lon="4.68273">
        <ele>431</ele>
        <time>2022-09-15T20:26:04Z</time>
      </trkpt>
      <trkpt lat="46.20597" lon="4.68253">
        <ele>431</ele>
        <time>2022-09-15T20:26:09Z</time>
      </trkpt>
      <trkpt lat="46.20561" lon="4.682">
        <ele>434</ele>
        <time>2022-09-15T20:26:18Z</time>
      </trkpt>
      <trkpt lat="46.20554" lon="4.68194">
        <ele>435</ele>
        <time>2022-09-15T20:26:19Z</time>
      </trkpt>
      <trkpt lat="46.20541" lon="4.6819">
        <ele>435</ele>
        <time>2022-09-15T20:26:22Z</time>
      </trkpt>
      <trkpt lat="46.2047" lon="4.68195">
        <ele>432</ele>
        <time>2022-09-15T20:26:34Z</time>
      </trkpt>
      <trkpt lat="46.20457" lon="4.68198">
        <ele>431</ele>
        <time>2022-09-15T20:26:37Z</time>
      </trkpt>
      <trkpt lat="46.20434" lon="4.68211">
        <ele>429</ele>
        <time>2022-09-15T20:26:41Z</time>
      </trkpt>
      <trkpt lat="46.2039" lon="4.68244">
        <ele>421</ele>
        <time>2022-09-15T20:26:50Z</time>
      </trkpt>
      <trkpt lat="46.20341" lon="4.68268">
        <ele>420</ele>
        <time>2022-09-15T20:26:59Z</time>
      </trkpt>
      <trkpt lat="46.20329" lon="4.68277">
        <ele>419</ele>
        <time>2022-09-15T20:27:02Z</time>
      </trkpt>
      <trkpt lat="46.2032" lon="4.68289">
        <ele>418</ele>
        <time>2022-09-15T20:27:04Z</time>
      </trkpt>
      <trkpt lat="46.20307" lon="4.68319">
        <ele>416</ele>
        <time>2022-09-15T20:27:08Z</time>
      </trkpt>
      <trkpt lat="46.20236" lon="4.68532">
        <ele>405</ele>
        <time>2022-09-15T20:27:37Z</time>
      </trkpt>
      <trkpt lat="46.20214" lon="4.68614">
        <ele>399</ele>
        <time>2022-09-15T20:27:48Z</time>
      </trkpt>
      <trkpt lat="46.20205" lon="4.6864">
        <ele>397</ele>
        <time>2022-09-15T20:27:52Z</time>
      </trkpt>
      <trkpt lat="46.2019" lon="4.68671">
        <ele>397</ele>
        <time>2022-09-15T20:27:56Z</time>
      </trkpt>
      <trkpt lat="46.20168" lon="4.68707">
        <ele>395</ele>
        <time>2022-09-15T20:28:02Z</time>
      </trkpt>
      <trkpt lat="46.20159" lon="4.68718">
        <ele>393</ele>
        <time>2022-09-15T20:28:04Z</time>
      </trkpt>
      <trkpt lat="46.20146" lon="4.68725">
        <ele>391</ele>
        <time>2022-09-15T20:28:07Z</time>
      </trkpt>
      <trkpt lat="46.20125" lon="4.68729">
        <ele>390</ele>
        <time>2022-09-15T20:28:11Z</time>
      </trkpt>
      <trkpt lat="46.20109" lon="4.68723">
        <ele>390</ele>
        <time>2022-09-15T20:28:14Z</time>
      </trkpt>
      <trkpt lat="46.20072" lon="4.68706">
        <ele>394</ele>
        <time>2022-09-15T20:28:20Z</time>
      </trkpt>
      <trkpt lat="46.20042" lon="4.68686">
        <ele>399</ele>
        <time>2022-09-15T20:28:26Z</time>
      </trkpt>
      <trkpt lat="46.20025" lon="4.68684">
        <ele>399</ele>
        <time>2022-09-15T20:28:29Z</time>
      </trkpt>
      <trkpt lat="46.20015" lon="4.68688">
        <ele>398</ele>
        <time>2022-09-15T20:28:31Z</time>
      </trkpt>
      <trkpt lat="46.20004" lon="4.68698">
        <ele>396</ele>
        <time>2022-09-15T20:28:33Z</time>
      </trkpt>
      <trkpt lat="46.19995" lon="4.68716">
        <ele>394</ele>
        <time>2022-09-15T20:28:36Z</time>
      </trkpt>
      <trkpt lat="46.19955" lon="4.68835">
        <ele>382</ele>
        <time>2022-09-15T20:28:53Z</time>
      </trkpt>
      <trkpt lat="46.19949" lon="4.68846">
        <ele>382</ele>
        <time>2022-09-15T20:28:54Z</time>
      </trkpt>
      <trkpt lat="46.19914" lon="4.68906">
        <ele>377</ele>
        <time>2022-09-15T20:29:04Z</time>
      </trkpt>
      <trkpt lat="46.19784" lon="4.69198">
        <ele>359</ele>
        <time>2022-09-15T20:29:47Z</time>
      </trkpt>
      <trkpt lat="46.19762" lon="4.69285">
        <ele>358</ele>
        <time>2022-09-15T20:29:58Z</time>
      </trkpt>
      <trkpt lat="46.19756" lon="4.69296">
        <ele>357</ele>
        <time>2022-09-15T20:30:00Z</time>
      </trkpt>
      <trkpt lat="46.19749" lon="4.69304">
        <ele>356</ele>
        <time>2022-09-15T20:30:01Z</time>
      </trkpt>
      <trkpt lat="46.1974" lon="4.69303">
        <ele>354</ele>
        <time>2022-09-15T20:30:03Z</time>
      </trkpt>
      <trkpt lat="46.19732" lon="4.69298">
        <ele>353</ele>
        <time>2022-09-15T20:30:05Z</time>
      </trkpt>
      <trkpt lat="46.19728" lon="4.6929">
        <ele>352</ele>
        <time>2022-09-15T20:30:06Z</time>
      </trkpt>
      <trkpt lat="46.19724" lon="4.69247">
        <ele>350</ele>
        <time>2022-09-15T20:30:11Z</time>
      </trkpt>
      <trkpt lat="46.1972" lon="4.69221">
        <ele>350</ele>
        <time>2022-09-15T20:30:14Z</time>
      </trkpt>
      <trkpt lat="46.19707" lon="4.69191">
        <ele>348</ele>
        <time>2022-09-15T20:30:19Z</time>
      </trkpt>
      <trkpt lat="46.19683" lon="4.69154">
        <ele>346</ele>
        <time>2022-09-15T20:30:25Z</time>
      </trkpt>
      <trkpt lat="46.19674" lon="4.69142">
        <ele>346</ele>
        <time>2022-09-15T20:30:27Z</time>
      </trkpt>
      <trkpt lat="46.1966" lon="4.69135">
        <ele>346</ele>
        <time>2022-09-15T20:30:30Z</time>
      </trkpt>
      <trkpt lat="46.19647" lon="4.69134">
        <ele>346</ele>
        <time>2022-09-15T20:30:32Z</time>
      </trkpt>
      <trkpt lat="46.1963" lon="4.69146">
        <ele>346</ele>
        <time>2022-09-15T20:30:35Z</time>
      </trkpt>
      <trkpt lat="46.19606" lon="4.69169">
        <ele>343</ele>
        <time>2022-09-15T20:30:41Z</time>
      </trkpt>
      <trkpt lat="46.19588" lon="4.69196">
        <ele>340</ele>
        <time>2022-09-15T20:30:45Z</time>
      </trkpt>
      <trkpt lat="46.19557" lon="4.6925">
        <ele>336</ele>
        <time>2022-09-15T20:30:54Z</time>
      </trkpt>
      <trkpt lat="46.1954" lon="4.69293">
        <ele>335</ele>
        <time>2022-09-15T20:31:00Z</time>
      </trkpt>
      <trkpt lat="46.19516" lon="4.69377">
        <ele>330</ele>
        <time>2022-09-15T20:31:11Z</time>
      </trkpt>
      <trkpt lat="46.19507" lon="4.69399">
        <ele>328</ele>
        <time>2022-09-15T20:31:14Z</time>
      </trkpt>
      <trkpt lat="46.19481" lon="4.6944">
        <ele>323</ele>
        <time>2022-09-15T20:31:21Z</time>
      </trkpt>
      <trkpt lat="46.19458" lon="4.69472">
        <ele>319</ele>
        <time>2022-09-15T20:31:27Z</time>
      </trkpt>
      <trkpt lat="46.19422" lon="4.69495">
        <ele>318</ele>
        <time>2022-09-15T20:31:34Z</time>
      </trkpt>
      <trkpt lat="46.19413" lon="4.69505">
        <ele>317</ele>
        <time>2022-09-15T20:31:36Z</time>
      </trkpt>
      <trkpt lat="46.19396" lon="4.69532">
        <ele>315</ele>
        <time>2022-09-15T20:31:40Z</time>
      </trkpt>
      <trkpt lat="46.1938" lon="4.69549">
        <ele>313</ele>
        <time>2022-09-15T20:31:44Z</time>
      </trkpt>
      <trkpt lat="46.1936" lon="4.69557">
        <ele>312</ele>
        <time>2022-09-15T20:31:48Z</time>
      </trkpt>
      <trkpt lat="46.19331" lon="4.69559">
        <ele>312</ele>
        <time>2022-09-15T20:31:53Z</time>
      </trkpt>
      <trkpt lat="46.19318" lon="4.69565">
        <ele>311</ele>
        <time>2022-09-15T20:31:55Z</time>
      </trkpt>
      <trkpt lat="46.19302" lon="4.69588">
        <ele>309</ele>
        <time>2022-09-15T20:31:59Z</time>
      </trkpt>
      <trkpt lat="46.19257" lon="4.69741">
        <ele>303</ele>
        <time>2022-09-15T20:32:20Z</time>
      </trkpt>
      <trkpt lat="46.19218" lon="4.69709">
        <ele>302</ele>
        <time>2022-09-15T20:32:28Z</time>
      </trkpt>
      <trkpt lat="46.1915" lon="4.69662">
        <ele>297</ele>
        <time>2022-09-15T20:32:41Z</time>
      </trkpt>
      <trkpt lat="46.19089" lon="4.69618">
        <ele>294</ele>
        <time>2022-09-15T20:32:53Z</time>
      </trkpt>
      <trkpt lat="46.19077" lon="4.69604">
        <ele>294</ele>
        <time>2022-09-15T20:32:56Z</time>
      </trkpt>
      <trkpt lat="46.19038" lon="4.69539">
        <ele>296</ele>
        <time>2022-09-15T20:33:07Z</time>
      </trkpt>
      <trkpt lat="46.19018" lon="4.69508">
        <ele>296</ele>
        <time>2022-09-15T20:33:12Z</time>
      </trkpt>
      <trkpt lat="46.18996" lon="4.69483">
        <ele>298</ele>
        <time>2022-09-15T20:33:17Z</time>
      </trkpt>
      <trkpt lat="46.18953" lon="4.69447">
        <ele>301</ele>
        <time>2022-09-15T20:33:26Z</time>
      </trkpt>
      <trkpt lat="46.18916" lon="4.69417">
        <ele>303</ele>
        <time>2022-09-15T20:33:33Z</time>
      </trkpt>
      <trkpt lat="46.18881" lon="4.69392">
        <ele>303</ele>
        <time>2022-09-15T20:33:40Z</time>
      </trkpt>
      <trkpt lat="46.18808" lon="4.69331">
        <ele>304</ele>
        <time>2022-09-15T20:33:55Z</time>
      </trkpt>
      <trkpt lat="46.18783" lon="4.69307">
        <ele>304</ele>
        <time>2022-09-15T20:34:00Z</time>
      </trkpt>
      <trkpt lat="46.18742" lon="4.69246">
        <ele>305</ele>
        <time>2022-09-15T20:34:11Z</time>
      </trkpt>
      <trkpt lat="46.18724" lon="4.69227">
        <ele>306</ele>
        <time>2022-09-15T20:34:15Z</time>
      </trkpt>
      <trkpt lat="46.18707" lon="4.69215">
        <ele>307</ele>
        <time>2022-09-15T20:34:18Z</time>
      </trkpt>
      <trkpt lat="46.18636" lon="4.69181">
        <ele>308</ele>
        <time>2022-09-15T20:34:32Z</time>
      </trkpt>
      <trkpt lat="46.18576" lon="4.69204">
        <ele>306</ele>
        <time>2022-09-15T20:34:43Z</time>
      </trkpt>
      <trkpt lat="46.1852" lon="4.69221">
        <ele>306</ele>
        <time>2022-09-15T20:34:53Z</time>
      </trkpt>
      <trkpt lat="46.18509" lon="4.69226">
        <ele>306</ele>
        <time>2022-09-15T20:34:55Z</time>
      </trkpt>
      <trkpt lat="46.18376" lon="4.69273">
        <ele>297</ele>
        <time>2022-09-15T20:35:19Z</time>
      </trkpt>
      <trkpt lat="46.18309" lon="4.69291">
        <ele>292</ele>
        <time>2022-09-15T20:35:31Z</time>
      </trkpt>
      <trkpt lat="46.18292" lon="4.69298">
        <ele>291</ele>
        <time>2022-09-15T20:35:34Z</time>
      </trkpt>
      <trkpt lat="46.18274" lon="4.69315">
        <ele>290</ele>
        <time>2022-09-15T20:35:38Z</time>
      </trkpt>
      <trkpt lat="46.18265" lon="4.69332">
        <ele>289</ele>
        <time>2022-09-15T20:35:41Z</time>
      </trkpt>
      <trkpt lat="46.18214" lon="4.6946">
        <ele>283</ele>
        <time>2022-09-15T20:35:59Z</time>
      </trkpt>
      <trkpt lat="46.18201" lon="4.69485">
        <ele>281</ele>
        <time>2022-09-15T20:36:03Z</time>
      </trkpt>
      <trkpt lat="46.18192" lon="4.69493">
        <ele>280</ele>
        <time>2022-09-15T20:36:05Z</time>
      </trkpt>
      <trkpt lat="46.18181" lon="4.69499">
        <ele>279</ele>
        <time>2022-09-15T20:36:07Z</time>
      </trkpt>
      <trkpt lat="46.1817" lon="4.69502">
        <ele>278</ele>
        <time>2022-09-15T20:36:09Z</time>
      </trkpt>
      <trkpt lat="46.18157" lon="4.69502">
        <ele>277</ele>
        <time>2022-09-15T20:36:11Z</time>
      </trkpt>
      <trkpt lat="46.18145" lon="4.69496">
        <ele>277</ele>
        <time>2022-09-15T20:36:13Z</time>
      </trkpt>
      <trkpt lat="46.18135" lon="4.69489">
        <ele>276</ele>
        <time>2022-09-15T20:36:15Z</time>
      </trkpt>
      <trkpt lat="46.18123" lon="4.69474">
        <ele>275</ele>
        <time>2022-09-15T20:36:18Z</time>
      </trkpt>
      <trkpt lat="46.1811" lon="4.69444">
        <ele>273</ele>
        <time>2022-09-15T20:36:23Z</time>
      </trkpt>
      <trkpt lat="46.18098" lon="4.69411">
        <ele>271</ele>
        <time>2022-09-15T20:36:27Z</time>
      </trkpt>
      <trkpt lat="46.18068" lon="4.69344">
        <ele>269</ele>
        <time>2022-09-15T20:36:37Z</time>
      </trkpt>
      <trkpt lat="46.18058" lon="4.69325">
        <ele>268</ele>
        <time>2022-09-15T20:36:40Z</time>
      </trkpt>
      <trkpt lat="46.18048" lon="4.69312">
        <ele>267</ele>
        <time>2022-09-15T20:36:42Z</time>
      </trkpt>
      <trkpt lat="46.18039" lon="4.69305">
        <ele>266</ele>
        <time>2022-09-15T20:36:44Z</time>
      </trkpt>
      <trkpt lat="46.18024" lon="4.69297">
        <ele>265</ele>
        <time>2022-09-15T20:36:47Z</time>
      </trkpt>
      <trkpt lat="46.18016" lon="4.69296">
        <ele>264</ele>
        <time>2022-09-15T20:36:48Z</time>
      </trkpt>
      <trkpt lat="46.17842" lon="4.69267">
        <ele>270</ele>
        <time>2022-09-15T20:37:20Z</time>
      </trkpt>
      <trkpt lat="46.17823" lon="4.69261">
        <ele>271</ele>
        <time>2022-09-15T20:37:23Z</time>
      </trkpt>
      <trkpt lat="46.17755" lon="4.69231">
        <ele>277</ele>
        <time>2022-09-15T20:37:36Z</time>
      </trkpt>
      <trkpt lat="46.17738" lon="4.69216">
        <ele>277</ele>
        <time>2022-09-15T20:37:39Z</time>
      </trkpt>
      <trkpt lat="46.17728" lon="4.69206">
        <ele>278</ele>
        <time>2022-09-15T20:37:41Z</time>
      </trkpt>
      <trkpt lat="46.17714" lon="4.69179">
        <ele>279</ele>
        <time>2022-09-15T20:37:46Z</time>
      </trkpt>
      <trkpt lat="46.17702" lon="4.69148">
        <ele>279</ele>
        <time>2022-09-15T20:37:50Z</time>
      </trkpt>
      <trkpt lat="46.17681" lon="4.691">
        <ele>281</ele>
        <time>2022-09-15T20:37:57Z</time>
      </trkpt>
      <trkpt lat="46.17665" lon="4.69076">
        <ele>281</ele>
        <time>2022-09-15T20:38:01Z</time>
      </trkpt>
      <trkpt lat="46.17653" lon="4.69063">
        <ele>281</ele>
        <time>2022-09-15T20:38:04Z</time>
      </trkpt>
      <trkpt lat="46.17509" lon="4.68953">
        <ele>282</ele>
        <time>2022-09-15T20:38:33Z</time>
      </trkpt>
      <trkpt lat="46.17484" lon="4.68926">
        <ele>283</ele>
        <time>2022-09-15T20:38:38Z</time>
      </trkpt>
      <trkpt lat="46.17431" lon="4.68838">
        <ele>285</ele>
        <time>2022-09-15T20:38:53Z</time>
      </trkpt>
      <trkpt lat="46.17386" lon="4.68763">
        <ele>286</ele>
        <time>2022-09-15T20:39:05Z</time>
      </trkpt>
      <trkpt lat="46.17344" lon="4.68713">
        <ele>287</ele>
        <time>2022-09-15T20:39:15Z</time>
      </trkpt>
      <trkpt lat="46.17325" lon="4.68694">
        <ele>287</ele>
        <time>2022-09-15T20:39:19Z</time>
      </trkpt>
      <trkpt lat="46.17314" lon="4.68687">
        <ele>286</ele>
        <time>2022-09-15T20:39:21Z</time>
      </trkpt>
      <trkpt lat="46.17292" lon="4.68678">
        <ele>285</ele>
        <time>2022-09-15T20:39:25Z</time>
      </trkpt>
      <trkpt lat="46.17266" lon="4.68675">
        <ele>284</ele>
        <time>2022-09-15T20:39:30Z</time>
      </trkpt>
      <trkpt lat="46.17226" lon="4.68677">
        <ele>281</ele>
        <time>2022-09-15T20:39:37Z</time>
      </trkpt>
      <trkpt lat="46.17203" lon="4.68675">
        <ele>280</ele>
        <time>2022-09-15T20:39:41Z</time>
      </trkpt>
      <trkpt lat="46.17183" lon="4.68666">
        <ele>279</ele>
        <time>2022-09-15T20:39:45Z</time>
      </trkpt>
      <trkpt lat="46.17167" lon="4.68648">
        <ele>278</ele>
        <time>2022-09-15T20:39:48Z</time>
      </trkpt>
      <trkpt lat="46.17157" lon="4.68632">
        <ele>278</ele>
        <time>2022-09-15T20:39:51Z</time>
      </trkpt>
      <trkpt lat="46.17146" lon="4.68603">
        <ele>277</ele>
        <time>2022-09-15T20:39:55Z</time>
      </trkpt>
      <trkpt lat="46.17137" lon="4.68567">
        <ele>276</ele>
        <time>2022-09-15T20:40:00Z</time>
      </trkpt>
      <trkpt lat="46.17122" lon="4.68527">
        <ele>274</ele>
        <time>2022-09-15T20:40:05Z</time>
      </trkpt>
      <trkpt lat="46.17097" lon="4.68475">
        <ele>270</ele>
        <time>2022-09-15T20:40:13Z</time>
      </trkpt>
      <trkpt lat="46.17088" lon="4.68441">
        <ele>269</ele>
        <time>2022-09-15T20:40:17Z</time>
      </trkpt>
      <trkpt lat="46.17081" lon="4.68353">
        <ele>266</ele>
        <time>2022-09-15T20:40:28Z</time>
      </trkpt>
      <trkpt lat="46.1708" lon="4.68313">
        <ele>265</ele>
        <time>2022-09-15T20:40:33Z</time>
      </trkpt>
      <trkpt lat="46.17082" lon="4.68274">
        <ele>263</ele>
        <time>2022-09-15T20:40:38Z</time>
      </trkpt>
      <trkpt lat="46.17085" lon="4.68254">
        <ele>262</ele>
        <time>2022-09-15T20:40:41Z</time>
      </trkpt>
      <trkpt lat="46.17094" lon="4.68224">
        <ele>262</ele>
        <time>2022-09-15T20:40:45Z</time>
      </trkpt>
      <trkpt lat="46.17129" lon="4.68154">
        <ele>262</ele>
        <time>2022-09-15T20:40:55Z</time>
      </trkpt>
      <trkpt lat="46.17136" lon="4.68132">
        <ele>261</ele>
        <time>2022-09-15T20:40:58Z</time>
      </trkpt>
      <trkpt lat="46.17135" lon="4.68112">
        <ele>260</ele>
        <time>2022-09-15T20:41:01Z</time>
      </trkpt>
      <trkpt lat="46.17131" lon="4.68105">
        <ele>260</ele>
        <time>2022-09-15T20:41:02Z</time>
      </trkpt>
      <trkpt lat="46.17121" lon="4.68097">
        <ele>259</ele>
        <time>2022-09-15T20:41:04Z</time>
      </trkpt>
      <trkpt lat="46.17103" lon="4.68102">
        <ele>258</ele>
        <time>2022-09-15T20:41:07Z</time>
      </trkpt>
      <trkpt lat="46.17064" lon="4.68116">
        <ele>258</ele>
        <time>2022-09-15T20:41:14Z</time>
      </trkpt>
      <trkpt lat="46.17018" lon="4.68137">
        <ele>260</ele>
        <time>2022-09-15T20:41:23Z</time>
      </trkpt>
      <trkpt lat="46.17005" lon="4.68149">
        <ele>260</ele>
        <time>2022-09-15T20:41:26Z</time>
      </trkpt>
      <trkpt lat="46.16993" lon="4.68166">
        <ele>260</ele>
        <time>2022-09-15T20:41:29Z</time>
      </trkpt>
      <trkpt lat="46.16968" lon="4.68225">
        <ele>259</ele>
        <time>2022-09-15T20:41:37Z</time>
      </trkpt>
      <trkpt lat="46.16948" lon="4.68264">
        <ele>260</ele>
        <time>2022-09-15T20:41:43Z</time>
      </trkpt>
      <trkpt lat="46.16936" lon="4.68284">
        <ele>261</ele>
        <time>2022-09-15T20:41:46Z</time>
      </trkpt>
      <trkpt lat="46.16922" lon="4.68299">
        <ele>261</ele>
        <time>2022-09-15T20:41:50Z</time>
      </trkpt>
      <trkpt lat="46.16877" lon="4.68321">
        <ele>264</ele>
        <time>2022-09-15T20:41:58Z</time>
      </trkpt>
      <trkpt lat="46.16862" lon="4.68327">
        <ele>266</ele>
        <time>2022-09-15T20:42:01Z</time>
      </trkpt>
      <trkpt lat="46.16847" lon="4.6833">
        <ele>267</ele>
        <time>2022-09-15T20:42:03Z</time>
      </trkpt>
      <trkpt lat="46.16833" lon="4.68327">
        <ele>268</ele>
        <time>2022-09-15T20:42:06Z</time>
      </trkpt>
      <trkpt lat="46.16806" lon="4.6831">
        <ele>270</ele>
        <time>2022-09-15T20:42:11Z</time>
      </trkpt>
      <trkpt lat="46.16718" lon="4.68239">
        <ele>275</ele>
        <time>2022-09-15T20:42:29Z</time>
      </trkpt>
      <trkpt lat="46.16696" lon="4.68215">
        <ele>276</ele>
        <time>2022-09-15T20:42:34Z</time>
      </trkpt>
      <trkpt lat="46.1663" lon="4.68133">
        <ele>279</ele>
        <time>2022-09-15T20:42:50Z</time>
      </trkpt>
      <trkpt lat="46.16618" lon="4.68125">
        <ele>279</ele>
        <time>2022-09-15T20:42:52Z</time>
      </trkpt>
      <trkpt lat="46.16597" lon="4.68104">
        <ele>280</ele>
        <time>2022-09-15T20:42:56Z</time>
      </trkpt>
      <trkpt lat="46.16545" lon="4.68045">
        <ele>282</ele>
        <time>2022-09-15T20:43:08Z</time>
      </trkpt>
      <trkpt lat="46.16524" lon="4.68035">
        <ele>282</ele>
        <time>2022-09-15T20:43:12Z</time>
      </trkpt>
      <trkpt lat="46.1639" lon="4.68025">
        <ele>284</ele>
        <time>2022-09-15T20:43:36Z</time>
      </trkpt>
      <trkpt lat="46.16387" lon="4.67977">
        <ele>286</ele>
        <time>2022-09-15T20:43:42Z</time>
      </trkpt>
      <trkpt lat="46.16379" lon="4.6792">
        <ele>289</ele>
        <time>2022-09-15T20:43:49Z</time>
      </trkpt>
      <trkpt lat="46.16373" lon="4.67891">
        <ele>291</ele>
        <time>2022-09-15T20:43:53Z</time>
      </trkpt>
      <trkpt lat="46.16369" lon="4.67803">
        <ele>298</ele>
        <time>2022-09-15T20:44:04Z</time>
      </trkpt>
      <trkpt lat="46.16358" lon="4.67739">
        <ele>303</ele>
        <time>2022-09-15T20:44:12Z</time>
      </trkpt>
      <trkpt lat="46.16378" lon="4.67724">
        <ele>304</ele>
        <time>2022-09-15T20:44:16Z</time>
      </trkpt>
      <trkpt lat="46.16394" lon="4.67707">
        <ele>304</ele>
        <time>2022-09-15T20:44:19Z</time>
      </trkpt>
      <trkpt lat="46.1641" lon="4.67681">
        <ele>305</ele>
        <time>2022-09-15T20:44:24Z</time>
      </trkpt>
      <trkpt lat="46.16441" lon="4.67617">
        <ele>309</ele>
        <time>2022-09-15T20:44:33Z</time>
      </trkpt>
      <trkpt lat="46.16462" lon="4.67569">
        <ele>312</ele>
        <time>2022-09-15T20:44:40Z</time>
      </trkpt>
      <trkpt lat="46.16466" lon="4.67552">
        <ele>313</ele>
        <time>2022-09-15T20:44:42Z</time>
      </trkpt>
      <trkpt lat="46.16466" lon="4.67527">
        <ele>314</ele>
        <time>2022-09-15T20:44:46Z</time>
      </trkpt>
      <trkpt lat="46.16458" lon="4.67504">
        <ele>316</ele>
        <time>2022-09-15T20:44:49Z</time>
      </trkpt>
      <trkpt lat="46.16433" lon="4.67472">
        <ele>318</ele>
        <time>2022-09-15T20:44:55Z</time>
      </trkpt>
      <trkpt lat="46.16398" lon="4.67443">
        <ele>321</ele>
        <time>2022-09-15T20:45:02Z</time>
      </trkpt>
      <trkpt lat="46.16388" lon="4.6743">
        <ele>322</ele>
        <time>2022-09-15T20:45:04Z</time>
      </trkpt>
      <trkpt lat="46.16378" lon="4.67409">
        <ele>324</ele>
        <time>2022-09-15T20:45:07Z</time>
      </trkpt>
      <trkpt lat="46.16369" lon="4.67374">
        <ele>325</ele>
        <time>2022-09-15T20:45:12Z</time>
      </trkpt>
      <trkpt lat="46.16367" lon="4.67334">
        <ele>326</ele>
        <time>2022-09-15T20:45:17Z</time>
      </trkpt>
      <trkpt lat="46.16396" lon="4.6705">
        <ele>332</ele>
        <time>2022-09-15T20:45:52Z</time>
      </trkpt>
      <trkpt lat="46.16395" lon="4.67023">
        <ele>333</ele>
        <time>2022-09-15T20:45:56Z</time>
      </trkpt>
      <trkpt lat="46.16389" lon="4.66979">
        <ele>334</ele>
        <time>2022-09-15T20:46:01Z</time>
      </trkpt>
      <trkpt lat="46.16373" lon="4.6699">
        <ele>333</ele>
        <time>2022-09-15T20:46:04Z</time>
      </trkpt>
      <trkpt lat="46.16199" lon="4.67146">
        <ele>328</ele>
        <time>2022-09-15T20:46:41Z</time>
      </trkpt>
      <trkpt lat="46.16179" lon="4.67161">
        <ele>328</ele>
        <time>2022-09-15T20:46:45Z</time>
      </trkpt>
      <trkpt lat="46.1613" lon="4.67184">
        <ele>327</ele>
        <time>2022-09-15T20:46:54Z</time>
      </trkpt>
      <trkpt lat="46.16074" lon="4.672">
        <ele>326</ele>
        <time>2022-09-15T20:47:04Z</time>
      </trkpt>
      <trkpt lat="46.16049" lon="4.67215">
        <ele>325</ele>
        <time>2022-09-15T20:47:09Z</time>
      </trkpt>
      <trkpt lat="46.16021" lon="4.67241">
        <ele>324</ele>
        <time>2022-09-15T20:47:15Z</time>
      </trkpt>
      <trkpt lat="46.15995" lon="4.6727">
        <ele>323</ele>
        <time>2022-09-15T20:47:21Z</time>
      </trkpt>
      <trkpt lat="46.15929" lon="4.67312">
        <ele>323</ele>
        <time>2022-09-15T20:47:34Z</time>
      </trkpt>
      <trkpt lat="46.15892" lon="4.67338">
        <ele>322</ele>
        <time>2022-09-15T20:47:41Z</time>
      </trkpt>
      <trkpt lat="46.15863" lon="4.67363">
        <ele>321</ele>
        <time>2022-09-15T20:47:47Z</time>
      </trkpt>
      <trkpt lat="46.15856" lon="4.67379">
        <ele>320</ele>
        <time>2022-09-15T20:47:49Z</time>
      </trkpt>
      <trkpt lat="46.15769" lon="4.6739">
        <ele>322</ele>
        <time>2022-09-15T20:48:05Z</time>
      </trkpt>
      <trkpt lat="46.1571" lon="4.67393">
        <ele>322</ele>
        <time>2022-09-15T20:48:15Z</time>
      </trkpt>
      <trkpt lat="46.1567" lon="4.67391">
        <ele>321</ele>
        <time>2022-09-15T20:48:22Z</time>
      </trkpt>
      <trkpt lat="46.15603" lon="4.67383">
        <ele>319</ele>
        <time>2022-09-15T20:48:34Z</time>
      </trkpt>
      <trkpt lat="46.15584" lon="4.67374">
        <ele>318</ele>
        <time>2022-09-15T20:48:38Z</time>
      </trkpt>
      <trkpt lat="46.15455" lon="4.67282">
        <ele>313</ele>
        <time>2022-09-15T20:49:03Z</time>
      </trkpt>
      <trkpt lat="46.15419" lon="4.67244">
        <ele>310</ele>
        <time>2022-09-15T20:49:11Z</time>
      </trkpt>
      <trkpt lat="46.15403" lon="4.67233">
        <ele>309</ele>
        <time>2022-09-15T20:49:15Z</time>
      </trkpt>
      <trkpt lat="46.15368" lon="4.67225">
        <ele>308</ele>
        <time>2022-09-15T20:49:21Z</time>
      </trkpt>
      <trkpt lat="46.15349" lon="4.67225">
        <ele>308</ele>
        <time>2022-09-15T20:49:24Z</time>
      </trkpt>
      <trkpt lat="46.15322" lon="4.67235">
        <ele>309</ele>
        <time>2022-09-15T20:49:29Z</time>
      </trkpt>
      <trkpt lat="46.15274" lon="4.67259">
        <ele>308</ele>
        <time>2022-09-15T20:49:38Z</time>
      </trkpt>
      <trkpt lat="46.15259" lon="4.67258">
        <ele>307</ele>
        <time>2022-09-15T20:49:41Z</time>
      </trkpt>
      <trkpt lat="46.15247" lon="4.67252">
        <ele>305</ele>
        <time>2022-09-15T20:49:43Z</time>
      </trkpt>
      <trkpt lat="46.15164" lon="4.67163">
        <ele>293</ele>
        <time>2022-09-15T20:50:02Z</time>
      </trkpt>
      <trkpt lat="46.15155" lon="4.67144">
        <ele>292</ele>
        <time>2022-09-15T20:50:04Z</time>
      </trkpt>
      <trkpt lat="46.15151" lon="4.67121">
        <ele>291</ele>
        <time>2022-09-15T20:50:07Z</time>
      </trkpt>
      <trkpt lat="46.15152" lon="4.67076">
        <ele>290</ele>
        <time>2022-09-15T20:50:13Z</time>
      </trkpt>
      <trkpt lat="46.15156" lon="4.67027">
        <ele>291</ele>
        <time>2022-09-15T20:50:19Z</time>
      </trkpt>
      <trkpt lat="46.15157" lon="4.66987">
        <ele>292</ele>
        <time>2022-09-15T20:50:24Z</time>
      </trkpt>
      <trkpt lat="46.15152" lon="4.6696">
        <ele>292</ele>
        <time>2022-09-15T20:50:27Z</time>
      </trkpt>
      <trkpt lat="46.15143" lon="4.66944">
        <ele>292</ele>
        <time>2022-09-15T20:50:30Z</time>
      </trkpt>
      <trkpt lat="46.15135" lon="4.66933">
        <ele>292</ele>
        <time>2022-09-15T20:50:32Z</time>
      </trkpt>
      <trkpt lat="46.15105" lon="4.66913">
        <ele>292</ele>
        <time>2022-09-15T20:50:38Z</time>
      </trkpt>
      <trkpt lat="46.15096" lon="4.66909">
        <ele>292</ele>
        <time>2022-09-15T20:50:39Z</time>
      </trkpt>
      <trkpt lat="46.15071" lon="4.669">
        <ele>293</ele>
        <time>2022-09-15T20:50:44Z</time>
      </trkpt>
      <trkpt lat="46.15057" lon="4.66899">
        <ele>294</ele>
        <time>2022-09-15T20:50:46Z</time>
      </trkpt>
      <trkpt lat="46.15041" lon="4.66905">
        <ele>294</ele>
        <time>2022-09-15T20:50:49Z</time>
      </trkpt>
      <trkpt lat="46.14986" lon="4.66932">
        <ele>294</ele>
        <time>2022-09-15T20:51:00Z</time>
      </trkpt>
      <trkpt lat="46.1496" lon="4.66939">
        <ele>294</ele>
        <time>2022-09-15T20:51:04Z</time>
      </trkpt>
      <trkpt lat="46.14945" lon="4.66938">
        <ele>294</ele>
        <time>2022-09-15T20:51:07Z</time>
      </trkpt>
      <trkpt lat="46.14931" lon="4.66925">
        <ele>295</ele>
        <time>2022-09-15T20:51:10Z</time>
      </trkpt>
      <trkpt lat="46.14898" lon="4.66853">
        <ele>298</ele>
        <time>2022-09-15T20:51:21Z</time>
      </trkpt>
      <trkpt lat="46.14828" lon="4.66678">
        <ele>304</ele>
        <time>2022-09-15T20:51:46Z</time>
      </trkpt>
      <trkpt lat="46.14786" lon="4.66478">
        <ele>303</ele>
        <time>2022-09-15T20:52:11Z</time>
      </trkpt>
      <trkpt lat="46.14765" lon="4.66404">
        <ele>303</ele>
        <time>2022-09-15T20:52:21Z</time>
      </trkpt>
      <trkpt lat="46.14695" lon="4.66185">
        <ele>300</ele>
        <time>2022-09-15T20:52:51Z</time>
      </trkpt>
      <trkpt lat="46.14691" lon="4.66148">
        <ele>301</ele>
        <time>2022-09-15T20:52:56Z</time>
      </trkpt>
      <trkpt lat="46.14692" lon="4.66115">
        <ele>301</ele>
        <time>2022-09-15T20:53:00Z</time>
      </trkpt>
      <trkpt lat="46.14701" lon="4.66069">
        <ele>302</ele>
        <time>2022-09-15T20:53:06Z</time>
      </trkpt>
      <trkpt lat="46.14718" lon="4.66023">
        <ele>301</ele>
        <time>2022-09-15T20:53:12Z</time>
      </trkpt>
      <trkpt lat="46.14725" lon="4.65998">
        <ele>301</ele>
        <time>2022-09-15T20:53:15Z</time>
      </trkpt>
      <trkpt lat="46.14728" lon="4.65965">
        <ele>300</ele>
        <time>2022-09-15T20:53:19Z</time>
      </trkpt>
      <trkpt lat="46.14725" lon="4.65911">
        <ele>300</ele>
        <time>2022-09-15T20:53:26Z</time>
      </trkpt>
      <trkpt lat="46.1472" lon="4.6589">
        <ele>300</ele>
        <time>2022-09-15T20:53:29Z</time>
      </trkpt>
      <trkpt lat="46.14697" lon="4.65835">
        <ele>299</ele>
        <time>2022-09-15T20:53:37Z</time>
      </trkpt>
      <trkpt lat="46.1469" lon="4.65801">
        <ele>299</ele>
        <time>2022-09-15T20:53:41Z</time>
      </trkpt>
      <trkpt lat="46.14685" lon="4.65689">
        <ele>301</ele>
        <time>2022-09-15T20:53:55Z</time>
      </trkpt>
      <trkpt lat="46.14682" lon="4.65671">
        <ele>301</ele>
        <time>2022-09-15T20:53:57Z</time>
      </trkpt>
      <trkpt lat="46.14668" lon="4.65635">
        <ele>300</ele>
        <time>2022-09-15T20:54:02Z</time>
      </trkpt>
      <trkpt lat="46.1463" lon="4.65548">
        <ele>298</ele>
        <time>2022-09-15T20:54:15Z</time>
      </trkpt>
      <trkpt lat="46.14628" lon="4.65535">
        <ele>298</ele>
        <time>2022-09-15T20:54:17Z</time>
      </trkpt>
      <trkpt lat="46.14619" lon="4.65453">
        <ele>298</ele>
        <time>2022-09-15T20:54:27Z</time>
      </trkpt>
      <trkpt lat="46.1462" lon="4.65429">
        <ele>297</ele>
        <time>2022-09-15T20:54:30Z</time>
      </trkpt>
      <trkpt lat="46.1463" lon="4.65356">
        <ele>297</ele>
        <time>2022-09-15T20:54:39Z</time>
      </trkpt>
      <trkpt lat="46.14632" lon="4.65271">
        <ele>295</ele>
        <time>2022-09-15T20:54:50Z</time>
      </trkpt>
      <trkpt lat="46.14629" lon="4.6525">
        <ele>295</ele>
        <time>2022-09-15T20:54:52Z</time>
      </trkpt>
      <trkpt lat="46.14635" lon="4.65238">
        <ele>294</ele>
        <time>2022-09-15T20:54:54Z</time>
      </trkpt>
      <trkpt lat="46.14639" lon="4.65199">
        <ele>292</ele>
        <time>2022-09-15T20:54:59Z</time>
      </trkpt>
      <trkpt lat="46.14648" lon="4.65171">
        <ele>291</ele>
        <time>2022-09-15T20:55:03Z</time>
      </trkpt>
      <trkpt lat="46.14671" lon="4.65124">
        <ele>291</ele>
        <time>2022-09-15T20:55:10Z</time>
      </trkpt>
      <trkpt lat="46.14674" lon="4.6511">
        <ele>291</ele>
        <time>2022-09-15T20:55:12Z</time>
      </trkpt>
      <trkpt lat="46.14673" lon="4.65096">
        <ele>291</ele>
        <time>2022-09-15T20:55:13Z</time>
      </trkpt>
      <trkpt lat="46.14666" lon="4.65069">
        <ele>290</ele>
        <time>2022-09-15T20:55:17Z</time>
      </trkpt>
      <trkpt lat="46.14649" lon="4.65027">
        <ele>290</ele>
        <time>2022-09-15T20:55:23Z</time>
      </trkpt>
      <trkpt lat="46.14634" lon="4.64913">
        <ele>294</ele>
        <time>2022-09-15T20:55:37Z</time>
      </trkpt>
      <trkpt lat="46.14612" lon="4.64806">
        <ele>293</ele>
        <time>2022-09-15T20:55:51Z</time>
      </trkpt>
      <trkpt lat="46.1461" lon="4.64785">
        <ele>292</ele>
        <time>2022-09-15T20:55:54Z</time>
      </trkpt>
      <trkpt lat="46.14611" lon="4.64761">
        <ele>292</ele>
        <time>2022-09-15T20:55:56Z</time>
      </trkpt>
      <trkpt lat="46.14619" lon="4.64709">
        <ele>292</ele>
        <time>2022-09-15T20:56:03Z</time>
      </trkpt>
      <trkpt lat="46.14624" lon="4.64689">
        <ele>292</ele>
        <time>2022-09-15T20:56:06Z</time>
      </trkpt>
      <trkpt lat="46.14632" lon="4.64664">
        <ele>292</ele>
        <time>2022-09-15T20:56:09Z</time>
      </trkpt>
      <trkpt lat="46.14654" lon="4.64614">
        <ele>292</ele>
        <time>2022-09-15T20:56:16Z</time>
      </trkpt>
      <trkpt lat="46.14681" lon="4.64572">
        <ele>292</ele>
        <time>2022-09-15T20:56:23Z</time>
      </trkpt>
      <trkpt lat="46.14723" lon="4.6451">
        <ele>294</ele>
        <time>2022-09-15T20:56:34Z</time>
      </trkpt>
      <trkpt lat="46.14725" lon="4.64497">
        <ele>294</ele>
        <time>2022-09-15T20:56:36Z</time>
      </trkpt>
      <trkpt lat="46.14724" lon="4.64485">
        <ele>294</ele>
        <time>2022-09-15T20:56:37Z</time>
      </trkpt>
      <trkpt lat="46.1472" lon="4.64473">
        <ele>293</ele>
        <time>2022-09-15T20:56:39Z</time>
      </trkpt>
      <trkpt lat="46.14697" lon="4.64439">
        <ele>292</ele>
        <time>2022-09-15T20:56:45Z</time>
      </trkpt>
      <trkpt lat="46.14689" lon="4.64423">
        <ele>292</ele>
        <time>2022-09-15T20:56:47Z</time>
      </trkpt>
      <trkpt lat="46.14684" lon="4.64407">
        <ele>292</ele>
        <time>2022-09-15T20:56:49Z</time>
      </trkpt>
      <trkpt lat="46.14682" lon="4.64387">
        <ele>292</ele>
        <time>2022-09-15T20:56:52Z</time>
      </trkpt>
      <trkpt lat="46.14696" lon="4.64307">
        <ele>296</ele>
        <time>2022-09-15T20:57:02Z</time>
      </trkpt>
      <trkpt lat="46.14705" lon="4.64266">
        <ele>297</ele>
        <time>2022-09-15T20:57:07Z</time>
      </trkpt>
      <trkpt lat="46.1471" lon="4.64232">
        <ele>299</ele>
        <time>2022-09-15T20:57:12Z</time>
      </trkpt>
      <trkpt lat="46.1471" lon="4.64223">
        <ele>300</ele>
        <time>2022-09-15T20:57:13Z</time>
      </trkpt>
      <trkpt lat="46.14706" lon="4.64211">
        <ele>300</ele>
        <time>2022-09-15T20:57:14Z</time>
      </trkpt>
      <trkpt lat="46.14691" lon="4.64198">
        <ele>300</ele>
        <time>2022-09-15T20:57:17Z</time>
      </trkpt>
      <trkpt lat="46.14682" lon="4.64198">
        <ele>300</ele>
        <time>2022-09-15T20:57:19Z</time>
      </trkpt>
      <trkpt lat="46.14668" lon="4.64204">
        <ele>298</ele>
        <time>2022-09-15T20:57:22Z</time>
      </trkpt>
      <trkpt lat="46.14657" lon="4.64213">
        <ele>299</ele>
        <time>2022-09-15T20:57:24Z</time>
      </trkpt>
      <trkpt lat="46.14578" lon="4.64307">
        <ele>301</ele>
        <time>2022-09-15T20:57:42Z</time>
      </trkpt>
      <trkpt lat="46.1456" lon="4.64322">
        <ele>302</ele>
        <time>2022-09-15T20:57:46Z</time>
      </trkpt>
      <trkpt lat="46.14517" lon="4.64344">
        <ele>305</ele>
        <time>2022-09-15T20:57:54Z</time>
      </trkpt>
      <trkpt lat="46.14497" lon="4.6435">
        <ele>306</ele>
        <time>2022-09-15T20:57:58Z</time>
      </trkpt>
      <trkpt lat="46.14478" lon="4.64352">
        <ele>307</ele>
        <time>2022-09-15T20:58:01Z</time>
      </trkpt>
      <trkpt lat="46.14456" lon="4.6435">
        <ele>308</ele>
        <time>2022-09-15T20:58:05Z</time>
      </trkpt>
      <trkpt lat="46.1444" lon="4.64345">
        <ele>309</ele>
        <time>2022-09-15T20:58:08Z</time>
      </trkpt>
      <trkpt lat="46.14425" lon="4.64335">
        <ele>311</ele>
        <time>2022-09-15T20:58:11Z</time>
      </trkpt>
      <trkpt lat="46.14412" lon="4.64319">
        <ele>312</ele>
        <time>2022-09-15T20:58:14Z</time>
      </trkpt>
      <trkpt lat="46.14401" lon="4.64293">
        <ele>312</ele>
        <time>2022-09-15T20:58:18Z</time>
      </trkpt>
      <trkpt lat="46.14398" lon="4.64267">
        <ele>313</ele>
        <time>2022-09-15T20:58:21Z</time>
      </trkpt>
      <trkpt lat="46.14397" lon="4.64187">
        <ele>315</ele>
        <time>2022-09-15T20:58:31Z</time>
      </trkpt>
      <trkpt lat="46.14402" lon="4.64126">
        <ele>316</ele>
        <time>2022-09-15T20:58:38Z</time>
      </trkpt>
      <trkpt lat="46.14415" lon="4.64048">
        <ele>317</ele>
        <time>2022-09-15T20:58:48Z</time>
      </trkpt>
      <trkpt lat="46.14415" lon="4.63975">
        <ele>319</ele>
        <time>2022-09-15T20:58:57Z</time>
      </trkpt>
      <trkpt lat="46.14411" lon="4.63871">
        <ele>322</ele>
        <time>2022-09-15T20:59:10Z</time>
      </trkpt>
      <trkpt lat="46.14399" lon="4.63823">
        <ele>322</ele>
        <time>2022-09-15T20:59:16Z</time>
      </trkpt>
      <trkpt lat="46.14353" lon="4.63697">
        <ele>321</ele>
        <time>2022-09-15T20:59:34Z</time>
      </trkpt>
      <trkpt lat="46.14322" lon="4.63631">
        <ele>321</ele>
        <time>2022-09-15T20:59:44Z</time>
      </trkpt>
      <trkpt lat="46.1431" lon="4.63596">
        <ele>322</ele>
        <time>2022-09-15T20:59:48Z</time>
      </trkpt>
      <trkpt lat="46.14284" lon="4.6344">
        <ele>322</ele>
        <time>2022-09-15T21:00:08Z</time>
      </trkpt>
      <trkpt lat="46.14282" lon="4.63412">
        <ele>323</ele>
        <time>2022-09-15T21:00:12Z</time>
      </trkpt>
      <trkpt lat="46.14292" lon="4.63305">
        <ele>326</ele>
        <time>2022-09-15T21:00:25Z</time>
      </trkpt>
      <trkpt lat="46.14301" lon="4.63254">
        <ele>328</ele>
        <time>2022-09-15T21:00:31Z</time>
      </trkpt>
      <trkpt lat="46.14306" lon="4.63122">
        <ele>332</ele>
        <time>2022-09-15T21:00:48Z</time>
      </trkpt>
      <trkpt lat="46.14309" lon="4.63081">
        <ele>333</ele>
        <time>2022-09-15T21:00:53Z</time>
      </trkpt>
      <trkpt lat="46.14317" lon="4.63035">
        <ele>335</ele>
        <time>2022-09-15T21:00:59Z</time>
      </trkpt>
      <trkpt lat="46.14335" lon="4.62949">
        <ele>338</ele>
        <time>2022-09-15T21:01:10Z</time>
      </trkpt>
      <trkpt lat="46.14368" lon="4.62816">
        <ele>337</ele>
        <time>2022-09-15T21:01:27Z</time>
      </trkpt>
      <trkpt lat="46.14378" lon="4.62783">
        <ele>334</ele>
        <time>2022-09-15T21:01:32Z</time>
      </trkpt>
      <trkpt lat="46.144" lon="4.62752">
        <ele>332</ele>
        <time>2022-09-15T21:01:37Z</time>
      </trkpt>
      <trkpt lat="46.14487" lon="4.62665">
        <ele>325</ele>
        <time>2022-09-15T21:01:56Z</time>
      </trkpt>
      <trkpt lat="46.14508" lon="4.62642">
        <ele>324</ele>
        <time>2022-09-15T21:02:01Z</time>
      </trkpt>
      <trkpt lat="46.14519" lon="4.62626">
        <ele>323</ele>
        <time>2022-09-15T21:02:03Z</time>
      </trkpt>
      <trkpt lat="46.14533" lon="4.62593">
        <ele>321</ele>
        <time>2022-09-15T21:02:08Z</time>
      </trkpt>
      <trkpt lat="46.14537" lon="4.62576">
        <ele>320</ele>
        <time>2022-09-15T21:02:10Z</time>
      </trkpt>
      <trkpt lat="46.14542" lon="4.62513">
        <ele>321</ele>
        <time>2022-09-15T21:02:18Z</time>
      </trkpt>
      <trkpt lat="46.14553" lon="4.62426">
        <ele>325</ele>
        <time>2022-09-15T21:02:29Z</time>
      </trkpt>
      <trkpt lat="46.14553" lon="4.62406">
        <ele>326</ele>
        <time>2022-09-15T21:02:32Z</time>
      </trkpt>
      <trkpt lat="46.1455" lon="4.62363">
        <ele>327</ele>
        <time>2022-09-15T21:02:37Z</time>
      </trkpt>
      <trkpt lat="46.14551" lon="4.62339">
        <ele>328</ele>
        <time>2022-09-15T21:02:40Z</time>
      </trkpt>
      <trkpt lat="46.14555" lon="4.62308">
        <ele>328</ele>
        <time>2022-09-15T21:02:44Z</time>
      </trkpt>
      <trkpt lat="46.14605" lon="4.62169">
        <ele>329</ele>
        <time>2022-09-15T21:03:03Z</time>
      </trkpt>
      <trkpt lat="46.14627" lon="4.621">
        <ele>330</ele>
        <time>2022-09-15T21:03:12Z</time>
      </trkpt>
      <trkpt lat="46.14652" lon="4.61902">
        <ele>323</ele>
        <time>2022-09-15T21:03:37Z</time>
      </trkpt>
      <trkpt lat="46.1467" lon="4.61835">
        <ele>319</ele>
        <time>2022-09-15T21:03:46Z</time>
      </trkpt>
      <trkpt lat="46.14676" lon="4.61819">
        <ele>317</ele>
        <time>2022-09-15T21:03:48Z</time>
      </trkpt>
      <trkpt lat="46.14686" lon="4.61804">
        <ele>316</ele>
        <time>2022-09-15T21:03:51Z</time>
      </trkpt>
      <trkpt lat="46.14726" lon="4.61759">
        <ele>314</ele>
        <time>2022-09-15T21:04:00Z</time>
      </trkpt>
      <trkpt lat="46.14754" lon="4.61719">
        <ele>313</ele>
        <time>2022-09-15T21:04:07Z</time>
      </trkpt>
      <trkpt lat="46.1476" lon="4.61693">
        <ele>311</ele>
        <time>2022-09-15T21:04:10Z</time>
      </trkpt>
      <trkpt lat="46.14758" lon="4.61677">
        <ele>310</ele>
        <time>2022-09-15T21:04:12Z</time>
      </trkpt>
      <trkpt lat="46.1475" lon="4.61651">
        <ele>309</ele>
        <time>2022-09-15T21:04:16Z</time>
      </trkpt>
      <trkpt lat="46.14713" lon="4.61616">
        <ele>310</ele>
        <time>2022-09-15T21:04:24Z</time>
      </trkpt>
      <trkpt lat="46.14691" lon="4.61602">
        <ele>311</ele>
        <time>2022-09-15T21:04:28Z</time>
      </trkpt>
      <trkpt lat="46.14639" lon="4.61579">
        <ele>311</ele>
        <time>2022-09-15T21:04:38Z</time>
      </trkpt>
      <trkpt lat="46.14548" lon="4.61502">
        <ele>314</ele>
        <time>2022-09-15T21:04:56Z</time>
      </trkpt>
      <trkpt lat="46.14488" lon="4.61446">
        <ele>316</ele>
        <time>2022-09-15T21:05:09Z</time>
      </trkpt>
      <trkpt lat="46.14447" lon="4.61386">
        <ele>318</ele>
        <time>2022-09-15T21:05:20Z</time>
      </trkpt>
      <trkpt lat="46.14425" lon="4.61347">
        <ele>319</ele>
        <time>2022-09-15T21:05:26Z</time>
      </trkpt>
      <trkpt lat="46.14415" lon="4.6132">
        <ele>321</ele>
        <time>2022-09-15T21:05:30Z</time>
      </trkpt>
      <trkpt lat="46.14387" lon="4.61235">
        <ele>321</ele>
        <time>2022-09-15T21:05:41Z</time>
      </trkpt>
      <trkpt lat="46.1436" lon="4.61131">
        <ele>321</ele>
        <time>2022-09-15T21:05:55Z</time>
      </trkpt>
      <trkpt lat="46.14323" lon="4.61026">
        <ele>319</ele>
        <time>2022-09-15T21:06:09Z</time>
      </trkpt>
      <trkpt lat="46.1432" lon="4.60999">
        <ele>319</ele>
        <time>2022-09-15T21:06:13Z</time>
      </trkpt>
      <trkpt lat="46.14321" lon="4.60928">
        <ele>320</ele>
        <time>2022-09-15T21:06:21Z</time>
      </trkpt>
      <trkpt lat="46.14337" lon="4.6078">
        <ele>321</ele>
        <time>2022-09-15T21:06:40Z</time>
      </trkpt>
      <trkpt lat="46.14341" lon="4.6075">
        <ele>321</ele>
        <time>2022-09-15T21:06:44Z</time>
      </trkpt>
      <trkpt lat="46.14396" lon="4.60597">
        <ele>321</ele>
        <time>2022-09-15T21:07:05Z</time>
      </trkpt>
      <trkpt lat="46.144" lon="4.60576">
        <ele>320</ele>
        <time>2022-09-15T21:07:08Z</time>
      </trkpt>
      <trkpt lat="46.14403" lon="4.60503">
        <ele>317</ele>
        <time>2022-09-15T21:07:17Z</time>
      </trkpt>
      <trkpt lat="46.14409" lon="4.60449">
        <ele>314</ele>
        <time>2022-09-15T21:07:23Z</time>
      </trkpt>
      <trkpt lat="46.14422" lon="4.60405">
        <ele>312</ele>
        <time>2022-09-15T21:07:29Z</time>
      </trkpt>
      <trkpt lat="46.14437" lon="4.60376">
        <ele>310</ele>
        <time>2022-09-15T21:07:34Z</time>
      </trkpt>
      <trkpt lat="46.14536" lon="4.60247">
        <ele>303</ele>
        <time>2022-09-15T21:07:57Z</time>
      </trkpt>
      <trkpt lat="46.14623" lon="4.60156">
        <ele>299</ele>
        <time>2022-09-15T21:08:17Z</time>
      </trkpt>
      <trkpt lat="46.14653" lon="4.60132">
        <ele>298</ele>
        <time>2022-09-15T21:08:23Z</time>
      </trkpt>
      <trkpt lat="46.14671" lon="4.60123">
        <ele>298</ele>
        <time>2022-09-15T21:08:26Z</time>
      </trkpt>
      <trkpt lat="46.14702" lon="4.60104">
        <ele>296</ele>
        <time>2022-09-15T21:08:32Z</time>
      </trkpt>
      <trkpt lat="46.14718" lon="4.60087">
        <ele>294</ele>
        <time>2022-09-15T21:08:36Z</time>
      </trkpt>
      <trkpt lat="46.14748" lon="4.60025">
        <ele>292</ele>
        <time>2022-09-15T21:08:45Z</time>
      </trkpt>
      <trkpt lat="46.14766" lon="4.59991">
        <ele>292</ele>
        <time>2022-09-15T21:08:50Z</time>
      </trkpt>
      <trkpt lat="46.14778" lon="4.59979">
        <ele>294</ele>
        <time>2022-09-15T21:08:53Z</time>
      </trkpt>
      <trkpt lat="46.14795" lon="4.59968">
        <ele>296</ele>
        <time>2022-09-15T21:08:56Z</time>
      </trkpt>
      <trkpt lat="46.14818" lon="4.59943">
        <ele>297</ele>
        <time>2022-09-15T21:09:01Z</time>
      </trkpt>
      <trkpt lat="46.14829" lon="4.59918">
        <ele>296</ele>
        <time>2022-09-15T21:09:05Z</time>
      </trkpt>
      <trkpt lat="46.14848" lon="4.59852">
        <ele>296</ele>
        <time>2022-09-15T21:09:14Z</time>
      </trkpt>
      <trkpt lat="46.14867" lon="4.59771">
        <ele>294</ele>
        <time>2022-09-15T21:09:24Z</time>
      </trkpt>
      <trkpt lat="46.14879" lon="4.59737">
        <ele>294</ele>
        <time>2022-09-15T21:09:29Z</time>
      </trkpt>
      <trkpt lat="46.14919" lon="4.59656">
        <ele>293</ele>
        <time>2022-09-15T21:09:41Z</time>
      </trkpt>
      <trkpt lat="46.14915" lon="4.59654">
        <ele>292</ele>
        <time>2022-09-15T21:09:42Z</time>
      </trkpt>
      <trkpt lat="46.1492" lon="4.59631">
        <ele>292</ele>
        <time>2022-09-15T21:09:45Z</time>
      </trkpt>
      <trkpt lat="46.14964" lon="4.59534">
        <ele>292</ele>
        <time>2022-09-15T21:09:59Z</time>
      </trkpt>
      <trkpt lat="46.15008" lon="4.59405">
        <ele>292</ele>
        <time>2022-09-15T21:10:17Z</time>
      </trkpt>
      <trkpt lat="46.15027" lon="4.59428">
        <ele>292</ele>
        <time>2022-09-15T21:10:21Z</time>
      </trkpt>
      <trkpt lat="46.15008" lon="4.59405">
        <ele>292</ele>
        <time>2022-09-15T21:10:26Z</time>
      </trkpt>
      <trkpt lat="46.14964" lon="4.59534">
        <ele>292</ele>
        <time>2022-09-15T21:10:43Z</time>
      </trkpt>
      <trkpt lat="46.1492" lon="4.59631">
        <ele>292</ele>
        <time>2022-09-15T21:10:58Z</time>
      </trkpt>
      <trkpt lat="46.14915" lon="4.59654">
        <ele>292</ele>
        <time>2022-09-15T21:11:01Z</time>
      </trkpt>
      <trkpt lat="46.149" lon="4.59645">
        <ele>292</ele>
        <time>2022-09-15T21:11:04Z</time>
      </trkpt>
      <trkpt lat="46.14881" lon="4.59629">
        <ele>291</ele>
        <time>2022-09-15T21:11:08Z</time>
      </trkpt>
      <trkpt lat="46.14866" lon="4.59616">
        <ele>291</ele>
        <time>2022-09-15T21:11:11Z</time>
      </trkpt>
      <trkpt lat="46.14845" lon="4.59646">
        <ele>290</ele>
        <time>2022-09-15T21:11:16Z</time>
      </trkpt>
      <trkpt lat="46.1476" lon="4.59784">
        <ele>291</ele>
        <time>2022-09-15T21:11:39Z</time>
      </trkpt>
      <trkpt lat="46.14746" lon="4.59801">
        <ele>290</ele>
        <time>2022-09-15T21:11:42Z</time>
      </trkpt>
      <trkpt lat="46.14559" lon="4.59944">
        <ele>285</ele>
        <time>2022-09-15T21:12:20Z</time>
      </trkpt>
      <trkpt lat="46.14558" lon="4.59921">
        <ele>286</ele>
        <time>2022-09-15T21:12:22Z</time>
      </trkpt>
      <trkpt lat="46.14517" lon="4.59608">
        <ele>303</ele>
        <time>2022-09-15T21:13:02Z</time>
      </trkpt>
      <trkpt lat="46.14513" lon="4.59596">
        <ele>303</ele>
        <time>2022-09-15T21:13:03Z</time>
      </trkpt>
      <trkpt lat="46.14501" lon="4.59578">
        <ele>302</ele>
        <time>2022-09-15T21:13:06Z</time>
      </trkpt>
      <trkpt lat="46.14494" lon="4.59572">
        <ele>304</ele>
        <time>2022-09-15T21:13:08Z</time>
      </trkpt>
      <trkpt lat="46.14488" lon="4.59571">
        <ele>305</ele>
        <time>2022-09-15T21:13:09Z</time>
      </trkpt>
      <trkpt lat="46.14481" lon="4.59574">
        <ele>307</ele>
        <time>2022-09-15T21:13:10Z</time>
      </trkpt>
      <trkpt lat="46.14474" lon="4.59596">
        <ele>308</ele>
        <time>2022-09-15T21:13:13Z</time>
      </trkpt>
      <trkpt lat="46.1447" lon="4.59629">
        <ele>307</ele>
        <time>2022-09-15T21:13:17Z</time>
      </trkpt>
      <trkpt lat="46.14465" lon="4.59659">
        <ele>306</ele>
        <time>2022-09-15T21:13:21Z</time>
      </trkpt>
      <trkpt lat="46.14459" lon="4.59675">
        <ele>306</ele>
        <time>2022-09-15T21:13:23Z</time>
      </trkpt>
      <trkpt lat="46.14446" lon="4.59701">
        <ele>306</ele>
        <time>2022-09-15T21:13:27Z</time>
      </trkpt>
      <trkpt lat="46.14375" lon="4.59789">
        <ele>310</ele>
        <time>2022-09-15T21:13:44Z</time>
      </trkpt>
      <trkpt lat="46.14321" lon="4.59845">
        <ele>315</ele>
        <time>2022-09-15T21:13:56Z</time>
      </trkpt>
      <trkpt lat="46.14287" lon="4.59865">
        <ele>318</ele>
        <time>2022-09-15T21:14:02Z</time>
      </trkpt>
      <trkpt lat="46.14233" lon="4.59886">
        <ele>322</ele>
        <time>2022-09-15T21:14:12Z</time>
      </trkpt>
      <trkpt lat="46.142" lon="4.59894">
        <ele>324</ele>
        <time>2022-09-15T21:14:18Z</time>
      </trkpt>
      <trkpt lat="46.14044" lon="4.59865">
        <ele>341</ele>
        <time>2022-09-15T21:14:46Z</time>
      </trkpt>
      <trkpt lat="46.13996" lon="4.59877">
        <ele>344</ele>
        <time>2022-09-15T21:14:55Z</time>
      </trkpt>
      <trkpt lat="46.13966" lon="4.59901">
        <ele>346</ele>
        <time>2022-09-15T21:15:01Z</time>
      </trkpt>
      <trkpt lat="46.1394" lon="4.59925">
        <ele>347</ele>
        <time>2022-09-15T21:15:07Z</time>
      </trkpt>
      <trkpt lat="46.13928" lon="4.59957">
        <ele>347</ele>
        <time>2022-09-15T21:15:11Z</time>
      </trkpt>
      <trkpt lat="46.13918" lon="4.59976">
        <ele>348</ele>
        <time>2022-09-15T21:15:14Z</time>
      </trkpt>
      <trkpt lat="46.13908" lon="4.59988">
        <ele>348</ele>
        <time>2022-09-15T21:15:16Z</time>
      </trkpt>
      <trkpt lat="46.13899" lon="4.59994">
        <ele>348</ele>
        <time>2022-09-15T21:15:18Z</time>
      </trkpt>
      <trkpt lat="46.13883" lon="4.59993">
        <ele>349</ele>
        <time>2022-09-15T21:15:21Z</time>
      </trkpt>
      <trkpt lat="46.13862" lon="4.5998">
        <ele>351</ele>
        <time>2022-09-15T21:15:25Z</time>
      </trkpt>
      <trkpt lat="46.13838" lon="4.59953">
        <ele>354</ele>
        <time>2022-09-15T21:15:30Z</time>
      </trkpt>
      <trkpt lat="46.13832" lon="4.59937">
        <ele>355</ele>
        <time>2022-09-15T21:15:33Z</time>
      </trkpt>
      <trkpt lat="46.13809" lon="4.59859">
        <ele>362</ele>
        <time>2022-09-15T21:15:43Z</time>
      </trkpt>
      <trkpt lat="46.13799" lon="4.59839">
        <ele>364</ele>
        <time>2022-09-15T21:15:46Z</time>
      </trkpt>
      <trkpt lat="46.1377" lon="4.59808">
        <ele>368</ele>
        <time>2022-09-15T21:15:53Z</time>
      </trkpt>
      <trkpt lat="46.13748" lon="4.5979">
        <ele>369</ele>
        <time>2022-09-15T21:15:57Z</time>
      </trkpt>
      <trkpt lat="46.13738" lon="4.59776">
        <ele>370</ele>
        <time>2022-09-15T21:16:00Z</time>
      </trkpt>
      <trkpt lat="46.13711" lon="4.59734">
        <ele>374</ele>
        <time>2022-09-15T21:16:07Z</time>
      </trkpt>
      <trkpt lat="46.13703" lon="4.59728">
        <ele>374</ele>
        <time>2022-09-15T21:16:08Z</time>
      </trkpt>
      <trkpt lat="46.13581" lon="4.59727">
        <ele>361</ele>
        <time>2022-09-15T21:16:30Z</time>
      </trkpt>
      <trkpt lat="46.1355" lon="4.59717">
        <ele>358</ele>
        <time>2022-09-15T21:16:36Z</time>
      </trkpt>
      <trkpt lat="46.13528" lon="4.59704">
        <ele>357</ele>
        <time>2022-09-15T21:16:40Z</time>
      </trkpt>
      <trkpt lat="46.13519" lon="4.59695">
        <ele>357</ele>
        <time>2022-09-15T21:16:42Z</time>
      </trkpt>
      <trkpt lat="46.13504" lon="4.59653">
        <ele>360</ele>
        <time>2022-09-15T21:16:48Z</time>
      </trkpt>
      <trkpt lat="46.13498" lon="4.59645">
        <ele>360</ele>
        <time>2022-09-15T21:16:49Z</time>
      </trkpt>
      <trkpt lat="46.13485" lon="4.59642">
        <ele>359</ele>
        <time>2022-09-15T21:16:51Z</time>
      </trkpt>
      <trkpt lat="46.13413" lon="4.59636">
        <ele>351</ele>
        <time>2022-09-15T21:17:04Z</time>
      </trkpt>
      <trkpt lat="46.13388" lon="4.59604">
        <ele>355</ele>
        <time>2022-09-15T21:17:10Z</time>
      </trkpt>
      <trkpt lat="46.13374" lon="4.59604">
        <ele>356</ele>
        <time>2022-09-15T21:17:13Z</time>
      </trkpt>
      <trkpt lat="46.13377" lon="4.59631">
        <ele>353</ele>
        <time>2022-09-15T21:17:16Z</time>
      </trkpt>
      <trkpt lat="46.13377" lon="4.59679">
        <ele>349</ele>
        <time>2022-09-15T21:17:22Z</time>
      </trkpt>
      <trkpt lat="46.13395" lon="4.59787">
        <ele>344</ele>
        <time>2022-09-15T21:17:36Z</time>
      </trkpt>
      <trkpt lat="46.13396" lon="4.59822">
        <ele>344</ele>
        <time>2022-09-15T21:17:40Z</time>
      </trkpt>
      <trkpt lat="46.13394" lon="4.5987">
        <ele>343</ele>
        <time>2022-09-15T21:17:46Z</time>
      </trkpt>
      <trkpt lat="46.13407" lon="4.5994">
        <ele>339</ele>
        <time>2022-09-15T21:17:55Z</time>
      </trkpt>
      <trkpt lat="46.13416" lon="4.59963">
        <ele>336</ele>
        <time>2022-09-15T21:17:58Z</time>
      </trkpt>
      <trkpt lat="46.13423" lon="4.59976">
        <ele>335</ele>
        <time>2022-09-15T21:18:00Z</time>
      </trkpt>
      <trkpt lat="46.13441" lon="4.59996">
        <ele>333</ele>
        <time>2022-09-15T21:18:04Z</time>
      </trkpt>
      <trkpt lat="46.13448" lon="4.60007">
        <ele>332</ele>
        <time>2022-09-15T21:18:06Z</time>
      </trkpt>
      <trkpt lat="46.13453" lon="4.60027">
        <ele>332</ele>
        <time>2022-09-15T21:18:09Z</time>
      </trkpt>
      <trkpt lat="46.13459" lon="4.60075">
        <ele>332</ele>
        <time>2022-09-15T21:18:15Z</time>
      </trkpt>
      <trkpt lat="46.13466" lon="4.60109">
        <ele>331</ele>
        <time>2022-09-15T21:18:19Z</time>
      </trkpt>
      <trkpt lat="46.13479" lon="4.60157">
        <ele>330</ele>
        <time>2022-09-15T21:18:25Z</time>
      </trkpt>
      <trkpt lat="46.13499" lon="4.6019">
        <ele>326</ele>
        <time>2022-09-15T21:18:31Z</time>
      </trkpt>
      <trkpt lat="46.13519" lon="4.60241">
        <ele>325</ele>
        <time>2022-09-15T21:18:38Z</time>
      </trkpt>
      <trkpt lat="46.13526" lon="4.60254">
        <ele>325</ele>
        <time>2022-09-15T21:18:40Z</time>
      </trkpt>
      <trkpt lat="46.13543" lon="4.60275">
        <ele>325</ele>
        <time>2022-09-15T21:18:44Z</time>
      </trkpt>
      <trkpt lat="46.13564" lon="4.60291">
        <ele>324</ele>
        <time>2022-09-15T21:18:48Z</time>
      </trkpt>
      <trkpt lat="46.13666" lon="4.60372">
        <ele>318</ele>
        <time>2022-09-15T21:19:09Z</time>
      </trkpt>
      <trkpt lat="46.13677" lon="4.60385">
        <ele>318</ele>
        <time>2022-09-15T21:19:11Z</time>
      </trkpt>
      <trkpt lat="46.13676" lon="4.60394">
        <ele>319</ele>
        <time>2022-09-15T21:19:13Z</time>
      </trkpt>
      <trkpt lat="46.137" lon="4.60476">
        <ele>321</ele>
        <time>2022-09-15T21:19:24Z</time>
      </trkpt>
      <trkpt lat="46.13703" lon="4.60495">
        <ele>322</ele>
        <time>2022-09-15T21:19:26Z</time>
      </trkpt>
      <trkpt lat="46.13704" lon="4.6051">
        <ele>322</ele>
        <time>2022-09-15T21:19:28Z</time>
      </trkpt>
      <trkpt lat="46.13691" lon="4.60577">
        <ele>325</ele>
        <time>2022-09-15T21:19:36Z</time>
      </trkpt>
      <trkpt lat="46.1367" lon="4.60662">
        <ele>327</ele>
        <time>2022-09-15T21:19:47Z</time>
      </trkpt>
      <trkpt lat="46.1366" lon="4.60708">
        <ele>330</ele>
        <time>2022-09-15T21:19:53Z</time>
      </trkpt>
      <trkpt lat="46.1366" lon="4.60738">
        <ele>329</ele>
        <time>2022-09-15T21:19:57Z</time>
      </trkpt>
      <trkpt lat="46.13622" lon="4.60847">
        <ele>333</ele>
        <time>2022-09-15T21:20:12Z</time>
      </trkpt>
      <trkpt lat="46.13558" lon="4.60984">
        <ele>338</ele>
        <time>2022-09-15T21:20:33Z</time>
      </trkpt>
      <trkpt lat="46.13532" lon="4.61032">
        <ele>339</ele>
        <time>2022-09-15T21:20:40Z</time>
      </trkpt>
      <trkpt lat="46.13514" lon="4.61061">
        <ele>340</ele>
        <time>2022-09-15T21:20:45Z</time>
      </trkpt>
      <trkpt lat="46.1349" lon="4.61088">
        <ele>340</ele>
        <time>2022-09-15T21:20:50Z</time>
      </trkpt>
      <trkpt lat="46.13457" lon="4.61112">
        <ele>340</ele>
        <time>2022-09-15T21:20:57Z</time>
      </trkpt>
      <trkpt lat="46.13392" lon="4.61149">
        <ele>341</ele>
        <time>2022-09-15T21:21:09Z</time>
      </trkpt>
      <trkpt lat="46.1337" lon="4.61156">
        <ele>341</ele>
        <time>2022-09-15T21:21:13Z</time>
      </trkpt>
      <trkpt lat="46.13342" lon="4.6116">
        <ele>342</ele>
        <time>2022-09-15T21:21:18Z</time>
      </trkpt>
      <trkpt lat="46.13317" lon="4.61156">
        <ele>342</ele>
        <time>2022-09-15T21:21:23Z</time>
      </trkpt>
      <trkpt lat="46.13297" lon="4.61146">
        <ele>343</ele>
        <time>2022-09-15T21:21:27Z</time>
      </trkpt>
      <trkpt lat="46.13274" lon="4.61123">
        <ele>345</ele>
        <time>2022-09-15T21:21:32Z</time>
      </trkpt>
      <trkpt lat="46.13261" lon="4.61117">
        <ele>346</ele>
        <time>2022-09-15T21:21:34Z</time>
      </trkpt>
      <trkpt lat="46.13239" lon="4.61119">
        <ele>346</ele>
        <time>2022-09-15T21:21:38Z</time>
      </trkpt>
      <trkpt lat="46.13196" lon="4.61141">
        <ele>347</ele>
        <time>2022-09-15T21:21:46Z</time>
      </trkpt>
      <trkpt lat="46.13167" lon="4.61165">
        <ele>346</ele>
        <time>2022-09-15T21:21:52Z</time>
      </trkpt>
      <trkpt lat="46.13155" lon="4.61171">
        <ele>347</ele>
        <time>2022-09-15T21:21:54Z</time>
      </trkpt>
      <trkpt lat="46.13133" lon="4.61199">
        <ele>346</ele>
        <time>2022-09-15T21:21:59Z</time>
      </trkpt>
      <trkpt lat="46.13108" lon="4.61244">
        <ele>345</ele>
        <time>2022-09-15T21:22:07Z</time>
      </trkpt>
      <trkpt lat="46.13128" lon="4.61278">
        <ele>337</ele>
        <time>2022-09-15T21:22:12Z</time>
      </trkpt>
      <trkpt lat="46.13101" lon="4.61325">
        <ele>335</ele>
        <time>2022-09-15T21:22:20Z</time>
      </trkpt>
      <trkpt lat="46.13098" lon="4.61325">
        <ele>336</ele>
        <time>2022-09-15T21:22:20Z</time>
      </trkpt>
      <trkpt lat="46.13101" lon="4.61325">
        <ele>335</ele>
        <time>2022-09-15T21:22:21Z</time>
      </trkpt>
      <trkpt lat="46.13099" lon="4.61337">
        <ele>334</ele>
        <time>2022-09-15T21:22:22Z</time>
      </trkpt>
      <trkpt lat="46.13111" lon="4.61345">
        <ele>331</ele>
        <time>2022-09-15T21:22:24Z</time>
      </trkpt>
      <trkpt lat="46.13125" lon="4.61335">
        <ele>330</ele>
        <time>2022-09-15T21:22:27Z</time>
      </trkpt>
      <trkpt lat="46.13143" lon="4.6131">
        <ele>331</ele>
        <time>2022-09-15T21:22:32Z</time>
      </trkpt>
      <trkpt lat="46.13151" lon="4.61303">
        <ele>330</ele>
        <time>2022-09-15T21:22:33Z</time>
      </trkpt>
      <trkpt lat="46.13155" lon="4.61317">
        <ele>328</ele>
        <time>2022-09-15T21:22:35Z</time>
      </trkpt>
      <trkpt lat="46.13155" lon="4.61329">
        <ele>326</ele>
        <time>2022-09-15T21:22:37Z</time>
      </trkpt>
      <trkpt lat="46.13144" lon="4.61362">
        <ele>324</ele>
        <time>2022-09-15T21:22:41Z</time>
      </trkpt>
      <trkpt lat="46.13105" lon="4.61438">
        <ele>319</ele>
        <time>2022-09-15T21:22:53Z</time>
      </trkpt>
      <trkpt lat="46.13084" lon="4.61473">
        <ele>318</ele>
        <time>2022-09-15T21:22:59Z</time>
      </trkpt>
      <trkpt lat="46.13088" lon="4.61482">
        <ele>316</ele>
        <time>2022-09-15T21:23:00Z</time>
      </trkpt>
      <trkpt lat="46.13097" lon="4.61486">
        <ele>315</ele>
        <time>2022-09-15T21:23:02Z</time>
      </trkpt>
      <trkpt lat="46.13122" lon="4.61485">
        <ele>313</ele>
        <time>2022-09-15T21:23:06Z</time>
      </trkpt>
      <trkpt lat="46.13146" lon="4.6147">
        <ele>313</ele>
        <time>2022-09-15T21:23:11Z</time>
      </trkpt>
      <trkpt lat="46.13154" lon="4.61478">
        <ele>312</ele>
        <time>2022-09-15T21:23:12Z</time>
      </trkpt>
      <trkpt lat="46.13152" lon="4.61592">
        <ele>306</ele>
        <time>2022-09-15T21:23:26Z</time>
      </trkpt>
      <trkpt lat="46.13137" lon="4.61662">
        <ele>303</ele>
        <time>2022-09-15T21:23:36Z</time>
      </trkpt>
      <trkpt lat="46.13114" lon="4.61722">
        <ele>300</ele>
        <time>2022-09-15T21:23:44Z</time>
      </trkpt>
      <trkpt lat="46.1309" lon="4.61743">
        <ele>300</ele>
        <time>2022-09-15T21:23:49Z</time>
      </trkpt>
      <trkpt lat="46.13042" lon="4.61773">
        <ele>298</ele>
        <time>2022-09-15T21:23:58Z</time>
      </trkpt>
      <trkpt lat="46.13028" lon="4.61798">
        <ele>296</ele>
        <time>2022-09-15T21:24:02Z</time>
      </trkpt>
      <trkpt lat="46.13006" lon="4.61816">
        <ele>296</ele>
        <time>2022-09-15T21:24:07Z</time>
      </trkpt>
      <trkpt lat="46.12912" lon="4.6191">
        <ele>301</ele>
        <time>2022-09-15T21:24:27Z</time>
      </trkpt>
      <trkpt lat="46.12879" lon="4.61933">
        <ele>304</ele>
        <time>2022-09-15T21:24:34Z</time>
      </trkpt>
      <trkpt lat="46.12859" lon="4.61943">
        <ele>307</ele>
        <time>2022-09-15T21:24:37Z</time>
      </trkpt>
      <trkpt lat="46.12841" lon="4.61945">
        <ele>309</ele>
        <time>2022-09-15T21:24:41Z</time>
      </trkpt>
      <trkpt lat="46.12817" lon="4.6194">
        <ele>310</ele>
        <time>2022-09-15T21:24:45Z</time>
      </trkpt>
      <trkpt lat="46.12788" lon="4.61924">
        <ele>311</ele>
        <time>2022-09-15T21:24:50Z</time>
      </trkpt>
      <trkpt lat="46.12718" lon="4.61868">
        <ele>310</ele>
        <time>2022-09-15T21:25:05Z</time>
      </trkpt>
      <trkpt lat="46.12703" lon="4.61849">
        <ele>310</ele>
        <time>2022-09-15T21:25:08Z</time>
      </trkpt>
      <trkpt lat="46.12689" lon="4.61811">
        <ele>310</ele>
        <time>2022-09-15T21:25:14Z</time>
      </trkpt>
      <trkpt lat="46.12677" lon="4.61725">
        <ele>313</ele>
        <time>2022-09-15T21:25:24Z</time>
      </trkpt>
      <trkpt lat="46.12671" lon="4.6171">
        <ele>313</ele>
        <time>2022-09-15T21:25:26Z</time>
      </trkpt>
      <trkpt lat="46.12628" lon="4.61676">
        <ele>314</ele>
        <time>2022-09-15T21:25:35Z</time>
      </trkpt>
      <trkpt lat="46.12613" lon="4.61672">
        <ele>315</ele>
        <time>2022-09-15T21:25:38Z</time>
      </trkpt>
      <trkpt lat="46.12603" lon="4.61676">
        <ele>314</ele>
        <time>2022-09-15T21:25:40Z</time>
      </trkpt>
      <trkpt lat="46.12588" lon="4.61688">
        <ele>313</ele>
        <time>2022-09-15T21:25:43Z</time>
      </trkpt>
      <trkpt lat="46.12481" lon="4.61744">
        <ele>316</ele>
        <time>2022-09-15T21:26:03Z</time>
      </trkpt>
      <trkpt lat="46.12446" lon="4.61759">
        <ele>318</ele>
        <time>2022-09-15T21:26:10Z</time>
      </trkpt>
      <trkpt lat="46.12413" lon="4.61768">
        <ele>321</ele>
        <time>2022-09-15T21:26:16Z</time>
      </trkpt>
      <trkpt lat="46.12407" lon="4.61767">
        <ele>321</ele>
        <time>2022-09-15T21:26:17Z</time>
      </trkpt>
      <trkpt lat="46.12376" lon="4.6176">
        <ele>323</ele>
        <time>2022-09-15T21:26:22Z</time>
      </trkpt>
      <trkpt lat="46.12358" lon="4.61745">
        <ele>326</ele>
        <time>2022-09-15T21:26:26Z</time>
      </trkpt>
      <trkpt lat="46.12268" lon="4.61728">
        <ele>324</ele>
        <time>2022-09-15T21:26:42Z</time>
      </trkpt>
      <trkpt lat="46.12241" lon="4.61717">
        <ele>323</ele>
        <time>2022-09-15T21:26:47Z</time>
      </trkpt>
      <trkpt lat="46.12176" lon="4.61682">
        <ele>322</ele>
        <time>2022-09-15T21:26:59Z</time>
      </trkpt>
      <trkpt lat="46.12152" lon="4.61666">
        <ele>321</ele>
        <time>2022-09-15T21:27:04Z</time>
      </trkpt>
      <trkpt lat="46.12127" lon="4.61635">
        <ele>320</ele>
        <time>2022-09-15T21:27:10Z</time>
      </trkpt>
      <trkpt lat="46.12106" lon="4.61598">
        <ele>320</ele>
        <time>2022-09-15T21:27:16Z</time>
      </trkpt>
      <trkpt lat="46.12088" lon="4.61553">
        <ele>320</ele>
        <time>2022-09-15T21:27:22Z</time>
      </trkpt>
      <trkpt lat="46.12077" lon="4.61532">
        <ele>320</ele>
        <time>2022-09-15T21:27:26Z</time>
      </trkpt>
      <trkpt lat="46.1207" lon="4.61524">
        <ele>321</ele>
        <time>2022-09-15T21:27:27Z</time>
      </trkpt>
      <trkpt lat="46.12063" lon="4.61519">
        <ele>321</ele>
        <time>2022-09-15T21:27:28Z</time>
      </trkpt>
      <trkpt lat="46.12055" lon="4.61517">
        <ele>321</ele>
        <time>2022-09-15T21:27:30Z</time>
      </trkpt>
      <trkpt lat="46.12046" lon="4.61519">
        <ele>321</ele>
        <time>2022-09-15T21:27:32Z</time>
      </trkpt>
      <trkpt lat="46.12024" lon="4.61531">
        <ele>321</ele>
        <time>2022-09-15T21:27:36Z</time>
      </trkpt>
      <trkpt lat="46.12008" lon="4.61542">
        <ele>320</ele>
        <time>2022-09-15T21:27:39Z</time>
      </trkpt>
      <trkpt lat="46.11988" lon="4.61547">
        <ele>319</ele>
        <time>2022-09-15T21:27:43Z</time>
      </trkpt>
      <trkpt lat="46.11864" lon="4.61533">
        <ele>321</ele>
        <time>2022-09-15T21:28:05Z</time>
      </trkpt>
      <trkpt lat="46.11848" lon="4.61532">
        <ele>321</ele>
        <time>2022-09-15T21:28:07Z</time>
      </trkpt>
      <trkpt lat="46.11831" lon="4.61533">
        <ele>321</ele>
        <time>2022-09-15T21:28:11Z</time>
      </trkpt>
      <trkpt lat="46.11805" lon="4.61514">
        <ele>321</ele>
        <time>2022-09-15T21:28:16Z</time>
      </trkpt>
      <trkpt lat="46.11778" lon="4.61466">
        <ele>323</ele>
        <time>2022-09-15T21:28:23Z</time>
      </trkpt>
      <trkpt lat="46.1176" lon="4.61461">
        <ele>323</ele>
        <time>2022-09-15T21:28:27Z</time>
      </trkpt>
      <trkpt lat="46.11683" lon="4.61421">
        <ele>318</ele>
        <time>2022-09-15T21:28:41Z</time>
      </trkpt>
      <trkpt lat="46.11666" lon="4.61408">
        <ele>316</ele>
        <time>2022-09-15T21:28:45Z</time>
      </trkpt>
      <trkpt lat="46.11643" lon="4.61382">
        <ele>314</ele>
        <time>2022-09-15T21:28:50Z</time>
      </trkpt>
      <trkpt lat="46.11604" lon="4.61327">
        <ele>309</ele>
        <time>2022-09-15T21:28:59Z</time>
      </trkpt>
      <trkpt lat="46.11587" lon="4.61307">
        <ele>308</ele>
        <time>2022-09-15T21:29:03Z</time>
      </trkpt>
      <trkpt lat="46.11572" lon="4.61299">
        <ele>307</ele>
        <time>2022-09-15T21:29:06Z</time>
      </trkpt>
      <trkpt lat="46.11556" lon="4.61294">
        <ele>306</ele>
        <time>2022-09-15T21:29:09Z</time>
      </trkpt>
      <trkpt lat="46.11537" lon="4.61298">
        <ele>305</ele>
        <time>2022-09-15T21:29:13Z</time>
      </trkpt>
      <trkpt lat="46.11482" lon="4.61316">
        <ele>301</ele>
        <time>2022-09-15T21:29:23Z</time>
      </trkpt>
      <trkpt lat="46.11461" lon="4.61318">
        <ele>300</ele>
        <time>2022-09-15T21:29:26Z</time>
      </trkpt>
      <trkpt lat="46.1144" lon="4.61328">
        <ele>298</ele>
        <time>2022-09-15T21:29:30Z</time>
      </trkpt>
      <trkpt lat="46.1143" lon="4.6133">
        <ele>298</ele>
        <time>2022-09-15T21:29:32Z</time>
      </trkpt>
      <trkpt lat="46.11353" lon="4.61327">
        <ele>293</ele>
        <time>2022-09-15T21:29:46Z</time>
      </trkpt>
      <trkpt lat="46.11324" lon="4.61316">
        <ele>291</ele>
        <time>2022-09-15T21:29:51Z</time>
      </trkpt>
      <trkpt lat="46.11254" lon="4.61269">
        <ele>287</ele>
        <time>2022-09-15T21:30:05Z</time>
      </trkpt>
      <trkpt lat="46.11225" lon="4.61253">
        <ele>285</ele>
        <time>2022-09-15T21:30:10Z</time>
      </trkpt>
      <trkpt lat="46.11175" lon="4.61199">
        <ele>283</ele>
        <time>2022-09-15T21:30:21Z</time>
      </trkpt>
      <trkpt lat="46.11134" lon="4.61161">
        <ele>283</ele>
        <time>2022-09-15T21:30:30Z</time>
      </trkpt>
      <trkpt lat="46.11115" lon="4.61152">
        <ele>282</ele>
        <time>2022-09-15T21:30:34Z</time>
      </trkpt>
      <trkpt lat="46.11094" lon="4.61151">
        <ele>280</ele>
        <time>2022-09-15T21:30:37Z</time>
      </trkpt>
      <trkpt lat="46.1107" lon="4.61155">
        <ele>280</ele>
        <time>2022-09-15T21:30:42Z</time>
      </trkpt>
      <trkpt lat="46.11061" lon="4.61156">
        <ele>280</ele>
        <time>2022-09-15T21:30:43Z</time>
      </trkpt>
      <trkpt lat="46.11035" lon="4.6116">
        <ele>281</ele>
        <time>2022-09-15T21:30:48Z</time>
      </trkpt>
      <trkpt lat="46.10994" lon="4.61178">
        <ele>282</ele>
        <time>2022-09-15T21:30:56Z</time>
      </trkpt>
      <trkpt lat="46.10962" lon="4.61187">
        <ele>285</ele>
        <time>2022-09-15T21:31:01Z</time>
      </trkpt>
      <trkpt lat="46.10867" lon="4.61192">
        <ele>292</ele>
        <time>2022-09-15T21:31:18Z</time>
      </trkpt>
      <trkpt lat="46.10769" lon="4.61159">
        <ele>295</ele>
        <time>2022-09-15T21:31:36Z</time>
      </trkpt>
      <trkpt lat="46.10762" lon="4.61161">
        <ele>296</ele>
        <time>2022-09-15T21:31:38Z</time>
      </trkpt>
      <trkpt lat="46.10751" lon="4.61169">
        <ele>297</ele>
        <time>2022-09-15T21:31:40Z</time>
      </trkpt>
      <trkpt lat="46.10719" lon="4.61197">
        <ele>304</ele>
        <time>2022-09-15T21:31:46Z</time>
      </trkpt>
      <trkpt lat="46.10726" lon="4.61201">
        <ele>304</ele>
        <time>2022-09-15T21:31:48Z</time>
      </trkpt>
      <trkpt lat="46.1077" lon="4.61199">
        <ele>300</ele>
        <time>2022-09-15T21:31:56Z</time>
      </trkpt>
      <trkpt lat="46.108" lon="4.61206">
        <ele>299</ele>
        <time>2022-09-15T21:32:01Z</time>
      </trkpt>
      <trkpt lat="46.1086" lon="4.61234">
        <ele>297</ele>
        <time>2022-09-15T21:32:12Z</time>
      </trkpt>
      <trkpt lat="46.10881" lon="4.6125">
        <ele>297</ele>
        <time>2022-09-15T21:32:16Z</time>
      </trkpt>
      <trkpt lat="46.10944" lon="4.61329">
        <ele>297</ele>
        <time>2022-09-15T21:32:31Z</time>
      </trkpt>
      <trkpt lat="46.10986" lon="4.61394">
        <ele>295</ele>
        <time>2022-09-15T21:32:42Z</time>
      </trkpt>
      <trkpt lat="46.10994" lon="4.61412">
        <ele>294</ele>
        <time>2022-09-15T21:32:45Z</time>
      </trkpt>
      <trkpt lat="46.11028" lon="4.61505">
        <ele>295</ele>
        <time>2022-09-15T21:32:58Z</time>
      </trkpt>
      <trkpt lat="46.11098" lon="4.61736">
        <ele>296</ele>
        <time>2022-09-15T21:33:29Z</time>
      </trkpt>
      <trkpt lat="46.11145" lon="4.61935">
        <ele>289</ele>
        <time>2022-09-15T21:33:55Z</time>
      </trkpt>
      <trkpt lat="46.11149" lon="4.61968">
        <ele>287</ele>
        <time>2022-09-15T21:33:59Z</time>
      </trkpt>
      <trkpt lat="46.1115" lon="4.62">
        <ele>287</ele>
        <time>2022-09-15T21:34:03Z</time>
      </trkpt>
      <trkpt lat="46.11144" lon="4.62041">
        <ele>292</ele>
        <time>2022-09-15T21:34:08Z</time>
      </trkpt>
      <trkpt lat="46.11145" lon="4.62057">
        <ele>292</ele>
        <time>2022-09-15T21:34:10Z</time>
      </trkpt>
      <trkpt lat="46.11157" lon="4.62086">
        <ele>289</ele>
        <time>2022-09-15T21:34:14Z</time>
      </trkpt>
      <trkpt lat="46.11176" lon="4.62123">
        <ele>288</ele>
        <time>2022-09-15T21:34:20Z</time>
      </trkpt>
      <trkpt lat="46.11188" lon="4.62155">
        <ele>288</ele>
        <time>2022-09-15T21:34:24Z</time>
      </trkpt>
      <trkpt lat="46.11205" lon="4.62217">
        <ele>288</ele>
        <time>2022-09-15T21:34:33Z</time>
      </trkpt>
      <trkpt lat="46.1122" lon="4.62292">
        <ele>289</ele>
        <time>2022-09-15T21:34:42Z</time>
      </trkpt>
      <trkpt lat="46.11228" lon="4.62368">
        <ele>289</ele>
        <time>2022-09-15T21:34:52Z</time>
      </trkpt>
      <trkpt lat="46.11229" lon="4.62402">
        <ele>288</ele>
        <time>2022-09-15T21:34:56Z</time>
      </trkpt>
      <trkpt lat="46.11216" lon="4.62545">
        <ele>288</ele>
        <time>2022-09-15T21:35:14Z</time>
      </trkpt>
      <trkpt lat="46.11219" lon="4.62571">
        <ele>285</ele>
        <time>2022-09-15T21:35:17Z</time>
      </trkpt>
      <trkpt lat="46.11253" lon="4.62663">
        <ele>273</ele>
        <time>2022-09-15T21:35:30Z</time>
      </trkpt>
      <trkpt lat="46.11272" lon="4.62695">
        <ele>273</ele>
        <time>2022-09-15T21:35:35Z</time>
      </trkpt>
      <trkpt lat="46.11279" lon="4.62701">
        <ele>273</ele>
        <time>2022-09-15T21:35:36Z</time>
      </trkpt>
      <trkpt lat="46.11304" lon="4.62741">
        <ele>271</ele>
        <time>2022-09-15T21:35:43Z</time>
      </trkpt>
      <trkpt lat="46.11333" lon="4.62778">
        <ele>267</ele>
        <time>2022-09-15T21:35:50Z</time>
      </trkpt>
      <trkpt lat="46.11355" lon="4.62814">
        <ele>266</ele>
        <time>2022-09-15T21:35:56Z</time>
      </trkpt>
      <trkpt lat="46.11361" lon="4.62818">
        <ele>265</ele>
        <time>2022-09-15T21:35:57Z</time>
      </trkpt>
      <trkpt lat="46.11391" lon="4.62852">
        <ele>262</ele>
        <time>2022-09-15T21:36:04Z</time>
      </trkpt>
      <trkpt lat="46.11404" lon="4.62873">
        <ele>260</ele>
        <time>2022-09-15T21:36:07Z</time>
      </trkpt>
      <trkpt lat="46.11413" lon="4.62898">
        <ele>259</ele>
        <time>2022-09-15T21:36:11Z</time>
      </trkpt>
      <trkpt lat="46.11437" lon="4.63036">
        <ele>260</ele>
        <time>2022-09-15T21:36:28Z</time>
      </trkpt>
      <trkpt lat="46.11471" lon="4.63165">
        <ele>261</ele>
        <time>2022-09-15T21:36:45Z</time>
      </trkpt>
      <trkpt lat="46.11527" lon="4.63438">
        <ele>262</ele>
        <time>2022-09-15T21:37:21Z</time>
      </trkpt>
      <trkpt lat="46.11534" lon="4.63478">
        <ele>261</ele>
        <time>2022-09-15T21:37:26Z</time>
      </trkpt>
      <trkpt lat="46.1156" lon="4.63742">
        <ele>255</ele>
        <time>2022-09-15T21:37:59Z</time>
      </trkpt>
      <trkpt lat="46.11537" lon="4.63786">
        <ele>258</ele>
        <time>2022-09-15T21:38:05Z</time>
      </trkpt>
      <trkpt lat="46.11486" lon="4.63861">
        <ele>262</ele>
        <time>2022-09-15T21:38:18Z</time>
      </trkpt>
      <trkpt lat="46.11444" lon="4.63913">
        <ele>265</ele>
        <time>2022-09-15T21:38:28Z</time>
      </trkpt>
      <trkpt lat="46.1143" lon="4.63922">
        <ele>266</ele>
        <time>2022-09-15T21:38:31Z</time>
      </trkpt>
      <trkpt lat="46.11414" lon="4.63919">
        <ele>267</ele>
        <time>2022-09-15T21:38:34Z</time>
      </trkpt>
      <trkpt lat="46.11404" lon="4.63911">
        <ele>268</ele>
        <time>2022-09-15T21:38:36Z</time>
      </trkpt>
      <trkpt lat="46.11359" lon="4.6387">
        <ele>273</ele>
        <time>2022-09-15T21:38:45Z</time>
      </trkpt>
      <trkpt lat="46.11336" lon="4.63843">
        <ele>277</ele>
        <time>2022-09-15T21:38:51Z</time>
      </trkpt>
      <trkpt lat="46.11316" lon="4.63804">
        <ele>280</ele>
        <time>2022-09-15T21:38:56Z</time>
      </trkpt>
      <trkpt lat="46.11286" lon="4.63736">
        <ele>286</ele>
        <time>2022-09-15T21:39:06Z</time>
      </trkpt>
      <trkpt lat="46.11259" lon="4.63653">
        <ele>290</ele>
        <time>2022-09-15T21:39:18Z</time>
      </trkpt>
      <trkpt lat="46.11239" lon="4.63661">
        <ele>290</ele>
        <time>2022-09-15T21:39:21Z</time>
      </trkpt>
      <trkpt lat="46.11214" lon="4.63657">
        <ele>288</ele>
        <time>2022-09-15T21:39:26Z</time>
      </trkpt>
      <trkpt lat="46.11193" lon="4.63643">
        <ele>288</ele>
        <time>2022-09-15T21:39:30Z</time>
      </trkpt>
      <trkpt lat="46.11178" lon="4.63618">
        <ele>289</ele>
        <time>2022-09-15T21:39:34Z</time>
      </trkpt>
      <trkpt lat="46.11148" lon="4.63496">
        <ele>295</ele>
        <time>2022-09-15T21:39:50Z</time>
      </trkpt>
      <trkpt lat="46.1114" lon="4.63477">
        <ele>296</ele>
        <time>2022-09-15T21:39:53Z</time>
      </trkpt>
      <trkpt lat="46.11121" lon="4.63457">
        <ele>296</ele>
        <time>2022-09-15T21:39:57Z</time>
      </trkpt>
      <trkpt lat="46.11098" lon="4.63448">
        <ele>296</ele>
        <time>2022-09-15T21:40:01Z</time>
      </trkpt>
      <trkpt lat="46.11074" lon="4.63453">
        <ele>296</ele>
        <time>2022-09-15T21:40:06Z</time>
      </trkpt>
      <trkpt lat="46.11052" lon="4.63471">
        <ele>298</ele>
        <time>2022-09-15T21:40:10Z</time>
      </trkpt>
      <trkpt lat="46.11031" lon="4.63507">
        <ele>298</ele>
        <time>2022-09-15T21:40:16Z</time>
      </trkpt>
      <trkpt lat="46.11016" lon="4.63541">
        <ele>297</ele>
        <time>2022-09-15T21:40:21Z</time>
      </trkpt>
      <trkpt lat="46.10999" lon="4.6356">
        <ele>297</ele>
        <time>2022-09-15T21:40:25Z</time>
      </trkpt>
      <trkpt lat="46.10979" lon="4.63565">
        <ele>297</ele>
        <time>2022-09-15T21:40:28Z</time>
      </trkpt>
      <trkpt lat="46.10951" lon="4.63562">
        <ele>298</ele>
        <time>2022-09-15T21:40:33Z</time>
      </trkpt>
      <trkpt lat="46.10902" lon="4.63537">
        <ele>302</ele>
        <time>2022-09-15T21:40:43Z</time>
      </trkpt>
      <trkpt lat="46.10881" lon="4.63534">
        <ele>303</ele>
        <time>2022-09-15T21:40:46Z</time>
      </trkpt>
      <trkpt lat="46.1086" lon="4.63541">
        <ele>303</ele>
        <time>2022-09-15T21:40:50Z</time>
      </trkpt>
      <trkpt lat="46.108" lon="4.63573">
        <ele>303</ele>
        <time>2022-09-15T21:41:01Z</time>
      </trkpt>
      <trkpt lat="46.1078" lon="4.63575">
        <ele>304</ele>
        <time>2022-09-15T21:41:05Z</time>
      </trkpt>
      <trkpt lat="46.10705" lon="4.63565">
        <ele>308</ele>
        <time>2022-09-15T21:41:18Z</time>
      </trkpt>
      <trkpt lat="46.10697" lon="4.63564">
        <ele>308</ele>
        <time>2022-09-15T21:41:20Z</time>
      </trkpt>
      <trkpt lat="46.1067" lon="4.63565">
        <ele>309</ele>
        <time>2022-09-15T21:41:25Z</time>
      </trkpt>
      <trkpt lat="46.10643" lon="4.63586">
        <ele>312</ele>
        <time>2022-09-15T21:41:30Z</time>
      </trkpt>
      <trkpt lat="46.10585" lon="4.63637">
        <ele>316</ele>
        <time>2022-09-15T21:41:42Z</time>
      </trkpt>
      <trkpt lat="46.10573" lon="4.63659">
        <ele>314</ele>
        <time>2022-09-15T21:41:46Z</time>
      </trkpt>
      <trkpt lat="46.10564" lon="4.63691">
        <ele>314</ele>
        <time>2022-09-15T21:41:50Z</time>
      </trkpt>
      <trkpt lat="46.10565" lon="4.63733">
        <ele>315</ele>
        <time>2022-09-15T21:41:55Z</time>
      </trkpt>
      <trkpt lat="46.10579" lon="4.63771">
        <ele>316</ele>
        <time>2022-09-15T21:42:00Z</time>
      </trkpt>
      <trkpt lat="46.1069" lon="4.63917">
        <ele>318</ele>
        <time>2022-09-15T21:42:27Z</time>
      </trkpt>
      <trkpt lat="46.10706" lon="4.63949">
        <ele>317</ele>
        <time>2022-09-15T21:42:32Z</time>
      </trkpt>
      <trkpt lat="46.10719" lon="4.63994">
        <ele>318</ele>
        <time>2022-09-15T21:42:38Z</time>
      </trkpt>
      <trkpt lat="46.10725" lon="4.64049">
        <ele>319</ele>
        <time>2022-09-15T21:42:45Z</time>
      </trkpt>
      <trkpt lat="46.10721" lon="4.64097">
        <ele>321</ele>
        <time>2022-09-15T21:42:51Z</time>
      </trkpt>
      <trkpt lat="46.10715" lon="4.64127">
        <ele>322</ele>
        <time>2022-09-15T21:42:55Z</time>
      </trkpt>
      <trkpt lat="46.10682" lon="4.6423">
        <ele>329</ele>
        <time>2022-09-15T21:43:09Z</time>
      </trkpt>
      <trkpt lat="46.10673" lon="4.64284">
        <ele>330</ele>
        <time>2022-09-15T21:43:16Z</time>
      </trkpt>
      <trkpt lat="46.10667" lon="4.64318">
        <ele>331</ele>
        <time>2022-09-15T21:43:20Z</time>
      </trkpt>
      <trkpt lat="46.1065" lon="4.64318">
        <ele>332</ele>
        <time>2022-09-15T21:43:23Z</time>
      </trkpt>
      <trkpt lat="46.10624" lon="4.64323">
        <ele>333</ele>
        <time>2022-09-15T21:43:28Z</time>
      </trkpt>
      <trkpt lat="46.10531" lon="4.64328">
        <ele>334</ele>
        <time>2022-09-15T21:43:44Z</time>
      </trkpt>
      <trkpt lat="46.10489" lon="4.64315">
        <ele>333</ele>
        <time>2022-09-15T21:43:52Z</time>
      </trkpt>
      <trkpt lat="46.10386" lon="4.64267">
        <ele>329</ele>
        <time>2022-09-15T21:44:11Z</time>
      </trkpt>
      <trkpt lat="46.10351" lon="4.64256">
        <ele>328</ele>
        <time>2022-09-15T21:44:17Z</time>
      </trkpt>
      <trkpt lat="46.10333" lon="4.64254">
        <ele>327</ele>
        <time>2022-09-15T21:44:21Z</time>
      </trkpt>
      <trkpt lat="46.10311" lon="4.64258">
        <ele>326</ele>
        <time>2022-09-15T21:44:25Z</time>
      </trkpt>
      <trkpt lat="46.10236" lon="4.64292">
        <ele>323</ele>
        <time>2022-09-15T21:44:39Z</time>
      </trkpt>
      <trkpt lat="46.10189" lon="4.64308">
        <ele>321</ele>
        <time>2022-09-15T21:44:47Z</time>
      </trkpt>
      <trkpt lat="46.10036" lon="4.64324">
        <ele>320</ele>
        <time>2022-09-15T21:45:14Z</time>
      </trkpt>
      <trkpt lat="46.10021" lon="4.64323">
        <ele>320</ele>
        <time>2022-09-15T21:45:17Z</time>
      </trkpt>
      <trkpt lat="46.10004" lon="4.64317">
        <ele>320</ele>
        <time>2022-09-15T21:45:20Z</time>
      </trkpt>
      <trkpt lat="46.09994" lon="4.64308">
        <ele>319</ele>
        <time>2022-09-15T21:45:22Z</time>
      </trkpt>
      <trkpt lat="46.09983" lon="4.64293">
        <ele>319</ele>
        <time>2022-09-15T21:45:25Z</time>
      </trkpt>
      <trkpt lat="46.09973" lon="4.64268">
        <ele>318</ele>
        <time>2022-09-15T21:45:29Z</time>
      </trkpt>
      <trkpt lat="46.09952" lon="4.64187">
        <ele>317</ele>
        <time>2022-09-15T21:45:39Z</time>
      </trkpt>
      <trkpt lat="46.09936" lon="4.64137">
        <ele>317</ele>
        <time>2022-09-15T21:45:46Z</time>
      </trkpt>
      <trkpt lat="46.09918" lon="4.64092">
        <ele>316</ele>
        <time>2022-09-15T21:45:52Z</time>
      </trkpt>
      <trkpt lat="46.09899" lon="4.64054">
        <ele>318</ele>
        <time>2022-09-15T21:45:58Z</time>
      </trkpt>
      <trkpt lat="46.09891" lon="4.64041">
        <ele>319</ele>
        <time>2022-09-15T21:46:00Z</time>
      </trkpt>
      <trkpt lat="46.09871" lon="4.64027">
        <ele>320</ele>
        <time>2022-09-15T21:46:04Z</time>
      </trkpt>
      <trkpt lat="46.0986" lon="4.64025">
        <ele>320</ele>
        <time>2022-09-15T21:46:06Z</time>
      </trkpt>
      <trkpt lat="46.09847" lon="4.64027">
        <ele>320</ele>
        <time>2022-09-15T21:46:09Z</time>
      </trkpt>
      <trkpt lat="46.09835" lon="4.64038">
        <ele>318</ele>
        <time>2022-09-15T21:46:11Z</time>
      </trkpt>
      <trkpt lat="46.09829" lon="4.64047">
        <ele>319</ele>
        <time>2022-09-15T21:46:13Z</time>
      </trkpt>
      <trkpt lat="46.0982" lon="4.64078">
        <ele>318</ele>
        <time>2022-09-15T21:46:17Z</time>
      </trkpt>
      <trkpt lat="46.09792" lon="4.64211">
        <ele>316</ele>
        <time>2022-09-15T21:46:34Z</time>
      </trkpt>
      <trkpt lat="46.09788" lon="4.64238">
        <ele>314</ele>
        <time>2022-09-15T21:46:37Z</time>
      </trkpt>
      <trkpt lat="46.09778" lon="4.64343">
        <ele>312</ele>
        <time>2022-09-15T21:46:51Z</time>
      </trkpt>
      <trkpt lat="46.09772" lon="4.6439">
        <ele>311</ele>
        <time>2022-09-15T21:46:56Z</time>
      </trkpt>
      <trkpt lat="46.09764" lon="4.64422">
        <ele>310</ele>
        <time>2022-09-15T21:47:01Z</time>
      </trkpt>
      <trkpt lat="46.09754" lon="4.64454">
        <ele>310</ele>
        <time>2022-09-15T21:47:05Z</time>
      </trkpt>
      <trkpt lat="46.09741" lon="4.64479">
        <ele>310</ele>
        <time>2022-09-15T21:47:09Z</time>
      </trkpt>
      <trkpt lat="46.09722" lon="4.64507">
        <ele>312</ele>
        <time>2022-09-15T21:47:14Z</time>
      </trkpt>
      <trkpt lat="46.097" lon="4.64529">
        <ele>314</ele>
        <time>2022-09-15T21:47:18Z</time>
      </trkpt>
      <trkpt lat="46.09637" lon="4.64573">
        <ele>317</ele>
        <time>2022-09-15T21:47:31Z</time>
      </trkpt>
      <trkpt lat="46.09618" lon="4.64583">
        <ele>317</ele>
        <time>2022-09-15T21:47:34Z</time>
      </trkpt>
      <trkpt lat="46.09603" lon="4.64589">
        <ele>318</ele>
        <time>2022-09-15T21:47:37Z</time>
      </trkpt>
      <trkpt lat="46.09601" lon="4.64615">
        <ele>317</ele>
        <time>2022-09-15T21:47:40Z</time>
      </trkpt>
      <trkpt lat="46.09556" lon="4.65029">
        <ele>299</ele>
        <time>2022-09-15T21:48:32Z</time>
      </trkpt>
      <trkpt lat="46.09559" lon="4.65066">
        <ele>297</ele>
        <time>2022-09-15T21:48:37Z</time>
      </trkpt>
      <trkpt lat="46.09573" lon="4.65134">
        <ele>295</ele>
        <time>2022-09-15T21:48:45Z</time>
      </trkpt>
      <trkpt lat="46.09577" lon="4.65179">
        <ele>293</ele>
        <time>2022-09-15T21:48:51Z</time>
      </trkpt>
      <trkpt lat="46.09576" lon="4.65233">
        <ele>292</ele>
        <time>2022-09-15T21:48:58Z</time>
      </trkpt>
      <trkpt lat="46.09571" lon="4.65313">
        <ele>290</ele>
        <time>2022-09-15T21:49:08Z</time>
      </trkpt>
      <trkpt lat="46.09573" lon="4.65316">
        <ele>290</ele>
        <time>2022-09-15T21:49:08Z</time>
      </trkpt>
      <trkpt lat="46.09526" lon="4.65575">
        <ele>288</ele>
        <time>2022-09-15T21:49:41Z</time>
      </trkpt>
      <trkpt lat="46.09505" lon="4.6566">
        <ele>291</ele>
        <time>2022-09-15T21:49:52Z</time>
      </trkpt>
      <trkpt lat="46.09501" lon="4.65694">
        <ele>290</ele>
        <time>2022-09-15T21:49:57Z</time>
      </trkpt>
      <trkpt lat="46.09433" lon="4.65651">
        <ele>293</ele>
        <time>2022-09-15T21:50:10Z</time>
      </trkpt>
      <trkpt lat="46.09328" lon="4.65607">
        <ele>289</ele>
        <time>2022-09-15T21:50:29Z</time>
      </trkpt>
      <trkpt lat="46.09261" lon="4.6558">
        <ele>283</ele>
        <time>2022-09-15T21:50:42Z</time>
      </trkpt>
      <trkpt lat="46.09229" lon="4.65656">
        <ele>284</ele>
        <time>2022-09-15T21:50:53Z</time>
      </trkpt>
      <trkpt lat="46.09203" lon="4.65707">
        <ele>285</ele>
        <time>2022-09-15T21:51:00Z</time>
      </trkpt>
      <trkpt lat="46.09195" lon="4.65719">
        <ele>285</ele>
        <time>2022-09-15T21:51:02Z</time>
      </trkpt>
      <trkpt lat="46.09184" lon="4.65729">
        <ele>285</ele>
        <time>2022-09-15T21:51:05Z</time>
      </trkpt>
      <trkpt lat="46.09088" lon="4.65787">
        <ele>282</ele>
        <time>2022-09-15T21:51:23Z</time>
      </trkpt>
      <trkpt lat="46.08995" lon="4.65783">
        <ele>281</ele>
        <time>2022-09-15T21:51:40Z</time>
      </trkpt>
      <trkpt lat="46.08987" lon="4.65791">
        <ele>280</ele>
        <time>2022-09-15T21:51:42Z</time>
      </trkpt>
      <trkpt lat="46.08966" lon="4.65829">
        <ele>279</ele>
        <time>2022-09-15T21:51:48Z</time>
      </trkpt>
      <trkpt lat="46.08954" lon="4.658">
        <ele>278</ele>
        <time>2022-09-15T21:51:52Z</time>
      </trkpt>
      <trkpt lat="46.08941" lon="4.65779">
        <ele>277</ele>
        <time>2022-09-15T21:51:55Z</time>
      </trkpt>
      <trkpt lat="46.08931" lon="4.65755">
        <ele>275</ele>
        <time>2022-09-15T21:51:59Z</time>
      </trkpt>
      <trkpt lat="46.08921" lon="4.65749">
        <ele>274</ele>
        <time>2022-09-15T21:52:01Z</time>
      </trkpt>
      <trkpt lat="46.08877" lon="4.65746">
        <ele>270</ele>
        <time>2022-09-15T21:52:08Z</time>
      </trkpt>
      <trkpt lat="46.0885" lon="4.6575">
        <ele>267</ele>
        <time>2022-09-15T21:52:13Z</time>
      </trkpt>
      <trkpt lat="46.08835" lon="4.65731">
        <ele>265</ele>
        <time>2022-09-15T21:52:17Z</time>
      </trkpt>
      <trkpt lat="46.08774" lon="4.65548">
        <ele>273</ele>
        <time>2022-09-15T21:52:42Z</time>
      </trkpt>
      <trkpt lat="46.08758" lon="4.65494">
        <ele>275</ele>
        <time>2022-09-15T21:52:49Z</time>
      </trkpt>
      <trkpt lat="46.08768" lon="4.65453">
        <ele>275</ele>
        <time>2022-09-15T21:52:55Z</time>
      </trkpt>
      <trkpt lat="46.08752" lon="4.65452">
        <ele>276</ele>
        <time>2022-09-15T21:52:57Z</time>
      </trkpt>
      <trkpt lat="46.08706" lon="4.65423">
        <ele>276</ele>
        <time>2022-09-15T21:53:06Z</time>
      </trkpt>
      <trkpt lat="46.08546" lon="4.65373">
        <ele>280</ele>
        <time>2022-09-15T21:53:35Z</time>
      </trkpt>
      <trkpt lat="46.08573" lon="4.65324">
        <ele>278</ele>
        <time>2022-09-15T21:53:43Z</time>
      </trkpt>
      <trkpt lat="46.08575" lon="4.65297">
        <ele>278</ele>
        <time>2022-09-15T21:53:46Z</time>
      </trkpt>
      <trkpt lat="46.08555" lon="4.65204">
        <ele>278</ele>
        <time>2022-09-15T21:53:59Z</time>
      </trkpt>
      <trkpt lat="46.08521" lon="4.65101">
        <ele>280</ele>
        <time>2022-09-15T21:54:13Z</time>
      </trkpt>
      <trkpt lat="46.08507" lon="4.651">
        <ele>280</ele>
        <time>2022-09-15T21:54:15Z</time>
      </trkpt>
      <trkpt lat="46.08487" lon="4.65113">
        <ele>280</ele>
        <time>2022-09-15T21:54:19Z</time>
      </trkpt>
      <trkpt lat="46.08428" lon="4.65163">
        <ele>278</ele>
        <time>2022-09-15T21:54:31Z</time>
      </trkpt>
      <trkpt lat="46.08366" lon="4.65225">
        <ele>276</ele>
        <time>2022-09-15T21:54:45Z</time>
      </trkpt>
      <trkpt lat="46.08326" lon="4.65231">
        <ele>275</ele>
        <time>2022-09-15T21:54:52Z</time>
      </trkpt>
      <trkpt lat="46.08225" lon="4.65222">
        <ele>275</ele>
        <time>2022-09-15T21:55:10Z</time>
      </trkpt>
      <trkpt lat="46.08141" lon="4.65392">
        <ele>268</ele>
        <time>2022-09-15T21:55:36Z</time>
      </trkpt>
      <trkpt lat="46.08131" lon="4.65416">
        <ele>267</ele>
        <time>2022-09-15T21:55:39Z</time>
      </trkpt>
      <trkpt lat="46.08113" lon="4.6547">
        <ele>266</ele>
        <time>2022-09-15T21:55:46Z</time>
      </trkpt>
      <trkpt lat="46.08089" lon="4.65567">
        <ele>263</ele>
        <time>2022-09-15T21:55:59Z</time>
      </trkpt>
      <trkpt lat="46.08074" lon="4.65634">
        <ele>261</ele>
        <time>2022-09-15T21:56:08Z</time>
      </trkpt>
      <trkpt lat="46.08048" lon="4.65729">
        <ele>260</ele>
        <time>2022-09-15T21:56:20Z</time>
      </trkpt>
      <trkpt lat="46.08048" lon="4.65737">
        <ele>260</ele>
        <time>2022-09-15T21:56:21Z</time>
      </trkpt>
      <trkpt lat="46.08048" lon="4.65735">
        <ele>260</ele>
        <time>2022-09-15T18:29:05Z</time>
      </trkpt>
      <trkpt lat="46.08048" lon="4.65729">
        <ele>260</ele>
        <time>2022-09-15T18:29:06Z</time>
      </trkpt>
      <trkpt lat="46.08043" lon="4.65729">
        <ele>260</ele>
        <time>2022-09-15T18:29:07Z</time>
      </trkpt>
      <trkpt lat="46.07986" lon="4.65642">
        <ele>260</ele>
        <time>2022-09-15T18:29:21Z</time>
      </trkpt>
      <trkpt lat="46.07954" lon="4.65555">
        <ele>260</ele>
        <time>2022-09-15T18:29:34Z</time>
      </trkpt>
      <trkpt lat="46.07941" lon="4.65503">
        <ele>260</ele>
        <time>2022-09-15T18:29:40Z</time>
      </trkpt>
      <trkpt lat="46.07938" lon="4.6547">
        <ele>260</ele>
        <time>2022-09-15T18:29:44Z</time>
      </trkpt>
      <trkpt lat="46.07935" lon="4.65348">
        <ele>261</ele>
        <time>2022-09-15T18:30:00Z</time>
      </trkpt>
      <trkpt lat="46.0785" lon="4.65362">
        <ele>259</ele>
        <time>2022-09-15T18:30:15Z</time>
      </trkpt>
      <trkpt lat="46.07843" lon="4.65362">
        <ele>259</ele>
        <time>2022-09-15T18:30:16Z</time>
      </trkpt>
      <trkpt lat="46.07831" lon="4.65354">
        <ele>259</ele>
        <time>2022-09-15T18:30:18Z</time>
      </trkpt>
      <trkpt lat="46.07819" lon="4.6534">
        <ele>259</ele>
        <time>2022-09-15T18:30:21Z</time>
      </trkpt>
      <trkpt lat="46.07803" lon="4.65319">
        <ele>260</ele>
        <time>2022-09-15T18:30:25Z</time>
      </trkpt>
      <trkpt lat="46.07771" lon="4.65281">
        <ele>261</ele>
        <time>2022-09-15T18:30:32Z</time>
      </trkpt>
      <trkpt lat="46.07756" lon="4.65269">
        <ele>262</ele>
        <time>2022-09-15T18:30:35Z</time>
      </trkpt>
      <trkpt lat="46.07732" lon="4.65255">
        <ele>263</ele>
        <time>2022-09-15T18:30:40Z</time>
      </trkpt>
      <trkpt lat="46.07715" lon="4.65251">
        <ele>264</ele>
        <time>2022-09-15T18:30:43Z</time>
      </trkpt>
      <trkpt lat="46.0769" lon="4.65252">
        <ele>265</ele>
        <time>2022-09-15T18:30:48Z</time>
      </trkpt>
      <trkpt lat="46.07518" lon="4.65298">
        <ele>277</ele>
        <time>2022-09-15T18:31:19Z</time>
      </trkpt>
      <trkpt lat="46.07475" lon="4.65302">
        <ele>278</ele>
        <time>2022-09-15T18:31:26Z</time>
      </trkpt>
      <trkpt lat="46.07458" lon="4.65306">
        <ele>278</ele>
        <time>2022-09-15T18:31:29Z</time>
      </trkpt>
      <trkpt lat="46.07457" lon="4.65305">
        <ele>278</ele>
        <time>2022-09-15T18:31:30Z</time>
      </trkpt>
      <trkpt lat="46.07458" lon="4.65306">
        <ele>278</ele>
        <time>2022-09-15T18:31:30Z</time>
      </trkpt>
      <trkpt lat="46.07467" lon="4.6558">
        <ele>273</ele>
        <time>2022-09-15T18:32:04Z</time>
      </trkpt>
      <trkpt lat="46.07466" lon="4.65599">
        <ele>274</ele>
        <time>2022-09-15T18:32:06Z</time>
      </trkpt>
      <trkpt lat="46.07455" lon="4.65628">
        <ele>274</ele>
        <time>2022-09-15T18:32:10Z</time>
      </trkpt>
      <trkpt lat="46.07418" lon="4.65689">
        <ele>276</ele>
        <time>2022-09-15T18:32:20Z</time>
      </trkpt>
      <trkpt lat="46.07392" lon="4.65738">
        <ele>276</ele>
        <time>2022-09-15T18:32:28Z</time>
      </trkpt>
      <trkpt lat="46.07376" lon="4.65774">
        <ele>276</ele>
        <time>2022-09-15T18:32:33Z</time>
      </trkpt>
      <trkpt lat="46.07335" lon="4.65835">
        <ele>276</ele>
        <time>2022-09-15T18:32:43Z</time>
      </trkpt>
      <trkpt lat="46.07274" lon="4.65953">
        <ele>280</ele>
        <time>2022-09-15T18:33:02Z</time>
      </trkpt>
      <trkpt lat="46.07236" lon="4.65991">
        <ele>279</ele>
        <time>2022-09-15T18:33:10Z</time>
      </trkpt>
      <trkpt lat="46.07143" lon="4.66033">
        <ele>272</ele>
        <time>2022-09-15T18:33:27Z</time>
      </trkpt>
      <trkpt lat="46.07127" lon="4.66043">
        <ele>271</ele>
        <time>2022-09-15T18:33:30Z</time>
      </trkpt>
      <trkpt lat="46.071" lon="4.66076">
        <ele>269</ele>
        <time>2022-09-15T18:33:37Z</time>
      </trkpt>
      <trkpt lat="46.07059" lon="4.66176">
        <ele>268</ele>
        <time>2022-09-15T18:33:51Z</time>
      </trkpt>
      <trkpt lat="46.06997" lon="4.66291">
        <ele>263</ele>
        <time>2022-09-15T18:34:09Z</time>
      </trkpt>
      <trkpt lat="46.06982" lon="4.66324">
        <ele>261</ele>
        <time>2022-09-15T18:34:14Z</time>
      </trkpt>
      <trkpt lat="46.0697" lon="4.66384">
        <ele>258</ele>
        <time>2022-09-15T18:34:22Z</time>
      </trkpt>
      <trkpt lat="46.06968" lon="4.6647">
        <ele>256</ele>
        <time>2022-09-15T18:34:32Z</time>
      </trkpt>
      <trkpt lat="46.06963" lon="4.66508">
        <ele>254</ele>
        <time>2022-09-15T18:34:37Z</time>
      </trkpt>
      <trkpt lat="46.06944" lon="4.66584">
        <ele>251</ele>
        <time>2022-09-15T18:34:47Z</time>
      </trkpt>
      <trkpt lat="46.06933" lon="4.66618">
        <ele>250</ele>
        <time>2022-09-15T18:34:52Z</time>
      </trkpt>
      <trkpt lat="46.06773" lon="4.66722">
        <ele>235</ele>
        <time>2022-09-15T18:35:23Z</time>
      </trkpt>
      <trkpt lat="46.0676" lon="4.66738">
        <ele>235</ele>
        <time>2022-09-15T18:35:26Z</time>
      </trkpt>
      <trkpt lat="46.06634" lon="4.66931">
        <ele>225</ele>
        <time>2022-09-15T18:35:58Z</time>
      </trkpt>
      <trkpt lat="46.06628" lon="4.66906">
        <ele>225</ele>
        <time>2022-09-15T18:36:02Z</time>
      </trkpt>
      <trkpt lat="46.06623" lon="4.66872">
        <ele>225</ele>
        <time>2022-09-15T18:36:06Z</time>
      </trkpt>
      <trkpt lat="46.06605" lon="4.66878">
        <ele>225</ele>
        <time>2022-09-15T18:36:09Z</time>
      </trkpt>
      <trkpt lat="46.0653" lon="4.66923">
        <ele>228</ele>
        <time>2022-09-15T18:36:24Z</time>
      </trkpt>
      <trkpt lat="46.06481" lon="4.6697">
        <ele>230</ele>
        <time>2022-09-15T18:36:34Z</time>
      </trkpt>
      <trkpt lat="46.06375" lon="4.67112">
        <ele>225</ele>
        <time>2022-09-15T18:37:00Z</time>
      </trkpt>
      <trkpt lat="46.06307" lon="4.67198">
        <ele>222</ele>
        <time>2022-09-15T18:37:16Z</time>
      </trkpt>
      <trkpt lat="46.06283" lon="4.67215">
        <ele>222</ele>
        <time>2022-09-15T18:37:21Z</time>
      </trkpt>
      <trkpt lat="46.06221" lon="4.67222">
        <ele>222</ele>
        <time>2022-09-15T18:37:32Z</time>
      </trkpt>
      <trkpt lat="46.06172" lon="4.67223">
        <ele>221</ele>
        <time>2022-09-15T18:37:41Z</time>
      </trkpt>
      <trkpt lat="46.0614" lon="4.67238">
        <ele>221</ele>
        <time>2022-09-15T18:37:47Z</time>
      </trkpt>
      <trkpt lat="46.06095" lon="4.67271">
        <ele>219</ele>
        <time>2022-09-15T18:37:56Z</time>
      </trkpt>
      <trkpt lat="46.0605" lon="4.67295">
        <ele>217</ele>
        <time>2022-09-15T18:38:04Z</time>
      </trkpt>
      <trkpt lat="46.06024" lon="4.67298">
        <ele>217</ele>
        <time>2022-09-15T18:38:09Z</time>
      </trkpt>
      <trkpt lat="46.0599" lon="4.67311">
        <ele>215</ele>
        <time>2022-09-15T18:38:15Z</time>
      </trkpt>
      <trkpt lat="46.05948" lon="4.67339">
        <ele>215</ele>
        <time>2022-09-15T18:38:23Z</time>
      </trkpt>
      <trkpt lat="46.05942" lon="4.67347">
        <ele>215</ele>
        <time>2022-09-15T18:38:25Z</time>
      </trkpt>
      <trkpt lat="46.05929" lon="4.67362">
        <ele>214</ele>
        <time>2022-09-15T18:38:28Z</time>
      </trkpt>
      <trkpt lat="46.05879" lon="4.67414">
        <ele>213</ele>
        <time>2022-09-15T18:38:39Z</time>
      </trkpt>
      <trkpt lat="46.05832" lon="4.67468">
        <ele>213</ele>
        <time>2022-09-15T18:38:49Z</time>
      </trkpt>
      <trkpt lat="46.0581" lon="4.67475">
        <ele>213</ele>
        <time>2022-09-15T18:38:53Z</time>
      </trkpt>
      <trkpt lat="46.05759" lon="4.67477">
        <ele>212</ele>
        <time>2022-09-15T18:39:02Z</time>
      </trkpt>
      <trkpt lat="46.05736" lon="4.67482">
        <ele>212</ele>
        <time>2022-09-15T18:39:07Z</time>
      </trkpt>
      <trkpt lat="46.05719" lon="4.67481">
        <ele>213</ele>
        <time>2022-09-15T18:39:10Z</time>
      </trkpt>
      <trkpt lat="46.05673" lon="4.67472">
        <ele>214</ele>
        <time>2022-09-15T18:39:18Z</time>
      </trkpt>
      <trkpt lat="46.05625" lon="4.67478">
        <ele>214</ele>
        <time>2022-09-15T18:39:26Z</time>
      </trkpt>
      <trkpt lat="46.0556" lon="4.6749">
        <ele>214</ele>
        <time>2022-09-15T18:39:38Z</time>
      </trkpt>
      <trkpt lat="46.05503" lon="4.67527">
        <ele>213</ele>
        <time>2022-09-15T18:39:49Z</time>
      </trkpt>
      <trkpt lat="46.05486" lon="4.67536">
        <ele>213</ele>
        <time>2022-09-15T18:39:52Z</time>
      </trkpt>
      <trkpt lat="46.0544" lon="4.67546">
        <ele>213</ele>
        <time>2022-09-15T18:40:01Z</time>
      </trkpt>
      <trkpt lat="46.05424" lon="4.67545">
        <ele>213</ele>
        <time>2022-09-15T18:40:04Z</time>
      </trkpt>
      <trkpt lat="46.05342" lon="4.6751">
        <ele>214</ele>
        <time>2022-09-15T18:40:19Z</time>
      </trkpt>
      <trkpt lat="46.05326" lon="4.67497">
        <ele>214</ele>
        <time>2022-09-15T18:40:22Z</time>
      </trkpt>
      <trkpt lat="46.05315" lon="4.67485">
        <ele>214</ele>
        <time>2022-09-15T18:40:25Z</time>
      </trkpt>
      <trkpt lat="46.05312" lon="4.67496">
        <ele>214</ele>
        <time>2022-09-15T18:40:26Z</time>
      </trkpt>
      <trkpt lat="46.05239" lon="4.67662">
        <ele>213</ele>
        <time>2022-09-15T18:40:50Z</time>
      </trkpt>
      <trkpt lat="46.05219" lon="4.67715">
        <ele>213</ele>
        <time>2022-09-15T18:40:58Z</time>
      </trkpt>
      <trkpt lat="46.05134" lon="4.68042">
        <ele>213</ele>
        <time>2022-09-15T18:41:41Z</time>
      </trkpt>
      <trkpt lat="46.05105" lon="4.6816">
        <ele>213</ele>
        <time>2022-09-15T18:41:56Z</time>
      </trkpt>
      <trkpt lat="46.05099" lon="4.68165">
        <ele>213</ele>
        <time>2022-09-15T18:41:58Z</time>
      </trkpt>
      <trkpt lat="46.05103" lon="4.68177">
        <ele>213</ele>
        <time>2022-09-15T18:41:59Z</time>
      </trkpt>
      <trkpt lat="46.05043" lon="4.68209">
        <ele>213</ele>
        <time>2022-09-15T18:42:11Z</time>
      </trkpt>
      <trkpt lat="46.05016" lon="4.68233">
        <ele>213</ele>
        <time>2022-09-15T18:42:16Z</time>
      </trkpt>
      <trkpt lat="46.05004" lon="4.6824">
        <ele>213</ele>
        <time>2022-09-15T18:42:19Z</time>
      </trkpt>
      <trkpt lat="46.04959" lon="4.68262">
        <ele>212</ele>
        <time>2022-09-15T18:42:27Z</time>
      </trkpt>
      <trkpt lat="46.04904" lon="4.68308">
        <ele>212</ele>
        <time>2022-09-15T18:42:38Z</time>
      </trkpt>
      <trkpt lat="46.048" lon="4.68389">
        <ele>212</ele>
        <time>2022-09-15T18:42:59Z</time>
      </trkpt>
      <trkpt lat="46.04777" lon="4.68405">
        <ele>211</ele>
        <time>2022-09-15T18:43:04Z</time>
      </trkpt>
      <trkpt lat="46.04753" lon="4.68439">
        <ele>211</ele>
        <time>2022-09-15T18:43:10Z</time>
      </trkpt>
      <trkpt lat="46.04665" lon="4.68579">
        <ele>212</ele>
        <time>2022-09-15T18:43:33Z</time>
      </trkpt>
      <trkpt lat="46.04619" lon="4.68658">
        <ele>213</ele>
        <time>2022-09-15T18:43:46Z</time>
      </trkpt>
      <trkpt lat="46.04562" lon="4.68796">
        <ele>211</ele>
        <time>2022-09-15T18:44:06Z</time>
      </trkpt>
      <trkpt lat="46.04584" lon="4.68862">
        <ele>212</ele>
        <time>2022-09-15T18:44:15Z</time>
      </trkpt>
      <trkpt lat="46.04643" lon="4.6901">
        <ele>210</ele>
        <time>2022-09-15T18:44:36Z</time>
      </trkpt>
      <trkpt lat="46.04663" lon="4.69055">
        <ele>211</ele>
        <time>2022-09-15T18:44:42Z</time>
      </trkpt>
      <trkpt lat="46.04669" lon="4.69076">
        <ele>211</ele>
        <time>2022-09-15T18:44:45Z</time>
      </trkpt>
      <trkpt lat="46.04671" lon="4.69097">
        <ele>211</ele>
        <time>2022-09-15T18:44:48Z</time>
      </trkpt>
      <trkpt lat="46.04671" lon="4.69123">
        <ele>211</ele>
        <time>2022-09-15T18:44:51Z</time>
      </trkpt>
      <trkpt lat="46.04663" lon="4.69283">
        <ele>211</ele>
        <time>2022-09-15T18:45:11Z</time>
      </trkpt>
      <trkpt lat="46.0467" lon="4.69321">
        <ele>211</ele>
        <time>2022-09-15T18:45:16Z</time>
      </trkpt>
      <trkpt lat="46.04686" lon="4.69375">
        <ele>211</ele>
        <time>2022-09-15T18:45:23Z</time>
      </trkpt>
      <trkpt lat="46.04695" lon="4.69415">
        <ele>210</ele>
        <time>2022-09-15T18:45:28Z</time>
      </trkpt>
      <trkpt lat="46.04697" lon="4.69434">
        <ele>210</ele>
        <time>2022-09-15T18:45:31Z</time>
      </trkpt>
      <trkpt lat="46.04693" lon="4.69535">
        <ele>208</ele>
        <time>2022-09-15T18:45:43Z</time>
      </trkpt>
      <trkpt lat="46.04703" lon="4.69633">
        <ele>206</ele>
        <time>2022-09-15T18:45:55Z</time>
      </trkpt>
      <trkpt lat="46.04722" lon="4.69707">
        <ele>205</ele>
        <time>2022-09-15T18:46:05Z</time>
      </trkpt>
      <trkpt lat="46.04786" lon="4.69781">
        <ele>206</ele>
        <time>2022-09-15T18:46:20Z</time>
      </trkpt>
      <trkpt lat="46.04793" lon="4.69805">
        <ele>206</ele>
        <time>2022-09-15T18:46:23Z</time>
      </trkpt>
      <trkpt lat="46.04791" lon="4.69838">
        <ele>206</ele>
        <time>2022-09-15T18:46:27Z</time>
      </trkpt>
      <trkpt lat="46.04708" lon="4.69842">
        <ele>204</ele>
        <time>2022-09-15T18:46:42Z</time>
      </trkpt>
      <trkpt lat="46.04681" lon="4.69838">
        <ele>203</ele>
        <time>2022-09-15T18:46:47Z</time>
      </trkpt>
      <trkpt lat="46.04651" lon="4.69829">
        <ele>202</ele>
        <time>2022-09-15T18:46:52Z</time>
      </trkpt>
      <trkpt lat="46.04554" lon="4.69794">
        <ele>200</ele>
        <time>2022-09-15T18:47:10Z</time>
      </trkpt>
      <trkpt lat="46.04504" lon="4.69789">
        <ele>198</ele>
        <time>2022-09-15T18:47:19Z</time>
      </trkpt>
      <trkpt lat="46.0439" lon="4.69819">
        <ele>194</ele>
        <time>2022-09-15T18:47:39Z</time>
      </trkpt>
      <trkpt lat="46.04356" lon="4.69835">
        <ele>193</ele>
        <time>2022-09-15T18:47:46Z</time>
      </trkpt>
      <trkpt lat="46.04339" lon="4.69847">
        <ele>192</ele>
        <time>2022-09-15T18:47:49Z</time>
      </trkpt>
      <trkpt lat="46.04321" lon="4.69873">
        <ele>191</ele>
        <time>2022-09-15T18:47:54Z</time>
      </trkpt>
      <trkpt lat="46.04306" lon="4.69901">
        <ele>190</ele>
        <time>2022-09-15T18:47:58Z</time>
      </trkpt>
      <trkpt lat="46.04288" lon="4.69922">
        <ele>189</ele>
        <time>2022-09-15T18:48:02Z</time>
      </trkpt>
      <trkpt lat="46.04196" lon="4.7001">
        <ele>188</ele>
        <time>2022-09-15T18:48:22Z</time>
      </trkpt>
      <trkpt lat="46.04135" lon="4.70055">
        <ele>191</ele>
        <time>2022-09-15T18:48:34Z</time>
      </trkpt>
      <trkpt lat="46.04078" lon="4.7008">
        <ele>194</ele>
        <time>2022-09-15T18:48:45Z</time>
      </trkpt>
      <trkpt lat="46.04022" lon="4.70095">
        <ele>195</ele>
        <time>2022-09-15T18:48:55Z</time>
      </trkpt>
      <trkpt lat="46.03947" lon="4.70108">
        <ele>196</ele>
        <time>2022-09-15T18:49:08Z</time>
      </trkpt>
      <trkpt lat="46.03913" lon="4.70122">
        <ele>195</ele>
        <time>2022-09-15T18:49:14Z</time>
      </trkpt>
      <trkpt lat="46.03414" lon="4.70298">
        <ele>189</ele>
        <time>2022-09-15T18:50:46Z</time>
      </trkpt>
      <trkpt lat="46.03264" lon="4.70359">
        <ele>191</ele>
        <time>2022-09-15T18:51:14Z</time>
      </trkpt>
      <trkpt lat="46.03061" lon="4.70455">
        <ele>191</ele>
        <time>2022-09-15T18:51:52Z</time>
      </trkpt>
      <trkpt lat="46.02952" lon="4.70562">
        <ele>191</ele>
        <time>2022-09-15T18:52:15Z</time>
      </trkpt>
      <trkpt lat="46.0294" lon="4.70588">
        <ele>192</ele>
        <time>2022-09-15T18:52:19Z</time>
      </trkpt>
      <trkpt lat="46.02929" lon="4.70632">
        <ele>191</ele>
        <time>2022-09-15T18:52:25Z</time>
      </trkpt>
      <trkpt lat="46.02927" lon="4.70649">
        <ele>191</ele>
        <time>2022-09-15T18:52:27Z</time>
      </trkpt>
      <trkpt lat="46.02915" lon="4.70659">
        <ele>191</ele>
        <time>2022-09-15T18:52:29Z</time>
      </trkpt>
      <trkpt lat="46.02903" lon="4.70662">
        <ele>191</ele>
        <time>2022-09-15T18:52:31Z</time>
      </trkpt>
      <trkpt lat="46.02857" lon="4.70661">
        <ele>190</ele>
        <time>2022-09-15T18:52:40Z</time>
      </trkpt>
      <trkpt lat="46.0279" lon="4.70672">
        <ele>189</ele>
        <time>2022-09-15T18:52:52Z</time>
      </trkpt>
      <trkpt lat="46.0263" lon="4.70656">
        <ele>190</ele>
        <time>2022-09-15T18:53:20Z</time>
      </trkpt>
      <trkpt lat="46.02569" lon="4.70642">
        <ele>190</ele>
        <time>2022-09-15T18:53:31Z</time>
      </trkpt>
      <trkpt lat="46.02476" lon="4.70616">
        <ele>188</ele>
        <time>2022-09-15T18:53:48Z</time>
      </trkpt>
      <trkpt lat="46.02454" lon="4.7071">
        <ele>190</ele>
        <time>2022-09-15T18:54:00Z</time>
      </trkpt>
      <trkpt lat="46.02446" lon="4.70737">
        <ele>190</ele>
        <time>2022-09-15T18:54:04Z</time>
      </trkpt>
      <trkpt lat="46.02432" lon="4.70762">
        <ele>189</ele>
        <time>2022-09-15T18:54:08Z</time>
      </trkpt>
      <trkpt lat="46.02427" lon="4.70758">
        <ele>188</ele>
        <time>2022-09-15T18:54:09Z</time>
      </trkpt>
      <trkpt lat="46.02422" lon="4.70761">
        <ele>188</ele>
        <time>2022-09-15T18:54:10Z</time>
      </trkpt>
      <trkpt lat="46.02419" lon="4.70766">
        <ele>188</ele>
        <time>2022-09-15T18:54:11Z</time>
      </trkpt>
      <trkpt lat="46.02419" lon="4.70774">
        <ele>188</ele>
        <time>2022-09-15T18:54:12Z</time>
      </trkpt>
      <trkpt lat="46.02405" lon="4.7078">
        <ele>186</ele>
        <time>2022-09-15T18:54:14Z</time>
      </trkpt>
      <trkpt lat="46.0239" lon="4.70782">
        <ele>185</ele>
        <time>2022-09-15T18:54:17Z</time>
      </trkpt>
      <trkpt lat="46.02181" lon="4.70742">
        <ele>179</ele>
        <time>2022-09-15T18:54:54Z</time>
      </trkpt>
      <trkpt lat="46.02156" lon="4.70738">
        <ele>179</ele>
        <time>2022-09-15T18:54:59Z</time>
      </trkpt>
      <trkpt lat="46.01912" lon="4.70694">
        <ele>184</ele>
        <time>2022-09-15T18:55:43Z</time>
      </trkpt>
      <trkpt lat="46.01857" lon="4.70691">
        <ele>186</ele>
        <time>2022-09-15T18:55:52Z</time>
      </trkpt>
      <trkpt lat="46.01411" lon="4.70741">
        <ele>189</ele>
        <time>2022-09-15T18:57:12Z</time>
      </trkpt>
      <trkpt lat="46.01347" lon="4.70745">
        <ele>189</ele>
        <time>2022-09-15T18:57:23Z</time>
      </trkpt>
      <trkpt lat="46.01281" lon="4.70736">
        <ele>192</ele>
        <time>2022-09-15T18:57:35Z</time>
      </trkpt>
      <trkpt lat="46.01227" lon="4.70724">
        <ele>193</ele>
        <time>2022-09-15T18:57:45Z</time>
      </trkpt>
      <trkpt lat="46.01151" lon="4.70688">
        <ele>194</ele>
        <time>2022-09-15T18:57:59Z</time>
      </trkpt>
      <trkpt lat="46.00795" lon="4.70526">
        <ele>205</ele>
        <time>2022-09-15T18:59:06Z</time>
      </trkpt>
      <trkpt lat="46.00748" lon="4.70506">
        <ele>208</ele>
        <time>2022-09-15T18:59:14Z</time>
      </trkpt>
      <trkpt lat="46.00722" lon="4.70499">
        <ele>209</ele>
        <time>2022-09-15T18:59:19Z</time>
      </trkpt>
      <trkpt lat="46.00684" lon="4.70497">
        <ele>211</ele>
        <time>2022-09-15T18:59:26Z</time>
      </trkpt>
      <trkpt lat="46.00633" lon="4.70498">
        <ele>210</ele>
        <time>2022-09-15T18:59:35Z</time>
      </trkpt>
      <trkpt lat="46.0057" lon="4.7051">
        <ele>206</ele>
        <time>2022-09-15T18:59:46Z</time>
      </trkpt>
      <trkpt lat="46.00512" lon="4.70511">
        <ele>204</ele>
        <time>2022-09-15T18:59:57Z</time>
      </trkpt>
      <trkpt lat="46.00498" lon="4.70518">
        <ele>203</ele>
        <time>2022-09-15T18:59:59Z</time>
      </trkpt>
      <trkpt lat="46.00495" lon="4.70511">
        <ele>203</ele>
        <time>2022-09-15T19:00:00Z</time>
      </trkpt>
      <trkpt lat="46.00489" lon="4.70505">
        <ele>203</ele>
        <time>2022-09-15T19:00:01Z</time>
      </trkpt>
      <trkpt lat="46.00483" lon="4.70503">
        <ele>203</ele>
        <time>2022-09-15T19:00:03Z</time>
      </trkpt>
      <trkpt lat="46.00478" lon="4.70504">
        <ele>203</ele>
        <time>2022-09-15T19:00:03Z</time>
      </trkpt>
      <trkpt lat="46.00472" lon="4.70509">
        <ele>202</ele>
        <time>2022-09-15T19:00:05Z</time>
      </trkpt>
      <trkpt lat="46.00469" lon="4.70515">
        <ele>202</ele>
        <time>2022-09-15T19:00:06Z</time>
      </trkpt>
      <trkpt lat="46.00457" lon="4.70504">
        <ele>202</ele>
        <time>2022-09-15T19:00:08Z</time>
      </trkpt>
      <trkpt lat="46.00439" lon="4.70495">
        <ele>201</ele>
        <time>2022-09-15T19:00:12Z</time>
      </trkpt>
      <trkpt lat="46.00377" lon="4.70494">
        <ele>199</ele>
        <time>2022-09-15T19:00:23Z</time>
      </trkpt>
      <trkpt lat="46.00318" lon="4.7051">
        <ele>198</ele>
        <time>2022-09-15T19:00:33Z</time>
      </trkpt>
      <trkpt lat="46.00259" lon="4.70517">
        <ele>198</ele>
        <time>2022-09-15T19:00:44Z</time>
      </trkpt>
      <trkpt lat="46.00216" lon="4.70529">
        <ele>198</ele>
        <time>2022-09-15T19:00:52Z</time>
      </trkpt>
      <trkpt lat="46.00164" lon="4.70534">
        <ele>198</ele>
        <time>2022-09-15T19:01:01Z</time>
      </trkpt>
      <trkpt lat="46.00163" lon="4.70525">
        <ele>198</ele>
        <time>2022-09-15T19:01:02Z</time>
      </trkpt>
      <trkpt lat="46.0016" lon="4.70519">
        <ele>198</ele>
        <time>2022-09-15T19:01:03Z</time>
      </trkpt>
      <trkpt lat="46.00151" lon="4.7051">
        <ele>198</ele>
        <time>2022-09-15T19:01:05Z</time>
      </trkpt>
      <trkpt lat="46.00145" lon="4.70509">
        <ele>198</ele>
        <time>2022-09-15T19:01:06Z</time>
      </trkpt>
      <trkpt lat="46.00138" lon="4.70512">
        <ele>198</ele>
        <time>2022-09-15T19:01:07Z</time>
      </trkpt>
      <trkpt lat="46.00133" lon="4.70517">
        <ele>198</ele>
        <time>2022-09-15T19:01:08Z</time>
      </trkpt>
      <trkpt lat="46.00129" lon="4.70528">
        <ele>198</ele>
        <time>2022-09-15T19:01:10Z</time>
      </trkpt>
      <trkpt lat="46.00129" lon="4.70537">
        <ele>198</ele>
        <time>2022-09-15T19:01:11Z</time>
      </trkpt>
      <trkpt lat="46.00132" lon="4.70548">
        <ele>198</ele>
        <time>2022-09-15T19:01:12Z</time>
      </trkpt>
      <trkpt lat="46.00134" lon="4.70553">
        <ele>198</ele>
        <time>2022-09-15T19:01:13Z</time>
      </trkpt>
      <trkpt lat="46.00128" lon="4.70563">
        <ele>198</ele>
        <time>2022-09-15T19:01:15Z</time>
      </trkpt>
      <trkpt lat="46.00114" lon="4.70574">
        <ele>198</ele>
        <time>2022-09-15T19:01:18Z</time>
      </trkpt>
      <trkpt lat="46.00082" lon="4.70591">
        <ele>198</ele>
        <time>2022-09-15T19:01:24Z</time>
      </trkpt>
      <trkpt lat="46.00074" lon="4.70596">
        <ele>198</ele>
        <time>2022-09-15T19:01:25Z</time>
      </trkpt>
      <trkpt lat="46.00043" lon="4.70606">
        <ele>198</ele>
        <time>2022-09-15T19:01:31Z</time>
      </trkpt>
      <trkpt lat="45.99832" lon="4.70655">
        <ele>201</ele>
        <time>2022-09-15T19:02:09Z</time>
      </trkpt>
      <trkpt lat="45.99501" lon="4.70719">
        <ele>199</ele>
        <time>2022-09-15T19:03:08Z</time>
      </trkpt>
      <trkpt lat="45.99479" lon="4.7073">
        <ele>199</ele>
        <time>2022-09-15T19:03:12Z</time>
      </trkpt>
      <trkpt lat="45.99476" lon="4.70722">
        <ele>199</ele>
        <time>2022-09-15T19:03:14Z</time>
      </trkpt>
      <trkpt lat="45.99469" lon="4.70719">
        <ele>199</ele>
        <time>2022-09-15T19:03:15Z</time>
      </trkpt>
      <trkpt lat="45.99465" lon="4.7072">
        <ele>200</ele>
        <time>2022-09-15T19:03:16Z</time>
      </trkpt>
      <trkpt lat="45.9946" lon="4.7073">
        <ele>200</ele>
        <time>2022-09-15T19:03:17Z</time>
      </trkpt>
      <trkpt lat="45.99446" lon="4.70724">
        <ele>200</ele>
        <time>2022-09-15T19:03:20Z</time>
      </trkpt>
      <trkpt lat="45.99033" lon="4.70708">
        <ele>192</ele>
        <time>2022-09-15T19:04:33Z</time>
      </trkpt>
      <trkpt lat="45.99046" lon="4.70799">
        <ele>190</ele>
        <time>2022-09-15T19:04:45Z</time>
      </trkpt>
    </trkseg>
  </trk>
</gpx>